GFSGBSN_sfc_wetblb_000.txt.gz
Wetbulb
56.25 56.96 56.99 57.34 57.92 58.69 58.31 58.22 57.91 57.20 56.01 55.59 55.84 56.51 56.78 56.28 56.41 56.16 55.72 55.23 55.19 54.60 54.43 54.29 55.02 55.44 57.62 55.96 54.13 59.14 62.60 64.52 60.20 60.47 57.49 55.59 53.72 52.84 49.54 50.17 50.08 48.55 48.52 49.38 49.40 49.16 49.82
56.70 56.70 56.96 56.92 58.15 58.18 57.87 57.53 57.01 56.40 55.61 55.57 56.33 56.41 56.34 56.31 56.05 55.84 55.41 54.85 54.08 53.28 53.40 53.88 54.33 54.90 57.53 51.50 58.34 59.18 59.06 58.79 58.62 58.26 55.66 55.55 53.85 53.88 50.66 49.69 48.93 50.17 49.40 48.86 49.85 50.54 50.52
56.60 56.52 56.77 57.06 57.94 57.67 56.96 56.68 56.26 55.73 55.70 55.85 56.54 56.65 56.39 55.61 55.61 55.50 55.32 54.58 53.26 53.12 53.73 54.16 54.08 57.23 57.98 55.00 58.25 58.95 58.62 57.82 58.34 58.13 55.77 56.64 56.75 53.12 52.72 49.92 52.52 50.99 47.98 49.75 50.36 51.17 50.12
56.40 56.42 56.13 56.98 57.36 57.02 56.75 56.41 55.18 55.27 55.64 56.75 56.85 56.61 56.27 56.15 54.97 54.60 54.19 53.57 53.26 53.53 53.59 53.71 53.49 58.48 54.99 58.56 59.20 57.47 57.91 56.86 57.82 58.98 57.64 57.53 57.39 55.63 54.28 53.57 50.50 48.17 49.39 45.46 49.87 50.99 51.73
56.09 56.18 55.67 56.70 57.23 56.65 56.43 55.83 54.90 54.90 55.79 56.39 56.55 56.50 56.01 55.66 55.44 54.26 53.82 53.86 54.16 53.94 53.72 53.01 56.37 59.63 53.60 59.08 55.38 57.31 57.47 55.31 56.56 58.00 57.48 57.05 56.87 52.74 52.13 48.25 46.57 48.05 43.67 45.88 47.73 51.22 50.88
55.96 55.52 55.05 56.35 57.30 56.38 56.32 55.60 54.98 55.14 55.63 56.24 56.29 56.31 56.03 55.70 55.36 55.00 54.80 54.86 55.00 54.10 55.00 58.53 60.15 56.37 54.34 52.32 55.03 55.63 57.46 57.33 55.73 55.86 54.68 54.30 53.34 49.92 49.61 47.78 41.61 43.35 44.23 45.32 44.81 49.01 48.45
55.49 54.95 54.53 56.04 56.53 56.08 55.82 55.60 55.04 55.10 55.28 55.64 55.60 56.72 55.94 55.56 55.30 54.51 53.81 56.98 56.16 55.19 58.46 53.68 52.39 52.34 51.98 53.81 56.35 55.19 56.43 55.82 56.27 54.32 50.42 51.97 48.71 46.68 47.96 48.84 47.87 46.83 45.36 44.69 47.81 49.63 47.57
54.92 54.20 54.00 55.78 55.70 55.22 55.31 55.76 55.26 54.86 55.02 55.03 55.06 56.21 55.70 55.53 55.34 54.65 56.11 59.59 59.05 58.81 50.86 54.60 54.54 53.79 55.11 56.43 51.59 53.27 56.98 53.10 51.90 48.74 50.72 47.78 46.25 48.87 49.73 49.00 47.76 46.86 45.33 45.29 47.91 49.04 47.64
54.67 53.48 53.98 55.47 55.53 54.61 54.92 55.53 55.14 55.08 54.87 55.00 55.03 55.16 56.10 54.80 54.68 55.99 61.79 61.52 64.43 63.91 51.58 51.93 53.96 52.87 53.81 55.71 52.20 52.06 55.31 52.82 50.29 48.76 47.68 47.21 47.84 49.75 48.52 48.33 46.85 47.25 45.39 46.23 45.52 48.41 49.04
54.54 53.26 54.17 54.91 55.08 54.67 54.59 54.63 54.59 54.63 54.61 54.88 54.96 55.34 55.33 54.11 54.97 63.22 60.60 63.26 65.73 65.55 47.71 46.47 50.19 52.33 53.98 54.46 50.62 55.21 55.85 53.26 50.19 47.46 49.10 48.26 49.81 48.74 48.16 47.62 47.68 44.61 48.76 47.39 45.99 44.82 41.28
53.87 53.00 54.16 54.62 54.57 54.41 54.17 54.27 54.04 54.12 54.26 54.84 54.96 55.65 54.01 53.41 59.79 59.23 62.16 65.51 66.31 64.11 40.35 48.54 50.11 56.66 53.86 52.28 52.67 52.64 56.40 53.87 48.54 48.47 49.33 47.03 48.27 48.39 47.41 47.06 48.60 46.72 49.22 47.28 46.84 45.03 44.61
52.98 52.74 54.14 54.39 54.53 54.26 53.96 53.76 53.54 53.68 54.00 54.64 55.35 56.25 54.09 58.01 63.53 63.79 65.68 66.58 64.60 51.21 38.88 45.96 50.63 50.34 49.92 51.31 51.54 53.33 52.73 55.58 54.93 50.21 50.78 49.04 51.58 50.32 49.29 49.79 49.40 50.64 48.91 48.34 47.91 46.03 40.77
53.29 53.33 53.93 54.49 54.51 54.06 53.76 53.40 53.14 53.34 54.04 55.63 56.10 55.78 57.44 64.90 61.19 66.72 68.08 61.95 49.39 43.07 48.80 45.40 47.22 50.03 49.41 48.38 50.03 51.05 50.17 49.66 48.12 44.88 44.99 48.16 48.28 50.81 50.82 48.52 51.07 49.21 46.76 40.85 39.33 40.66 38.24
53.65 53.83 53.66 54.37 54.37 53.88 53.63 53.18 52.76 53.02 53.82 55.71 56.78 55.81 61.27 65.89 66.84 68.35 64.55 53.36 42.56 45.52 45.74 49.46 48.97 49.48 46.97 49.07 48.79 49.54 49.21 46.66 49.71 49.52 46.10 43.50 41.28 47.77 50.30 48.02 45.57 47.02 45.70 40.88 32.81 35.10 38.40
53.84 53.79 53.12 53.77 54.14 53.67 53.03 52.57 52.48 52.71 53.43 55.97 55.41 66.35 66.17 67.31 68.83 67.85 57.15 51.03 45.98 46.08 48.90 47.46 48.27 45.88 45.87 47.99 48.59 48.72 47.57 46.06 47.00 48.99 44.57 43.86 42.91 49.25 49.06 49.70 48.74 46.41 42.80 45.95 41.01 40.99 37.12
53.94 53.59 52.48 53.36 53.69 53.21 52.32 51.98 52.16 52.57 53.24 55.92 61.19 60.23 60.07 67.03 68.84 63.96 55.13 47.50 48.65 50.85 49.80 49.38 44.50 47.43 44.40 46.01 46.50 47.43 46.57 48.58 47.14 49.16 50.00 45.72 42.26 46.59 47.63 49.98 50.25 47.53 47.96 41.54 43.16 33.59 30.79
53.59 53.38 52.41 53.44 53.48 52.41 50.92 51.63 51.87 52.32 52.92 55.05 63.02 53.89 63.07 67.04 66.20 55.39 51.38 50.04 49.15 51.43 52.51 48.27 47.37 46.16 47.65 45.87 47.37 46.53 46.35 48.15 49.91 49.05 50.20 47.60 45.96 43.98 47.32 45.73 44.63 46.02 44.73 44.32 42.78 40.67 33.77
53.10 52.87 52.68 53.39 53.15 51.66 51.36 51.33 51.54 51.72 51.96 56.44 62.10 50.65 64.26 67.09 51.24 52.61 51.77 50.64 49.13 50.73 53.01 51.73 51.68 49.66 48.20 48.09 46.85 46.63 46.15 48.01 50.73 50.43 46.15 46.87 45.03 42.36 42.72 47.31 48.79 47.08 44.98 44.09 39.06 36.64 40.10
52.49 52.58 52.60 53.12 52.70 50.34 51.30 51.13 51.30 51.43 51.62 61.37 55.31 56.28 63.45 63.71 49.62 54.73 51.94 50.70 51.57 50.11 50.48 50.31 49.49 51.06 51.64 48.85 44.94 47.77 48.09 50.73 51.27 49.88 46.78 47.78 45.43 39.90 40.72 45.27 47.54 44.20 45.70 44.61 44.18 40.10 35.58
52.20 52.13 52.33 51.60 51.52 50.11 51.17 51.06 51.29 51.34 51.57 58.41 57.68 51.53 54.09 56.02 57.72 52.65 50.26 49.16 48.59 53.04 51.27 52.09 50.93 51.54 50.10 48.36 49.99 47.11 46.74 49.51 50.87 49.40 46.78 48.62 44.98 41.32 37.40 40.17 43.46 41.20 42.69 43.86 42.55 38.09 37.02
52.09 51.99 51.66 51.08 49.55 49.31 50.54 51.16 51.17 51.18 51.43 58.62 58.44 53.58 53.74 52.04 53.39 52.72 52.42 50.57 48.62 47.35 51.60 52.22 49.67 49.84 49.15 46.00 47.38 46.50 48.48 47.71 49.02 46.66 48.59 48.30 42.17 42.76 42.85 43.09 43.10 42.16 41.69 42.35 40.92 41.73 36.44
52.03 51.63 51.08 51.67 49.89 49.73 50.62 51.28 50.74 50.89 50.40 59.46 55.40 54.43 55.82 54.18 54.29 52.08 48.56 49.69 48.90 49.29 50.01 48.50 48.59 50.31 50.22 46.60 46.80 45.65 47.15 46.74 46.30 48.63 47.73 48.08 42.30 40.39 38.73 43.18 42.55 39.89 41.75 42.15 42.09 42.18 42.00
51.95 51.12 50.95 51.66 51.05 51.17 51.85 51.12 50.38 50.82 53.04 60.22 59.52 60.36 57.08 49.52 52.65 51.74 50.97 50.32 50.07 51.53 51.34 51.91 51.44 50.33 47.66 49.36 51.51 51.61 51.64 50.87 49.56 47.84 46.50 43.47 42.22 39.36 36.30 39.88 38.71 36.23 40.42 42.63 42.84 44.07 43.26
51.55 50.83 51.06 52.52 52.50 52.65 51.78 50.97 50.16 50.60 51.86 62.25 61.10 59.51 55.54 50.78 53.63 51.72 51.75 51.83 50.53 50.86 49.21 51.54 52.22 50.34 51.47 54.20 52.23 51.16 50.77 49.93 49.86 48.76 49.76 39.68 40.12 40.00 35.77 36.10 31.95 42.24 46.46 45.88 43.29 44.32 45.20
51.31 50.87 52.23 52.66 52.26 52.28 51.47 50.99 50.15 50.32 51.35 61.78 61.01 60.07 55.23 40.60 53.17 51.90 51.39 51.06 51.89 51.61 50.90 51.02 52.28 53.79 55.45 52.55 47.59 40.36 40.74 38.25 41.90 46.71 47.55 47.06 44.33 35.05 34.54 33.91 37.54 40.70 43.81 42.67 41.03 40.31 46.01
51.17 51.76 52.27 52.34 51.88 51.68 51.23 50.87 50.27 50.07 50.86 61.85 59.62 60.87 59.09 51.94 52.66 53.29 51.22 52.02 50.83 50.30 49.85 49.91 54.40 56.56 54.71 52.76 43.72 36.10 38.68 40.49 38.78 40.44 45.89 44.74 43.59 41.81 35.20 30.50 28.73 41.94 45.78 47.77 46.47 36.12 46.85
50.90 51.38 51.78 51.93 51.68 51.60 51.26 50.83 50.39 50.19 50.62 57.60 59.96 61.84 60.46 55.20 54.79 54.97 52.06 51.67 53.90 52.16 49.44 50.57 51.51 50.25 53.60 44.69 35.52 42.14 40.83 43.67 37.51 35.89 34.97 36.09 38.20 35.68 35.23 32.54 36.41 44.13 46.49 47.55 35.06 38.01 46.39
50.44 50.74 50.99 51.32 51.69 52.34 51.28 50.72 50.48 50.15 50.35 55.59 60.54 61.49 60.05 56.70 54.38 56.24 55.88 54.50 53.52 53.69 49.81 51.76 50.12 51.73 50.42 38.24 39.87 43.48 38.93 42.87 41.85 42.78 38.15 36.40 35.85 33.50 36.15 32.97 30.46 46.85 45.47 39.39 45.23 47.83 46.35
49.92 50.03 50.28 50.68 50.89 51.13 51.82 50.72 50.77 50.49 50.29 51.69 60.31 60.75 61.73 59.02 55.21 59.05 57.74 58.06 56.64 56.27 55.01 54.18 51.32 50.85 51.85 47.51 43.90 45.94 37.36 36.65 40.77 37.04 45.42 39.29 43.00 41.35 40.37 39.64 47.67 48.55 47.04 48.70 47.76 46.45 45.71

GFSGBSN_sfc_wetblb_003.txt.gz
Wetbulb
57.17 57.01 57.64 57.50 57.58 58.04 57.48 57.17 56.83 55.96 55.58 55.23 54.98 55.04 55.46 56.46 56.62 55.83 55.39 55.06 55.02 54.88 54.29 53.82 54.06 54.81 54.19 53.90 53.25 56.62 64.46 63.36 60.26 57.33 56.25 55.05 52.20 48.49 45.66 45.90 45.85 44.32 44.53 45.75 45.93 45.99 46.15
57.06 57.35 57.55 57.47 57.13 57.11 57.18 56.50 55.74 55.24 55.00 54.69 54.83 55.24 56.23 56.30 56.44 55.53 55.18 54.95 54.32 53.94 53.18 53.30 53.71 54.27 53.31 49.04 57.34 57.52 56.94 58.88 56.73 56.64 56.41 55.12 51.75 51.98 49.31 46.22 44.45 46.63 45.66 44.42 44.82 45.23 46.58
56.55 57.41 57.26 57.05 56.81 56.85 56.46 55.80 55.38 54.97 54.79 55.24 55.11 55.26 56.11 56.13 55.94 54.86 54.98 54.59 54.02 53.39 52.96 53.18 53.55 54.43 55.48 55.00 55.61 54.09 56.30 53.84 53.69 54.48 53.12 53.78 53.06 50.18 48.70 46.78 49.24 47.43 43.24 44.51 45.40 46.96 45.88
56.73 56.81 57.10 56.59 56.86 56.10 55.78 55.44 55.12 54.80 54.93 54.90 56.66 56.41 55.99 55.79 54.85 54.48 54.52 53.94 53.61 52.92 52.71 52.95 53.06 53.57 52.03 59.19 53.44 54.24 54.04 53.70 55.05 55.75 54.55 54.27 54.07 51.31 49.70 48.04 47.04 43.98 43.58 39.25 45.01 47.37 47.67
56.56 56.51 56.65 56.17 56.71 55.88 55.65 55.30 54.97 54.60 54.59 55.22 56.33 56.21 55.85 55.28 54.98 54.19 53.61 53.06 52.68 52.70 53.04 52.89 51.40 54.18 51.48 57.26 53.53 54.40 53.69 53.21 54.63 55.57 53.83 54.98 52.66 49.04 48.13 42.57 39.89 41.51 37.01 40.81 43.32 47.74 47.17
56.32 56.47 56.11 55.99 56.77 56.03 55.59 56.06 55.45 54.55 55.28 55.56 55.87 55.96 55.71 55.26 54.68 54.12 53.60 53.90 54.65 53.42 53.32 55.30 56.21 51.65 56.47 51.04 53.78 53.57 53.46 54.68 54.11 53.83 52.46 50.81 48.21 43.88 43.07 40.83 36.43 38.54 40.07 40.61 40.74 43.23 43.83
56.09 55.81 55.43 55.83 56.55 55.63 55.24 55.58 55.09 55.32 55.22 55.48 55.96 55.99 55.33 55.08 54.80 54.32 52.53 51.30 50.56 49.48 53.31 50.37 51.67 52.82 50.37 51.54 53.16 52.25 54.40 53.17 53.25 51.12 45.73 48.85 43.63 39.51 42.08 44.08 44.88 43.58 41.60 41.40 41.65 46.03 43.93
55.79 55.38 54.69 55.51 56.05 55.00 55.02 55.55 55.63 55.24 55.12 55.47 55.92 55.56 55.40 55.08 54.72 54.17 52.11 54.31 54.94 54.88 47.27 55.25 52.71 52.44 54.92 53.11 50.11 51.38 54.17 50.43 49.76 45.33 47.46 43.67 40.74 45.43 47.58 47.30 45.54 44.05 42.53 41.69 43.56 46.51 43.23
55.45 54.78 54.03 55.28 55.62 54.76 55.00 55.30 54.82 54.84 55.04 55.12 55.15 55.93 54.93 54.90 54.54 52.51 53.28 57.06 60.73 59.05 46.40 51.37 52.87 52.11 53.07 54.08 50.46 49.67 52.27 50.85 47.48 45.64 45.38 42.51 44.87 48.76 47.52 45.78 44.66 43.75 42.30 41.67 42.13 44.51 43.48
55.18 53.86 53.97 54.93 54.90 54.49 54.47 54.43 54.31 54.37 54.68 54.63 54.61 54.99 54.33 53.67 52.49 57.41 56.20 59.78 61.28 59.93 40.34 45.28 49.15 51.33 53.33 53.06 49.45 52.34 52.83 50.56 48.45 45.52 46.12 44.66 48.34 47.99 46.26 45.15 44.78 41.94 46.67 45.60 43.80 40.43 35.28
54.81 53.27 54.18 54.64 54.53 54.17 53.86 53.82 53.66 53.72 54.29 54.55 54.66 55.09 53.37 54.86 53.91 56.26 58.36 61.30 60.34 56.80 27.94 47.37 49.10 55.44 52.28 50.80 50.12 50.56 53.53 52.04 46.63 46.01 46.80 44.20 45.45 45.65 44.91 45.07 46.61 44.40 47.24 44.77 43.77 39.82 37.94
54.17 53.53 54.25 54.33 54.17 53.96 53.64 53.42 53.23 53.47 53.99 54.49 54.84 55.62 53.47 53.63 53.76 59.88 62.36 62.16 55.10 40.15 30.94 45.76 49.21 49.29 47.79 49.89 50.34 50.70 50.69 52.96 52.45 47.99 46.92 45.46 48.61 46.61 45.55 48.35 47.49 47.85 45.98 45.16 43.61 40.54 31.18
53.12 53.28 54.11 54.21 54.06 53.70 53.56 52.98 52.90 53.10 53.87 54.84 55.57 55.28 54.16 60.41 57.15 62.35 62.19 54.46 39.86 32.40 47.69 43.40 45.59 48.75 47.39 46.91 47.79 48.97 48.13 45.73 43.30 39.69 40.40 45.04 45.60 47.06 48.71 44.91 47.63 45.26 41.05 31.19 30.41 28.53 28.69
52.85 53.72 53.67 53.78 53.74 53.35 53.26 52.52 52.42 52.74 53.51 54.80 55.77 55.47 58.66 64.00 64.24 63.36 58.57 47.63 32.36 45.20 43.96 48.07 47.36 47.71 45.23 47.33 47.07 48.20 45.74 42.04 45.44 45.47 42.33 39.33 35.81 44.28 47.68 44.77 41.82 42.89 41.40 31.02 27.34 24.79 31.46
53.37 53.88 53.10 53.36 53.39 53.04 52.62 52.03 52.16 52.57 53.12 54.71 55.41 59.55 61.14 62.08 64.31 61.07 52.32 37.72 39.67 43.72 46.99 45.95 46.52 43.99 43.87 47.03 46.38 46.01 42.98 42.02 43.81 44.67 40.50 39.99 39.59 46.23 46.69 46.70 45.69 43.87 36.05 41.81 34.95 32.03 28.73
53.63 53.61 52.95 53.16 52.87 52.57 51.35 51.54 51.82 52.47 53.16 54.00 56.51 57.08 56.66 62.54 63.56 57.61 47.11 43.12 47.00 48.78 48.60 47.37 42.10 45.27 41.15 43.36 43.73 43.92 43.27 46.19 45.60 46.98 46.22 43.11 37.61 44.26 46.12 47.37 47.41 43.83 44.77 35.41 33.74 25.94 24.35
53.26 53.16 52.58 52.91 52.70 51.89 49.67 50.95 51.58 51.94 52.72 55.09 56.22 48.63 57.93 62.46 59.51 49.58 40.57 44.65 48.11 50.82 51.30 47.81 45.90 44.32 45.60 43.20 44.62 43.79 43.68 45.97 47.57 47.01 46.20 44.12 41.95 40.11 44.93 42.06 40.90 42.03 40.80 40.57 39.03 32.66 25.47
52.73 52.42 52.06 52.64 52.50 50.58 51.13 50.96 51.18 51.21 51.98 53.74 54.32 45.24 59.49 59.78 44.12 45.78 44.02 50.85 47.66 49.11 51.44 50.12 49.29 47.85 45.99 45.88 44.62 44.35 43.53 45.38 48.83 48.26 42.75 43.62 39.78 30.33 39.68 44.96 46.17 43.64 41.86 41.34 28.80 31.16 29.80
52.29 52.09 52.12 52.34 51.77 49.71 50.88 50.67 51.01 51.03 51.56 56.23 50.42 51.87 58.46 58.45 37.57 38.70 49.98 49.53 50.21 48.39 48.76 48.77 47.91 49.08 49.01 45.63 41.16 45.28 45.40 48.85 49.24 46.18 42.95 43.96 37.43 29.40 36.22 41.59 44.23 41.04 43.17 43.71 40.25 31.59 29.05
52.05 51.83 51.94 50.95 49.44 48.39 50.39 50.68 50.93 51.03 51.16 54.57 52.83 42.57 50.06 51.07 51.56 49.03 48.29 46.65 46.78 50.82 49.75 50.61 48.87 49.40 47.25 45.35 46.91 43.84 44.51 48.48 48.26 46.09 45.82 46.05 41.64 33.67 28.95 35.20 38.89 35.86 40.01 41.17 39.60 28.66 30.38
51.66 51.57 51.53 50.56 48.03 48.17 49.46 50.95 50.53 50.78 51.05 55.72 53.71 46.85 46.46 37.45 43.70 47.56 48.43 47.99 46.30 45.28 49.76 50.06 47.37 47.92 46.00 40.16 43.36 42.78 45.19 45.60 47.38 45.78 46.35 43.95 35.14 38.11 39.18 40.07 40.68 39.49 39.05 39.52 37.52 36.67 30.35
51.57 51.25 50.95 51.35 48.39 48.90 51.40 50.70 50.28 50.53 48.89 54.03 52.19 49.39 49.07 46.10 47.01 46.83 44.61 46.09 46.53 47.59 47.58 46.62 45.66 47.92 47.53 41.26 43.62 41.31 44.83 44.08 43.63 45.45 44.12 44.73 34.16 31.58 31.40 40.52 39.61 36.17 38.39 38.43 38.80 39.36 38.61
51.71 50.84 50.88 51.45 50.49 51.72 51.25 50.53 50.03 50.40 51.42 54.48 54.43 54.06 52.19 46.73 45.67 43.81 43.00 47.31 48.22 48.12 47.89 50.27 47.97 45.07 41.47 45.72 47.06 47.02 47.03 46.61 46.93 44.29 40.79 37.07 31.36 30.27 29.12 36.01 33.84 28.10 34.41 39.82 40.22 40.85 39.33
51.31 50.82 51.14 51.81 52.17 52.04 51.25 50.66 50.13 50.21 50.86 57.34 56.03 55.26 46.33 38.72 43.62 45.72 49.74 49.76 47.82 48.04 45.36 49.42 49.15 44.04 48.26 49.13 45.62 43.90 42.95 44.08 46.75 45.92 43.84 33.91 33.61 29.97 24.62 27.73 20.13 38.68 43.57 42.77 40.73 41.48 42.50
50.84 50.89 51.93 52.10 51.84 51.50 51.00 50.45 50.05 50.18 51.04 55.89 56.05 55.89 47.97 37.19 46.34 47.88 48.51 48.10 48.28 48.88 47.19 48.09 49.29 49.69 50.52 47.94 36.17 33.21 31.50 31.26 35.14 45.45 44.25 42.31 31.69 25.58 26.02 24.08 31.10 37.51 41.27 39.09 36.52 36.63 43.60
50.81 51.27 51.93 51.78 51.37 51.09 50.55 50.48 50.34 50.16 50.75 56.67 55.52 56.55 52.78 43.25 43.73 52.14 47.71 47.78 41.79 42.24 42.30 46.21 51.47 52.32 51.27 36.36 31.83 28.02 27.44 32.50 32.03 38.46 41.19 41.33 33.43 30.19 24.39 21.03 17.28 33.22 43.06 45.46 43.78 29.82 43.55
50.65 51.20 51.74 51.58 51.33 50.93 50.51 50.38 50.28 50.20 50.52 54.48 55.59 57.03 56.20 46.95 49.83 50.98 46.10 45.35 49.16 45.48 41.19 45.12 44.83 44.83 48.24 35.32 32.37 31.65 29.89 39.16 31.81 30.17 27.57 27.89 27.15 24.04 27.86 18.74 28.24 40.00 44.12 45.33 29.44 31.41 43.50
50.44 50.77 50.92 51.51 52.20 51.47 50.46 50.18 50.33 50.37 50.16 53.85 56.06 57.05 56.52 48.38 49.44 53.21 53.57 48.37 49.24 47.12 38.97 45.24 41.89 42.23 36.04 32.90 32.51 32.10 29.42 32.04 31.87 37.01 33.34 29.77 27.28 29.64 28.43 24.65 22.30 43.81 42.85 34.06 38.34 42.49 43.02
50.21 50.13 50.46 50.87 51.48 51.19 50.21 50.03 50.23 50.53 50.14 51.47 56.10 57.47 58.60 53.33 51.26 54.50 53.67 53.43 52.30 51.88 48.88 46.86 43.02 46.71 42.92 36.55 35.75 36.93 32.02 34.23 30.35 26.95 40.99 32.07 35.36 32.11 32.89 31.36 40.03 44.28 42.44 45.48 45.32 42.95 42.50

GFSGBSN_sfc_wetblb_006.txt.gz
Wetbulb
58.17 57.67 57.42 57.41 57.64 57.59 57.32 57.14 56.50 56.20 55.39 55.27 54.88 54.76 55.11 55.39 55.87 56.42 55.24 54.77 54.71 54.39 53.96 53.29 53.85 54.17 52.76 52.31 51.36 56.22 62.50 63.21 61.55 57.43 54.17 52.61 51.62 49.32 44.82 44.69 44.28 41.70 42.28 43.79 44.46 45.99 43.69
57.61 57.15 57.33 57.62 57.62 57.05 56.88 56.59 56.09 55.36 54.96 54.58 54.42 54.42 54.83 55.03 56.25 56.38 54.85 54.65 54.09 53.93 53.14 52.74 53.24 54.12 50.99 47.03 56.43 55.61 58.24 58.80 55.90 54.45 54.60 53.87 52.05 50.89 47.53 45.73 43.13 44.17 43.42 42.96 43.52 44.39 44.87
57.44 57.11 57.32 57.21 57.09 56.80 56.36 55.96 55.50 55.08 54.80 54.48 54.66 54.70 54.76 55.01 56.23 55.99 54.69 54.30 53.92 53.43 52.47 52.83 52.95 53.04 52.92 52.59 56.48 55.10 54.13 53.77 54.74 55.16 53.12 53.02 54.04 49.31 48.33 45.55 46.12 44.51 40.85 41.70 41.17 43.53 43.17
57.33 57.20 57.05 56.89 56.31 56.26 55.61 55.71 55.31 54.81 54.37 54.33 54.60 55.43 55.73 55.65 55.01 54.36 54.09 53.90 53.45 52.62 52.23 52.66 52.76 52.07 50.00 58.06 55.69 53.29 51.83 52.46 54.02 54.61 53.72 53.70 53.38 50.89 47.21 46.46 45.52 42.64 41.23 37.19 42.63 44.69 45.41
57.09 57.07 57.05 56.73 55.78 56.08 55.45 55.29 55.10 55.03 54.33 54.08 55.32 55.85 55.40 55.02 54.70 53.94 53.67 53.01 52.56 52.31 52.70 52.62 50.36 51.97 47.96 58.85 51.87 53.43 52.42 51.77 53.41 54.24 53.42 53.37 51.92 46.76 45.99 40.23 38.03 39.62 34.76 37.59 40.82 45.29 44.14
56.90 57.12 56.78 56.28 55.75 55.85 55.44 54.97 54.94 54.65 54.27 55.20 55.38 55.43 55.06 54.96 54.46 53.81 52.86 52.65 54.08 53.36 52.83 54.33 54.71 49.57 54.22 53.01 52.00 51.72 51.94 52.88 52.54 52.09 51.01 49.14 46.07 42.57 41.57 38.94 33.37 35.96 37.45 35.89 39.01 41.81 43.29
57.12 56.95 56.56 55.66 55.85 55.71 55.23 55.15 54.96 54.75 55.20 55.10 55.36 55.32 55.10 54.86 54.46 53.96 52.41 49.74 48.05 47.35 51.70 47.27 49.55 51.03 51.49 52.17 51.49 50.11 52.14 51.50 51.65 49.41 43.88 47.00 42.32 38.17 40.24 42.04 42.95 43.06 40.10 38.54 39.14 43.61 42.18
56.47 56.35 56.01 55.22 56.07 55.98 55.45 54.94 55.54 54.70 54.90 54.98 55.12 54.96 55.06 54.69 54.38 53.88 50.67 53.20 53.22 52.86 46.25 53.52 54.09 52.63 53.20 50.72 48.52 49.74 52.72 48.61 48.28 43.51 45.63 42.78 39.07 43.83 46.00 46.15 44.54 43.51 41.41 39.92 42.49 45.23 42.01
55.73 55.29 55.05 54.83 55.94 55.85 55.28 54.98 54.80 54.25 54.42 54.35 54.33 54.65 54.59 54.33 53.98 51.62 50.29 53.34 58.39 57.32 46.06 48.89 51.50 50.37 51.24 52.42 47.98 47.60 50.62 49.13 46.06 43.74 43.33 40.58 43.26 47.04 46.36 43.94 43.24 42.08 40.54 39.67 40.28 41.92 41.91
54.92 54.37 53.80 54.56 55.29 55.28 54.55 54.29 54.17 54.21 54.09 54.03 53.96 54.02 53.58 53.64 51.03 53.33 52.02 56.24 56.98 55.40 37.70 43.16 47.33 49.32 51.82 51.66 47.49 50.47 51.04 49.12 47.32 43.43 44.06 43.10 46.93 46.36 44.44 43.23 42.86 39.67 44.52 43.53 41.61 38.09 33.39
54.41 53.94 52.95 54.17 54.33 54.09 53.58 53.64 53.62 53.71 53.83 53.97 53.72 54.00 53.11 53.40 51.41 54.64 57.06 60.26 58.71 53.88 25.08 44.79 47.62 53.55 50.73 48.86 48.96 48.48 51.76 50.65 45.26 44.13 44.82 42.21 43.79 43.79 42.73 43.09 44.63 42.61 45.19 42.77 41.71 37.53 35.98
54.18 53.38 53.10 54.06 53.86 53.56 53.33 53.10 52.84 53.15 53.50 53.62 53.74 54.02 53.02 52.44 51.99 55.62 60.44 58.53 51.58 38.09 28.41 43.69 47.85 46.86 45.59 47.86 47.95 48.30 48.93 51.56 50.16 46.01 45.05 43.96 46.58 44.62 43.57 46.13 45.67 45.90 43.96 42.96 41.22 38.11 29.77
53.51 52.70 53.51 53.57 53.57 53.35 53.21 52.73 52.35 52.66 53.33 53.66 53.99 54.39 52.85 58.69 55.85 59.78 59.15 49.44 37.51 29.68 46.09 41.66 43.55 46.89 45.50 44.60 46.50 47.08 45.10 43.28 40.94 37.91 38.48 43.27 43.51 45.55 46.82 43.58 45.57 43.39 39.40 29.94 29.33 27.10 27.63
53.18 52.89 53.35 53.41 53.33 53.06 52.67 52.05 52.13 52.31 52.96 53.67 54.35 53.28 53.86 58.45 62.19 59.73 53.24 44.20 31.09 42.29 42.21 45.71 45.45 45.67 43.19 45.60 44.74 45.64 43.56 40.05 43.61 43.35 39.50 37.01 34.22 42.30 45.81 42.79 40.02 41.09 39.19 29.96 26.66 23.96 29.56
52.83 53.24 53.00 53.06 53.06 52.73 52.03 51.76 51.81 52.10 52.71 53.76 54.35 54.37 58.64 59.23 61.48 56.29 48.68 34.63 38.00 42.38 45.19 44.51 45.07 42.14 41.96 44.87 44.74 43.37 40.65 39.98 42.10 42.39 38.79 37.36 37.69 44.24 44.28 44.64 44.39 41.57 34.42 40.36 32.59 29.40 27.40
53.12 53.25 52.61 52.69 52.46 52.05 49.88 51.33 51.59 52.29 52.87 54.10 53.99 53.42 52.71 59.28 58.53 52.49 44.22 39.96 45.19 47.36 47.36 45.79 40.42 43.33 39.24 41.87 42.08 41.86 41.27 44.16 43.79 44.65 44.33 41.49 35.60 42.41 44.17 46.59 45.67 41.02 42.91 34.75 31.43 24.78 22.89
53.04 52.84 52.23 52.46 51.91 50.83 50.68 51.07 51.37 51.72 52.62 53.06 53.90 45.83 51.40 60.16 52.52 46.12 37.98 41.90 47.03 48.66 49.81 45.28 43.71 42.15 43.31 41.26 42.59 41.31 41.56 44.02 45.84 45.52 44.23 42.89 38.74 38.24 43.52 40.29 38.72 40.12 38.34 38.12 36.44 30.08 24.47
52.17 52.23 51.83 52.06 51.61 51.14 50.99 50.98 51.26 51.32 52.07 52.96 50.90 42.75 55.68 51.16 39.73 42.09 41.49 47.93 46.96 47.10 49.61 48.40 47.71 46.53 43.60 44.11 43.14 41.97 41.68 43.68 47.22 46.29 40.35 42.25 36.86 28.77 37.61 42.97 44.22 41.57 39.75 37.98 27.47 30.71 27.37
52.01 51.53 51.65 51.86 49.72 50.14 50.83 50.71 50.95 50.86 51.81 52.47 47.99 49.11 56.10 49.51 32.56 31.72 46.43 47.90 47.90 46.55 46.55 46.88 46.11 47.31 47.12 43.59 39.70 43.51 43.53 46.77 46.08 44.32 41.55 41.63 34.49 27.86 34.33 39.78 41.97 39.73 40.88 41.58 36.47 29.64 28.51
51.61 51.25 51.60 51.13 48.62 48.49 50.67 50.69 50.76 50.85 50.88 53.43 49.59 40.38 46.29 48.64 45.74 44.61 43.99 44.33 44.87 48.72 47.96 48.34 46.96 47.98 45.32 43.41 44.94 41.89 42.83 46.31 45.55 44.03 44.79 44.57 39.04 32.68 29.18 33.51 36.37 33.24 37.54 39.81 36.48 26.74 28.93
51.17 50.99 50.89 48.57 48.33 48.47 50.19 50.55 50.58 50.77 50.59 52.28 50.83 42.78 44.10 34.73 39.20 45.36 46.48 45.83 44.39 43.42 47.69 47.99 45.36 46.08 43.77 38.67 41.48 40.77 43.53 43.80 45.21 44.77 44.32 41.71 33.61 35.60 36.41 38.10 37.94 36.70 36.14 36.13 35.43 35.16 30.11
50.99 50.61 50.65 48.42 48.49 49.73 50.62 50.21 50.44 50.61 50.87 51.42 49.31 46.12 45.64 40.24 44.69 44.72 43.28 44.69 44.71 45.68 45.91 44.65 43.35 45.95 44.99 39.60 41.96 40.13 42.58 41.71 41.13 43.31 42.80 41.29 31.71 30.32 30.55 38.50 37.81 33.64 36.25 36.42 36.44 37.32 36.18
51.07 50.45 50.66 49.20 49.75 51.18 50.71 50.14 50.23 50.72 51.65 52.44 53.94 51.53 47.76 42.23 41.16 41.08 40.40 45.09 45.96 47.00 45.89 47.91 46.11 43.13 40.63 44.16 44.58 44.50 45.15 45.68 44.94 42.45 37.67 35.08 29.80 27.62 27.16 32.79 31.74 26.56 33.65 37.59 37.70 38.81 37.39
50.56 50.59 50.99 51.20 51.06 51.20 50.63 49.76 49.70 50.49 52.71 57.49 55.23 51.61 44.25 36.47 39.88 42.15 47.52 47.24 45.89 46.04 44.67 47.24 46.65 42.81 46.89 48.77 44.22 42.57 41.25 43.77 44.82 42.27 40.67 33.19 32.22 26.78 22.19 23.93 17.51 36.29 41.18 40.83 39.41 40.30 40.06
50.15 50.62 51.39 51.25 50.92 50.58 50.21 49.80 49.60 50.00 50.99 54.90 53.68 52.68 44.60 33.64 41.62 45.23 46.39 46.32 46.53 46.64 45.00 46.47 47.50 47.64 47.86 43.16 33.14 32.12 30.23 32.60 34.14 42.02 42.39 38.28 27.89 25.94 20.73 22.37 27.92 35.02 39.28 38.02 35.35 36.51 41.38
50.10 50.90 51.09 50.69 50.30 49.87 49.83 49.91 49.76 50.02 50.89 53.68 53.32 54.40 47.38 41.62 41.35 49.58 45.36 46.01 39.67 39.56 40.67 44.34 49.75 50.40 44.87 32.24 30.02 26.66 24.21 29.39 30.28 37.00 39.70 38.05 30.39 27.19 26.29 17.10 15.68 30.66 40.84 43.35 41.43 29.85 41.73
50.18 50.71 50.73 50.50 50.12 49.71 50.03 49.94 50.04 50.10 50.67 54.84 53.04 55.12 52.00 44.11 47.26 48.16 44.12 44.27 46.09 41.90 39.01 42.71 42.86 43.06 42.63 27.18 28.10 29.80 29.09 36.18 30.22 28.46 26.75 26.29 23.89 23.09 23.16 16.10 25.91 35.78 41.14 42.87 29.13 30.61 41.73
50.05 50.20 50.30 50.63 50.03 49.40 49.42 49.55 49.70 49.80 50.07 54.96 53.36 54.88 52.40 45.92 47.86 51.55 50.99 47.21 46.67 44.09 38.68 43.71 41.16 39.53 34.68 28.73 25.48 31.24 29.57 31.06 30.09 34.16 31.72 28.99 25.68 23.29 22.98 18.75 22.35 40.20 41.40 33.60 37.07 39.99 41.86
50.01 49.90 49.95 50.60 50.37 49.48 49.32 49.41 49.51 49.78 49.96 52.86 53.03 55.89 55.69 50.10 49.60 52.20 52.39 52.22 51.19 49.31 46.59 44.10 41.37 42.17 39.32 34.68 34.82 36.97 31.52 33.02 26.29 27.11 38.17 30.91 32.48 29.89 32.36 31.44 38.27 41.16 41.10 42.46 43.55 41.59 41.68

GFSGBSN_sfc_wetblb_012.txt.gz
Wetbulb
60.09 59.62 58.81 58.44 58.31 58.00 57.41 57.47 57.48 56.00 55.95 55.97 55.18 54.92 54.88 54.82 55.20 55.07 55.43 55.23 54.58 54.47 54.38 53.58 53.49 53.21 50.55 48.92 48.77 56.41 63.37 62.81 57.73 52.24 50.18 49.02 46.48 46.21 44.45 44.44 43.79 41.94 42.25 42.38 42.92 43.23 42.27
59.50 58.83 58.18 58.04 57.86 57.58 57.00 57.30 57.23 55.67 55.66 55.14 54.97 54.41 54.64 54.33 54.65 54.76 54.54 54.91 54.19 53.79 53.41 52.80 52.52 52.79 47.71 43.14 52.17 57.23 58.40 55.28 53.70 51.85 50.30 49.63 48.90 49.08 46.39 43.37 42.80 43.89 40.41 41.49 42.60 40.81 39.92
59.52 58.83 58.14 57.60 57.14 57.00 57.08 56.75 56.68 55.79 54.97 54.84 54.57 54.21 53.97 54.21 54.62 54.18 55.17 54.63 53.70 53.31 52.75 52.23 52.21 51.51 50.12 48.10 53.38 54.44 56.38 53.76 53.84 53.00 50.24 51.28 50.88 47.87 46.13 43.65 44.97 41.85 39.15 39.71 40.45 40.02 40.21
59.06 58.85 58.05 57.12 56.59 56.30 56.28 56.30 56.09 55.52 55.22 54.79 54.93 53.78 53.70 54.02 53.85 53.89 54.22 53.67 53.12 53.02 52.48 52.21 52.40 50.90 47.32 54.61 54.97 54.96 50.94 49.27 54.17 53.57 51.78 52.61 52.63 49.54 47.16 45.52 42.42 39.82 38.05 35.07 38.91 40.87 41.09
58.68 58.66 58.04 57.26 56.38 56.20 56.07 55.85 55.59 55.24 54.69 54.46 54.33 53.57 53.41 53.90 54.25 53.82 53.31 52.73 52.77 52.16 52.04 52.14 49.81 49.18 45.99 55.17 52.09 52.15 50.86 49.34 50.90 52.04 52.47 52.74 51.06 45.33 43.94 39.78 36.48 37.19 32.11 34.54 37.48 41.01 40.70
58.80 58.36 57.77 57.12 56.75 56.38 56.32 55.87 55.55 54.62 54.13 53.94 54.12 53.92 54.62 54.61 54.52 53.20 52.33 52.48 51.88 52.20 51.80 52.76 52.31 45.94 49.38 47.29 51.86 50.10 50.73 51.21 50.39 49.91 49.69 47.95 44.90 41.61 40.06 37.56 32.01 32.83 33.58 32.62 34.67 38.39 39.76
58.55 58.02 57.37 57.14 56.63 56.65 56.57 56.15 55.66 54.43 53.96 54.02 55.16 55.19 55.02 54.64 54.35 52.82 51.05 49.55 45.41 44.82 48.81 43.80 45.10 45.89 49.12 51.65 50.94 47.33 49.58 50.14 49.17 47.79 42.80 44.29 40.66 36.56 37.55 39.22 38.87 38.55 36.33 34.44 34.46 39.19 39.98
57.61 57.37 57.24 56.98 56.73 56.65 56.48 56.06 55.71 54.27 54.58 55.11 54.86 54.68 54.80 54.70 54.15 52.75 50.75 48.04 49.48 51.59 46.23 50.65 50.60 50.25 52.21 51.42 45.68 46.56 50.08 45.99 45.21 41.72 43.08 41.21 37.65 40.95 43.35 42.66 41.22 39.79 36.84 35.40 37.89 41.30 40.80
56.75 56.63 56.63 56.71 56.67 56.47 56.25 55.95 55.97 55.02 54.72 54.09 54.24 54.41 54.60 54.20 53.87 52.49 48.64 49.15 55.09 52.89 45.26 46.93 50.25 49.53 49.67 50.55 45.18 44.86 48.17 46.31 43.00 41.14 40.68 38.42 39.93 44.07 42.68 41.13 40.90 38.98 37.32 35.90 36.69 41.04 40.53
56.34 55.57 55.91 56.18 56.18 56.06 55.38 55.67 55.83 55.21 54.09 53.73 53.77 53.85 53.62 53.34 50.09 49.13 47.69 52.13 55.55 51.30 36.22 41.12 44.02 46.66 48.70 48.07 44.52 47.82 48.30 46.70 44.05 40.06 41.28 41.17 43.89 42.58 40.94 40.42 39.98 36.19 41.02 39.41 38.39 36.41 32.94
55.85 55.16 55.14 55.37 55.35 54.51 54.17 54.82 54.96 54.46 53.83 53.79 53.43 53.57 53.12 52.31 48.64 52.20 54.31 58.31 55.20 48.89 23.71 41.20 44.28 50.29 47.08 46.25 45.17 45.17 49.73 47.36 41.59 41.63 41.50 39.28 40.39 40.83 40.09 39.43 41.84 39.42 42.44 39.81 37.75 34.76 33.30
55.35 54.96 54.88 54.68 54.39 53.63 53.58 53.95 53.73 53.50 53.29 53.49 53.38 53.61 52.80 51.11 48.89 52.08 55.78 50.99 48.17 36.03 26.21 39.81 44.35 42.86 43.44 44.88 44.30 45.79 47.35 49.11 46.17 43.21 42.81 40.77 43.06 42.03 40.40 42.87 42.14 42.87 41.10 39.34 37.33 34.78 27.64
54.94 54.55 54.31 53.94 53.58 53.04 53.56 53.63 53.24 52.92 52.99 53.31 53.26 53.43 52.16 54.09 53.32 57.52 52.96 45.88 34.65 28.76 41.79 38.23 39.95 42.37 42.02 41.66 43.20 43.14 41.88 40.50 38.72 36.04 35.74 40.16 40.28 42.05 43.05 40.34 41.95 40.97 36.38 28.32 27.74 25.13 26.10
54.60 54.00 53.92 53.60 53.18 52.94 53.26 53.41 52.82 52.27 52.62 53.05 53.13 52.59 52.15 53.31 54.76 54.77 47.31 40.00 29.90 38.62 38.90 41.71 41.74 41.51 40.19 41.99 41.33 41.37 39.53 37.68 40.77 39.38 36.04 34.41 31.56 39.12 42.42 39.66 37.65 37.07 36.63 29.18 24.70 22.79 27.94
54.66 53.86 53.45 53.10 52.81 52.94 53.24 52.98 52.51 52.02 52.25 52.97 52.58 50.86 52.08 56.79 54.25 51.33 43.26 29.17 33.74 38.19 41.53 41.20 41.63 38.86 38.22 41.18 41.15 40.10 37.41 37.11 38.77 39.39 36.90 34.24 34.60 40.77 41.21 41.68 41.54 37.37 32.25 37.10 30.43 27.66 26.45
54.41 53.65 53.06 52.53 52.24 52.71 52.80 52.64 51.85 52.07 52.33 52.83 51.45 51.61 51.52 55.76 52.98 48.65 39.34 36.22 42.00 45.45 43.63 42.40 37.22 39.50 36.12 38.54 38.66 38.17 37.68 40.55 40.21 41.75 41.39 39.34 33.02 38.92 41.01 42.74 42.30 38.43 40.44 31.76 29.32 22.86 21.35
53.82 53.16 52.73 52.06 52.05 52.31 52.35 52.00 51.77 51.91 52.53 52.98 47.70 44.18 47.72 53.27 47.55 42.42 33.05 37.65 44.64 48.11 46.11 42.00 40.21 38.95 39.16 38.43 39.00 37.67 37.94 41.03 42.60 42.80 42.69 39.09 35.94 35.31 39.31 37.56 35.57 37.63 35.14 33.78 32.90 27.75 21.94
52.92 52.47 51.89 51.80 52.12 52.17 51.29 50.57 51.59 51.87 52.38 52.06 43.82 38.61 50.25 47.02 39.31 37.74 37.69 44.02 46.38 44.02 45.97 45.28 44.03 42.04 39.97 40.59 39.34 38.62 38.72 40.23 42.69 43.06 38.31 39.26 35.03 28.53 34.32 39.71 41.04 38.16 35.76 33.77 25.25 26.52 25.03
52.12 51.75 51.59 51.72 51.78 51.53 50.19 51.29 51.51 51.79 53.09 50.35 44.09 48.07 53.22 46.63 31.78 29.46 39.49 44.40 45.80 43.18 43.64 43.52 42.72 43.71 43.83 40.61 37.46 39.87 40.38 43.08 41.84 40.89 39.12 39.20 32.79 28.08 32.24 36.13 38.07 35.70 37.73 35.21 32.09 29.06 27.77
51.46 51.32 51.51 51.87 51.71 50.85 51.06 50.96 51.15 51.42 52.76 50.24 46.31 41.34 45.01 43.30 39.83 38.48 38.94 40.45 41.70 45.11 44.32 44.78 43.84 44.49 42.06 40.31 41.65 39.12 39.61 42.64 42.21 41.78 44.27 42.14 34.99 31.35 27.86 30.76 33.25 32.09 35.61 35.13 33.23 24.84 26.73
51.10 51.03 51.06 51.19 50.17 49.63 50.68 50.96 51.10 51.08 51.76 51.24 43.83 41.12 43.98 35.69 38.32 39.17 40.85 41.94 40.73 40.57 44.37 44.63 42.48 42.65 41.19 36.96 37.74 37.36 40.36 39.99 42.01 43.38 41.82 37.94 31.92 32.75 33.16 34.42 34.31 33.09 33.29 34.87 33.08 32.09 29.25
50.83 50.59 50.47 49.80 49.15 48.60 48.81 50.79 50.72 50.79 51.18 49.09 46.44 41.22 39.50 38.51 43.22 43.09 39.91 41.86 41.76 41.95 42.56 41.07 41.22 42.12 41.40 37.70 39.53 38.12 39.62 37.70 36.65 41.49 38.33 36.12 29.22 29.35 30.56 34.19 33.39 31.59 33.67 33.47 33.30 33.51 33.27
50.57 49.89 49.14 48.90 48.38 48.62 50.41 50.40 50.42 50.60 51.21 47.30 48.14 47.48 43.05 36.95 38.11 39.68 38.53 43.21 43.59 43.87 43.40 44.15 43.41 40.75 38.01 41.08 42.28 41.72 41.46 40.79 40.87 39.58 34.02 30.39 28.32 25.83 23.06 28.79 27.53 24.44 31.13 32.92 32.92 33.99 34.08
50.00 48.29 48.13 48.09 48.96 50.88 50.42 49.96 50.17 50.46 51.09 50.34 50.10 48.04 40.73 31.68 33.80 38.75 42.94 44.27 43.34 42.89 42.21 43.31 43.56 40.46 42.58 44.62 42.70 41.35 39.82 41.12 41.75 39.83 37.48 29.02 26.76 23.07 20.96 21.86 16.74 31.72 35.71 35.78 35.36 36.20 37.23
49.73 48.44 48.62 50.39 50.66 50.28 49.82 49.73 49.85 50.24 50.67 52.50 51.37 48.09 42.09 30.18 36.01 40.35 43.13 43.25 43.64 43.92 42.59 43.32 44.93 43.99 44.30 39.02 33.91 33.53 30.35 32.04 32.52 38.36 35.16 33.56 26.64 23.69 20.25 19.70 26.69 31.98 35.91 35.75 34.57 33.95 38.57
49.92 50.34 50.63 50.22 49.81 49.62 49.53 49.46 49.57 50.24 51.17 52.42 52.19 48.84 46.00 39.22 38.12 44.68 43.00 42.62 36.55 37.14 36.92 40.81 46.43 44.64 40.31 29.97 28.80 25.71 26.24 29.96 29.12 33.75 36.97 32.91 27.99 24.95 18.60 16.22 15.92 29.92 35.21 39.32 38.15 29.51 38.87
49.85 50.06 50.00 49.77 49.52 49.38 49.23 49.25 49.48 50.34 51.72 53.72 51.57 51.17 47.74 42.67 45.25 45.28 41.54 41.75 42.21 39.15 36.64 40.59 41.52 39.88 38.74 25.76 22.38 23.74 25.83 31.73 28.30 27.26 25.26 26.63 24.76 18.93 19.10 14.24 24.35 32.55 38.38 40.01 29.39 31.04 38.87
49.44 49.26 49.47 49.21 49.00 48.90 49.13 49.04 49.18 50.92 51.75 54.76 52.55 52.17 48.49 44.85 46.00 48.62 47.78 43.88 43.55 41.80 37.52 41.58 39.70 38.01 31.28 28.38 25.15 25.62 22.54 29.44 28.63 31.63 30.77 29.45 25.39 20.64 21.42 15.38 21.37 36.58 38.35 33.45 37.13 36.05 39.48
48.96 48.97 49.67 49.07 48.51 46.80 47.19 47.73 49.02 50.39 51.61 54.51 53.10 53.99 51.77 48.17 46.94 49.76 50.14 49.22 48.41 46.66 43.67 40.87 41.50 39.95 37.99 31.27 24.84 29.55 29.95 30.65 25.26 25.87 34.47 29.06 30.63 27.12 28.36 28.51 35.54 37.83 37.80 39.62 39.68 38.95 39.69

GFSGBSN_sfc_wetblb_015.txt.gz
Wetbulb
60.67 60.38 59.83 59.45 58.77 58.45 58.25 57.93 57.41 57.12 56.16 55.58 55.80 55.23 55.37 55.05 55.03 54.94 54.50 55.15 54.87 54.68 54.18 53.56 53.43 53.01 51.30 49.34 50.26 58.70 62.74 62.31 59.14 53.14 52.05 50.67 48.94 48.75 46.98 47.70 46.94 44.95 46.02 44.88 45.12 48.34 49.12
60.21 59.84 59.49 59.04 58.09 58.15 58.39 57.83 57.10 56.86 56.66 55.19 55.34 54.76 54.92 54.46 54.67 54.56 54.75 54.23 54.73 54.30 53.94 52.96 52.38 52.51 48.39 44.75 54.41 60.33 59.43 57.31 55.16 52.81 51.58 51.40 50.00 50.48 48.68 46.89 46.68 47.35 44.52 44.25 44.53 44.67 44.47
60.41 59.85 59.18 58.21 57.56 57.58 57.90 57.07 56.76 56.74 56.35 55.21 54.99 54.59 54.58 54.20 54.20 54.00 54.20 54.09 54.09 53.80 52.71 52.19 51.81 51.45 49.62 49.47 54.78 59.12 57.01 55.87 54.76 54.03 51.22 52.29 52.88 51.10 50.13 46.56 46.92 44.37 43.19 43.65 44.39 44.84 44.23
60.12 59.66 59.19 57.92 57.15 56.87 56.56 56.30 56.25 56.44 56.25 55.41 54.86 54.71 53.97 53.43 53.84 53.48 53.73 53.85 53.61 53.26 52.15 51.58 52.25 50.63 48.22 55.68 56.78 54.96 54.40 53.47 55.42 55.04 53.84 54.58 53.78 51.25 49.88 48.22 45.51 43.07 43.20 40.58 43.85 45.62 44.92
59.83 59.54 58.91 57.97 57.03 56.60 56.05 55.99 55.87 56.05 56.03 55.11 54.52 54.23 53.90 53.29 53.20 53.47 53.49 53.18 53.10 52.06 51.64 52.10 49.99 49.55 48.19 55.77 52.90 54.30 53.15 52.07 53.27 53.76 54.44 54.19 53.96 49.98 46.49 43.76 41.82 42.18 39.37 39.81 42.28 45.33 45.07
59.95 59.18 58.58 57.93 57.27 56.70 56.40 56.01 55.73 55.47 55.20 54.54 53.90 53.82 53.43 53.61 54.13 53.37 52.31 52.31 51.89 51.97 51.47 52.42 52.02 47.75 50.44 49.31 53.64 51.67 53.18 53.68 53.24 51.30 50.42 50.22 47.50 45.38 43.77 42.42 37.45 39.07 39.19 40.11 41.21 43.40 45.69
59.22 59.07 58.60 57.95 57.33 56.97 56.93 56.66 55.97 55.16 54.72 54.37 53.92 53.86 54.80 54.66 54.38 52.59 51.14 49.82 47.44 46.84 49.09 47.00 47.56 46.59 49.15 53.22 52.01 50.85 52.57 53.14 52.89 50.61 46.20 47.01 44.45 42.14 43.66 43.00 41.57 41.38 40.53 39.93 41.00 43.68 44.86
56.21 58.74 58.31 57.91 57.38 57.24 57.08 56.69 55.83 55.08 54.56 53.98 54.35 54.74 54.56 54.78 54.26 52.34 50.97 48.06 49.49 53.89 48.88 50.68 50.39 50.45 52.21 53.03 48.78 49.29 54.17 50.08 50.55 45.15 46.23 45.66 42.10 44.83 45.92 45.39 43.64 42.79 40.88 39.58 42.48 44.59 44.94
54.51 56.62 57.72 57.67 57.30 57.09 56.97 56.49 55.57 55.06 55.16 54.78 54.52 54.34 54.50 54.39 53.42 51.02 49.26 50.07 54.48 55.93 48.86 48.46 50.86 50.20 50.97 52.02 48.03 47.72 52.24 50.45 46.38 44.60 43.76 43.28 44.09 46.28 45.17 43.92 43.49 42.22 41.54 40.17 41.15 44.06 45.02
54.23 54.63 56.92 56.97 56.79 56.64 56.22 56.10 55.41 55.24 55.04 54.30 53.67 53.75 53.51 53.41 49.99 50.39 48.99 53.62 53.76 54.77 39.79 42.74 45.92 48.80 49.93 49.84 47.40 50.30 51.69 50.11 46.82 43.00 44.57 44.89 46.12 44.55 43.83 42.98 43.64 41.02 44.21 42.82 42.12 41.56 38.88
53.98 53.30 56.01 56.20 56.04 55.57 55.12 54.98 54.84 55.38 55.08 53.95 53.37 53.55 53.31 53.08 50.24 50.23 54.57 59.33 54.62 51.39 29.73 43.36 46.11 51.87 49.41 47.35 47.44 48.41 51.83 49.87 44.75 44.26 45.27 43.26 44.47 43.72 43.08 43.13 45.42 42.60 44.60 43.62 41.25 40.02 39.87
53.63 52.97 55.30 55.59 55.22 54.66 54.29 53.76 53.86 54.25 54.09 53.49 53.33 53.51 53.24 51.56 50.44 52.62 56.19 54.66 51.16 39.23 29.95 41.82 46.68 45.58 46.08 46.71 46.86 48.26 49.81 50.73 48.74 45.58 45.58 44.04 46.94 45.84 44.93 45.22 45.08 45.62 44.27 42.97 41.59 40.26 35.66
53.10 52.66 53.87 55.02 54.72 54.45 54.05 53.39 53.25 53.49 53.45 53.08 53.19 53.68 52.80 53.02 51.96 58.86 55.23 48.82 38.41 33.23 43.38 40.50 42.36 45.02 44.39 44.15 44.85 45.32 44.11 43.66 43.16 40.85 40.03 43.12 43.22 45.27 46.43 44.59 45.52 44.77 42.09 35.95 34.94 35.22 33.41
52.31 52.40 52.62 54.70 54.15 53.78 53.47 53.13 52.83 52.86 52.86 52.77 52.87 52.53 52.18 52.80 54.73 53.49 49.40 42.84 33.61 39.26 40.25 43.71 43.22 43.72 42.24 44.45 43.54 43.03 42.38 41.16 43.83 42.68 39.83 38.08 36.62 42.97 45.21 44.41 42.96 41.70 42.09 36.70 28.99 30.67 34.44
51.77 52.55 52.40 54.31 53.86 53.44 52.94 52.66 52.84 52.74 52.22 52.58 52.37 51.06 50.78 54.86 54.77 52.81 45.45 33.91 35.21 38.80 43.22 42.20 43.27 41.25 41.99 43.76 42.95 42.62 40.78 40.69 42.23 43.24 40.69 38.86 38.36 44.33 44.36 45.55 45.71 41.14 38.54 41.35 34.49 31.53 32.36
51.44 52.61 52.23 53.93 53.23 52.82 52.51 52.54 52.70 52.40 52.23 52.49 50.40 49.25 51.53 57.41 55.01 49.38 41.34 36.39 41.63 45.37 45.61 43.84 39.22 42.16 39.44 41.51 41.43 41.18 41.37 43.59 43.19 44.96 45.21 42.39 37.33 42.30 44.14 45.87 44.92 43.40 42.80 37.31 36.22 29.04 26.88
50.66 52.15 52.35 53.67 52.86 52.14 52.12 52.44 52.48 52.18 52.12 52.73 50.22 47.87 50.82 53.49 49.84 45.09 37.42 38.09 45.40 48.59 47.04 43.80 41.94 41.09 41.51 40.96 41.51 40.64 40.52 43.78 45.28 44.88 45.85 42.46 41.35 39.94 42.77 41.41 41.03 41.41 39.27 37.01 37.31 33.77 29.79
50.09 51.40 51.84 53.09 52.27 51.96 51.98 52.31 52.05 51.87 52.02 51.79 45.88 41.00 51.81 48.93 41.74 39.71 39.54 43.45 46.19 46.85 47.59 47.23 45.46 44.05 42.31 42.89 41.59 41.05 40.90 43.27 44.86 46.16 42.96 42.65 39.79 36.73 38.80 43.02 44.57 43.04 40.42 39.06 34.38 30.88 30.46
50.04 50.77 50.31 52.57 51.83 51.56 51.78 51.66 50.82 51.66 52.67 50.13 43.49 48.99 54.23 48.35 36.00 35.29 41.36 45.53 47.37 45.11 45.62 46.10 45.40 45.80 46.10 42.70 39.89 42.17 42.78 45.08 44.67 44.64 42.67 42.82 38.44 34.31 37.17 40.13 42.45 41.19 40.52 37.78 35.97 34.66 31.43
49.67 50.09 49.76 52.16 51.59 51.49 51.21 50.11 51.23 51.58 52.81 50.42 47.83 43.81 47.52 43.71 41.41 40.52 40.92 42.37 43.62 46.37 46.24 46.32 45.08 46.13 44.35 43.01 43.25 41.10 41.97 44.66 45.44 44.44 43.85 43.87 37.53 36.84 34.16 35.84 38.26 37.20 38.90 38.10 38.11 34.03 32.57
49.41 49.78 50.19 51.44 51.30 51.32 50.63 51.02 51.11 51.43 52.17 50.29 45.51 43.43 46.90 38.75 38.44 40.22 42.19 43.08 42.81 42.49 46.54 46.53 44.97 44.70 43.27 39.88 40.97 40.02 42.64 42.51 44.13 44.44 43.32 42.00 36.90 36.77 36.29 36.75 37.50 37.25 37.52 37.47 36.83 36.98 35.75
49.60 50.47 50.96 50.79 50.83 50.72 50.99 50.75 50.79 50.99 51.61 48.85 43.66 42.42 41.28 40.92 42.82 41.18 39.92 42.98 42.86 43.95 44.70 43.88 43.67 44.61 45.03 40.65 42.27 40.02 41.92 40.88 40.48 43.32 40.66 38.88 34.59 34.23 34.66 35.91 35.42 35.41 36.94 37.25 37.58 37.30 36.88
49.44 50.25 50.57 50.31 50.04 49.62 49.78 50.48 50.56 50.90 52.09 48.66 49.19 47.01 44.57 36.95 40.99 39.60 39.42 42.17 43.88 45.57 45.12 45.51 45.28 43.28 41.61 44.25 44.45 43.07 42.97 42.33 43.13 41.99 37.23 35.46 33.04 32.06 29.45 31.42 31.68 30.64 34.81 36.79 36.91 37.93 39.71
50.45 50.52 50.03 49.91 49.10 49.18 48.88 50.17 50.17 50.92 51.33 50.74 50.44 46.79 41.48 33.88 37.88 39.26 43.22 45.14 44.41 44.81 43.97 45.08 45.53 43.63 44.67 46.77 44.89 44.43 42.66 42.31 42.16 39.17 38.92 32.58 31.09 28.52 30.49 27.52 26.93 37.03 39.84 38.94 38.05 38.40 39.68
49.91 49.75 49.48 48.91 48.43 49.57 50.00 49.93 49.97 50.68 51.63 53.07 51.80 48.18 42.04 33.23 37.80 40.36 43.51 43.73 44.41 44.85 44.11 44.70 45.47 45.35 46.51 42.51 38.71 36.52 35.23 35.45 35.87 37.86 36.19 35.97 32.45 27.68 30.78 28.03 31.12 36.25 36.37 37.95 37.55 38.78 41.90
48.72 48.36 48.64 48.79 49.82 49.70 49.48 49.66 49.83 50.26 51.32 52.92 52.40 49.70 45.68 38.77 38.04 43.94 43.73 43.98 39.98 40.01 40.89 43.05 46.40 45.88 42.16 35.21 34.40 32.43 32.22 34.50 33.27 36.58 38.25 35.05 32.28 33.80 26.85 28.35 26.02 34.88 37.65 42.84 42.22 35.33 42.19
48.83 49.55 49.99 49.76 49.43 49.16 49.16 49.27 49.60 50.02 50.90 53.31 52.92 51.30 49.47 43.06 46.56 46.11 43.61 43.09 43.58 42.00 40.39 42.11 42.92 43.01 41.95 33.30 32.04 32.60 33.07 34.25 32.09 30.26 30.07 32.44 30.06 29.69 23.10 29.90 31.01 36.65 40.49 42.67 34.30 36.98 40.83
49.31 49.33 49.41 49.27 49.06 49.04 49.17 49.15 49.44 49.86 50.99 53.63 52.32 53.45 50.44 46.19 48.00 50.17 48.10 44.42 44.13 44.48 40.99 43.31 42.67 41.63 36.38 34.55 34.39 32.65 33.46 33.99 33.33 34.71 33.31 32.98 30.93 29.29 24.84 26.00 28.26 38.58 41.41 38.05 42.55 42.36 42.35
48.74 48.62 48.66 48.42 47.17 47.12 48.40 48.98 49.72 50.08 50.85 52.81 52.76 53.71 52.67 49.10 48.49 51.03 51.56 51.50 51.20 48.37 45.27 43.39 44.87 42.02 41.53 36.15 32.90 32.44 32.65 32.31 30.35 33.38 36.39 33.35 35.72 34.50 33.10 34.36 39.90 40.67 42.78 43.59 43.03 42.72 43.61

GFSGBSN_sfc_wetblb_018.txt.gz
Wetbulb
61.49 61.18 60.52 59.98 59.68 59.27 59.15 58.88 58.21 57.51 57.18 56.80 55.98 55.96 55.96 55.66 55.53 55.39 54.99 54.86 55.15 55.37 55.00 54.01 53.67 53.18 54.46 52.90 52.35 62.68 62.24 61.60 59.32 56.21 54.92 53.52 51.80 50.73 47.76 50.03 50.76 49.03 49.52 49.71 49.91 52.75 55.75
61.16 60.67 60.18 59.88 59.56 59.09 59.09 58.66 57.97 57.23 56.96 56.66 55.87 55.46 55.15 55.24 55.04 54.53 54.99 54.74 54.52 54.79 54.08 53.53 53.09 52.96 52.90 48.60 57.26 62.72 61.46 58.77 56.92 56.23 55.51 55.13 52.50 53.10 51.21 50.50 50.06 50.45 48.98 47.95 47.95 52.96 52.94
58.42 60.54 59.97 59.36 58.75 58.65 58.25 57.81 57.46 56.99 56.82 56.48 55.74 55.40 55.31 54.90 54.44 54.46 54.80 54.37 54.37 54.05 53.32 52.75 52.40 52.94 52.23 52.72 57.83 62.54 60.06 58.24 57.73 56.94 55.82 56.65 55.19 52.03 52.17 50.04 50.59 48.93 45.95 47.22 47.32 51.24 50.60
58.09 59.47 60.10 59.01 58.14 57.37 57.05 57.00 56.95 56.81 56.66 56.36 56.08 55.33 54.76 54.39 53.86 53.76 53.96 53.90 53.88 53.35 52.71 52.04 52.61 52.54 51.95 58.23 60.13 59.33 59.61 57.45 58.97 58.22 56.87 57.17 56.90 53.80 51.99 51.02 47.78 46.19 47.00 44.08 47.16 49.66 47.61
57.84 57.99 60.20 59.23 57.99 57.20 56.77 56.58 56.40 56.52 56.40 56.19 55.41 54.92 53.84 53.69 53.16 53.49 53.63 53.53 52.99 52.71 51.90 52.56 53.01 52.38 51.53 58.68 54.29 56.95 58.23 54.48 56.39 56.93 57.03 55.67 55.65 52.13 50.88 48.14 44.35 45.42 42.06 43.20 44.87 49.31 48.08
57.32 57.43 59.30 59.23 57.99 57.32 56.83 56.50 56.14 55.87 55.67 55.53 54.95 54.35 54.02 53.70 53.45 53.64 52.77 52.64 52.27 52.14 52.89 54.20 55.10 51.87 55.50 51.64 56.17 55.79 56.46 56.18 54.50 54.74 52.80 52.49 52.08 49.35 48.31 46.47 40.12 42.16 43.03 43.87 43.51 47.77 47.58
56.40 57.07 57.81 59.05 58.30 57.62 57.57 57.13 56.20 55.53 55.22 55.32 54.72 54.11 54.21 54.56 54.50 52.72 52.19 54.08 51.98 51.19 52.48 51.86 50.58 51.22 51.05 55.47 56.59 53.50 55.06 54.84 54.82 52.57 49.45 50.48 47.29 44.75 46.94 47.21 45.84 45.56 44.61 43.81 45.96 48.97 49.01
54.75 55.60 56.46 58.88 58.38 58.01 57.99 57.52 56.21 55.42 55.20 54.84 54.21 53.98 54.74 54.82 54.38 52.60 53.45 52.56 54.45 57.38 51.88 54.95 53.66 52.96 54.52 54.97 51.20 52.18 56.27 52.22 51.54 48.22 49.92 47.61 45.29 48.03 49.37 47.82 46.68 46.28 44.46 44.94 46.02 48.36 49.32
53.87 54.84 55.59 56.85 58.56 57.84 57.71 57.34 56.23 55.42 55.02 54.76 53.98 54.88 54.58 54.42 53.10 51.81 53.04 54.01 59.69 58.95 53.08 52.09 54.61 52.82 53.22 54.60 50.31 50.43 53.99 52.63 49.23 47.32 47.65 46.67 47.68 48.63 48.56 47.62 46.29 46.13 45.36 45.39 45.07 47.42 49.31
53.12 53.68 54.66 55.15 57.96 57.52 57.13 56.79 56.13 55.45 54.72 54.68 54.44 53.89 53.76 52.90 50.99 54.94 53.01 57.20 58.58 58.60 47.44 46.35 49.07 52.57 52.75 53.45 48.80 53.48 55.06 52.89 49.42 47.15 48.03 47.68 49.07 48.04 48.25 46.51 47.44 44.43 47.13 47.50 46.42 45.70 42.27
52.44 53.14 53.98 54.19 55.94 56.38 55.95 55.77 55.77 55.18 54.84 54.64 53.87 53.63 53.25 52.75 56.03 53.53 58.56 62.40 61.41 57.99 34.77 47.46 48.49 54.61 52.70 49.83 50.53 51.60 55.01 53.30 48.33 48.11 48.68 46.19 47.24 47.22 46.66 46.43 48.13 45.93 48.59 48.54 47.09 46.85 45.41
51.95 52.56 53.63 53.59 54.76 55.61 55.22 54.88 54.76 54.49 54.51 54.42 53.53 53.52 53.16 52.57 55.63 58.35 60.26 62.03 59.59 46.69 34.36 44.56 49.07 48.56 48.90 49.47 49.62 52.33 52.37 54.35 52.86 49.30 49.87 48.27 50.55 49.80 48.63 48.89 49.20 49.59 48.45 47.46 47.23 46.33 39.96
51.22 51.96 52.68 53.32 53.92 55.32 55.02 54.54 54.11 53.78 53.85 53.83 53.27 53.70 53.62 56.84 54.92 62.05 63.87 58.21 45.23 39.14 46.24 43.34 45.21 48.17 47.79 46.90 48.07 49.77 49.08 48.79 47.13 44.23 44.72 47.20 47.21 49.27 50.35 48.03 49.78 49.08 46.67 40.41 38.09 38.73 37.67
50.45 51.23 51.90 52.89 53.24 54.80 54.74 54.13 53.27 53.07 53.24 53.25 52.97 53.14 53.64 57.22 60.65 60.29 57.94 49.45 38.14 42.64 43.76 46.84 46.81 47.90 45.88 47.31 46.94 47.70 47.77 46.37 48.23 47.93 45.71 42.77 40.85 46.29 48.85 48.22 46.46 47.07 46.47 40.68 31.86 34.64 38.72
50.01 50.87 51.29 52.15 52.69 54.52 54.44 53.62 52.82 52.77 52.66 52.59 52.76 52.59 51.59 57.20 57.82 58.01 52.75 43.71 42.17 44.81 47.66 45.76 46.23 44.53 44.86 46.74 46.76 47.47 46.82 46.73 47.16 48.56 43.95 43.20 41.83 47.90 48.13 49.39 49.02 45.23 43.29 46.80 40.56 38.83 38.61
50.15 50.35 50.25 51.36 52.27 53.73 53.85 53.19 52.52 52.64 52.41 52.39 52.82 51.27 54.73 60.63 60.74 55.83 49.76 42.85 45.43 49.44 48.87 47.69 42.59 45.49 43.03 45.24 44.81 45.72 46.24 47.51 46.93 48.56 50.15 47.12 41.51 46.00 47.19 49.31 48.94 47.47 48.20 41.80 43.12 33.21 31.66
49.41 49.46 49.87 50.76 51.89 52.53 53.39 52.70 52.42 52.40 52.43 52.43 54.67 50.64 58.90 62.82 60.23 53.54 46.16 46.16 47.76 52.97 51.74 47.12 45.34 44.52 45.48 45.00 45.97 44.77 45.06 47.12 48.54 48.19 50.20 48.63 45.89 43.78 46.61 45.78 45.32 44.96 44.26 42.99 43.85 41.01 34.78
48.88 49.01 49.39 49.81 51.59 52.23 53.08 52.43 52.15 52.14 52.07 51.89 54.15 47.57 59.04 59.36 50.58 49.98 46.95 47.91 48.64 51.30 51.53 49.67 49.53 48.12 47.03 47.37 46.07 45.79 45.10 47.09 49.79 49.93 46.93 48.03 47.01 42.37 44.04 47.07 48.31 47.38 45.70 44.81 39.20 36.36 39.05
48.19 48.77 49.17 49.71 51.34 51.55 52.61 52.13 51.89 51.75 52.39 52.45 50.32 53.37 57.46 54.24 45.42 46.92 47.55 48.46 50.91 49.39 49.46 49.77 48.44 49.70 49.96 47.97 44.67 46.95 47.28 47.27 47.89 48.74 48.11 48.27 45.19 40.10 41.00 44.49 46.73 45.21 46.06 45.05 43.48 42.48 37.28
47.52 48.20 48.90 49.89 50.68 51.21 52.18 51.81 51.58 51.68 52.59 56.37 52.19 48.98 52.86 51.54 51.33 48.58 46.65 47.01 46.80 50.65 49.87 50.33 49.46 50.70 49.16 47.00 48.29 46.02 46.43 46.54 48.06 48.48 43.91 47.33 45.52 43.58 40.09 41.56 44.95 42.54 44.26 44.85 44.12 38.91 39.01
47.47 48.23 48.98 49.62 49.88 51.05 51.75 51.32 51.63 51.53 52.18 56.00 53.01 50.48 53.19 46.53 46.49 48.58 49.24 47.91 46.46 46.92 50.30 50.94 48.84 49.71 48.95 45.34 45.90 45.49 47.11 45.80 47.58 45.36 47.98 48.21 43.00 42.90 42.11 42.14 42.22 42.61 43.42 43.71 42.23 43.20 39.19
47.52 48.04 48.49 48.88 49.18 51.37 51.05 50.65 51.21 51.24 51.99 55.26 51.25 50.46 51.19 50.04 48.67 47.41 45.45 46.68 46.29 48.16 49.22 48.38 48.88 49.53 49.94 47.09 47.92 46.04 47.62 46.92 46.34 47.74 47.36 45.41 42.57 40.80 39.15 41.08 40.93 40.15 43.16 43.87 44.23 44.34 43.33
47.90 48.18 48.47 48.79 49.06 51.05 50.56 50.56 50.58 51.08 52.60 54.23 56.22 53.66 53.13 43.58 47.23 46.43 45.84 47.42 47.56 51.14 48.81 49.74 51.46 50.10 48.40 48.57 50.22 51.12 50.08 49.70 49.15 47.66 45.33 43.69 40.96 38.87 36.31 37.82 38.46 36.05 40.86 42.93 43.63 45.15 44.53
48.02 48.23 48.55 49.32 49.60 50.98 50.66 50.44 50.31 50.91 52.85 58.29 58.29 55.46 51.66 45.09 46.35 46.14 46.76 48.47 49.80 50.87 49.43 48.95 51.19 50.50 48.87 52.12 52.02 51.08 49.63 48.23 47.40 44.98 45.59 39.82 39.70 38.16 37.43 34.17 32.05 41.37 44.21 43.67 43.73 44.86 46.23
47.64 48.38 48.49 50.87 50.62 50.19 49.96 49.94 50.02 50.80 52.01 59.54 58.78 55.83 52.04 41.70 47.73 46.54 47.36 47.90 49.99 50.28 49.22 49.38 49.18 50.59 52.47 49.79 47.46 43.34 43.86 43.03 42.81 43.17 42.64 43.26 41.17 35.58 37.13 35.43 38.71 40.50 41.02 40.61 40.98 42.02 46.69
48.65 49.36 49.75 49.73 49.31 48.94 48.94 49.72 50.16 50.64 51.88 60.22 59.94 57.89 56.28 48.54 46.28 49.26 48.35 49.99 49.12 49.30 48.45 46.38 49.54 51.20 48.68 48.06 45.31 40.84 38.90 40.79 38.74 40.82 43.13 40.95 40.85 41.72 35.24 35.93 33.86 40.63 42.44 46.56 46.09 39.03 46.03
49.37 49.63 49.25 48.99 48.55 48.73 49.29 49.62 49.80 50.31 51.51 59.02 59.12 58.07 57.31 51.84 51.54 51.95 48.90 48.96 51.99 51.08 49.18 47.34 47.01 47.34 47.60 45.44 43.05 43.16 41.45 41.01 37.99 36.26 35.95 38.67 38.65 37.44 36.29 36.87 38.67 43.17 43.58 46.80 36.62 39.78 47.59
48.61 48.45 48.45 48.72 49.05 49.12 49.14 49.32 49.49 49.90 51.12 57.56 58.43 59.01 58.61 54.01 52.01 53.65 52.70 50.81 50.21 52.48 49.33 48.62 48.08 47.61 46.36 45.02 45.44 43.01 41.98 41.02 39.94 40.93 39.17 39.16 38.06 36.84 34.64 35.07 33.31 43.72 45.16 41.39 46.70 48.90 47.97
48.75 48.93 48.89 48.80 48.62 48.80 48.89 48.98 49.29 49.98 50.98 54.60 57.77 57.50 59.17 56.31 53.60 55.95 55.21 55.13 55.02 55.24 53.19 50.95 51.66 49.57 51.00 47.51 44.62 43.75 38.61 36.17 40.52 39.68 41.98 38.70 42.89 42.42 40.84 42.45 44.76 46.41 48.18 49.56 48.54 48.03 48.82

GFSGBSN_sfc_wetblb_021.txt.gz
Wetbulb
59.16 58.74 61.41 60.88 60.34 59.95 59.87 59.60 58.80 57.96 57.67 57.52 57.18 56.57 56.03 55.89 56.01 55.84 55.52 55.02 55.36 55.54 55.12 54.39 53.99 53.88 54.75 54.74 55.07 62.95 62.22 61.76 58.74 58.26 55.58 53.04 52.17 51.90 48.72 50.02 50.71 49.59 50.51 51.81 54.92 55.42 53.83
57.18 58.39 59.06 60.62 60.17 59.94 59.94 59.53 58.59 57.88 57.47 57.06 56.87 56.51 55.88 55.46 55.44 55.09 55.22 54.88 55.04 55.06 54.23 53.73 53.28 52.86 54.47 50.37 58.68 62.59 59.77 58.44 58.06 57.79 54.91 54.49 52.86 53.10 50.98 50.49 50.52 51.89 51.24 50.38 52.62 53.98 55.76
56.65 57.37 58.11 59.72 59.55 59.48 59.37 58.60 58.09 57.89 57.53 56.98 56.77 56.43 55.63 55.35 55.37 54.57 54.39 54.85 54.59 54.66 53.32 52.94 52.69 54.82 53.90 54.47 59.43 62.74 59.50 57.71 58.30 56.65 54.83 56.41 56.38 53.37 53.43 51.01 53.26 51.03 47.44 48.83 50.54 52.93 53.21
56.36 56.63 58.22 57.90 58.97 58.52 58.41 57.85 57.47 57.62 57.37 56.88 56.88 56.25 54.94 55.05 54.62 53.83 54.06 54.34 53.93 53.31 52.71 52.44 52.58 55.47 52.90 59.81 61.14 60.41 61.38 59.27 59.78 58.84 57.93 58.49 58.13 55.14 53.15 53.71 50.36 47.97 48.43 44.80 48.88 52.34 53.02
55.74 56.33 57.29 57.70 58.55 58.33 57.76 57.37 57.22 57.40 57.23 56.70 56.45 55.79 54.73 54.07 53.81 53.60 54.05 53.89 52.71 52.37 52.21 52.62 55.03 55.05 53.41 58.57 55.62 58.30 59.96 56.52 58.02 58.48 58.06 57.21 56.80 53.52 52.90 48.90 46.16 46.60 42.29 44.76 46.48 51.87 51.67
55.26 55.45 56.05 57.29 57.59 58.47 58.00 57.37 56.62 56.80 56.59 56.25 56.07 55.18 54.52 54.13 53.71 53.63 53.62 52.68 52.76 51.98 53.88 56.52 56.74 53.48 57.40 53.15 56.44 56.78 58.76 57.91 56.38 56.18 54.74 54.44 52.93 50.43 49.75 48.10 40.22 42.65 43.27 45.10 45.38 49.69 50.72
53.80 54.97 55.68 56.76 57.26 58.70 58.74 57.94 56.86 56.04 55.90 55.80 55.80 54.81 54.28 54.22 54.60 53.59 52.32 55.61 53.84 53.66 54.90 53.69 53.92 53.23 53.00 56.29 58.19 56.03 56.49 55.85 56.21 55.16 50.36 51.87 47.21 44.44 47.14 48.58 47.71 46.84 45.52 44.06 46.87 49.24 47.79
53.18 54.08 54.59 55.45 56.51 57.95 59.13 58.30 56.84 55.98 55.92 55.76 55.34 54.36 54.34 55.07 54.79 52.98 54.57 54.67 57.12 59.37 53.78 55.96 54.83 54.32 55.78 55.99 52.10 53.71 56.45 52.78 52.45 48.24 50.44 48.62 45.75 49.05 49.41 48.56 46.48 45.94 44.59 45.20 47.19 49.03 49.25
52.41 53.00 53.73 54.66 55.54 56.36 58.56 58.27 56.87 55.72 55.58 55.33 54.91 54.46 54.95 54.57 53.17 52.61 55.59 56.44 61.90 61.06 54.36 53.68 55.16 53.85 53.93 55.63 51.43 51.93 54.44 53.99 50.70 48.48 48.55 46.22 48.10 50.38 48.72 47.32 45.92 46.20 44.77 45.60 45.67 48.77 50.00
51.91 52.16 53.03 54.17 54.94 55.54 56.81 57.84 56.91 55.92 55.31 54.81 54.62 54.61 54.04 52.83 50.90 57.43 55.28 58.93 60.32 59.72 49.40 48.50 51.35 53.85 54.84 54.76 50.32 54.46 55.25 53.75 50.20 47.68 48.58 46.59 50.81 49.01 47.02 46.16 47.57 44.69 49.07 47.98 46.99 46.47 42.24
51.50 51.49 52.42 53.25 54.12 54.24 54.99 56.60 56.53 55.88 55.27 54.56 54.55 54.22 53.29 52.86 58.79 55.33 60.87 64.15 62.22 61.10 36.89 49.29 50.48 56.76 54.37 50.87 51.50 52.11 56.40 53.52 49.31 48.34 48.42 46.81 48.80 48.45 46.53 47.92 49.87 46.87 50.19 49.32 48.34 46.90 46.05
50.80 51.13 51.66 52.53 53.09 53.66 53.89 55.40 55.58 55.27 54.77 54.36 54.33 53.86 53.27 53.29 56.04 60.39 62.82 64.57 62.19 47.89 36.45 45.69 50.27 49.29 49.86 50.53 49.93 52.96 52.17 54.52 54.26 49.32 50.48 47.19 52.76 51.28 50.46 50.49 50.46 50.94 49.36 48.76 48.85 46.31 40.64
50.32 50.83 51.23 52.03 52.48 53.40 53.75 54.97 54.85 54.63 54.26 54.26 53.98 53.85 53.97 57.36 56.28 63.11 64.87 60.39 47.18 40.10 47.91 44.71 46.04 48.92 48.27 46.97 47.99 49.52 48.66 47.51 46.16 43.76 43.68 48.41 48.81 50.98 51.72 48.48 50.69 49.63 47.12 40.33 38.82 39.08 38.36
48.73 50.24 50.98 51.63 52.11 52.94 53.42 54.67 54.47 53.98 53.79 53.80 53.22 53.19 54.03 58.01 61.02 62.95 62.45 52.62 40.51 44.60 45.36 48.13 47.68 47.83 45.62 47.57 47.42 47.81 47.48 45.77 48.90 48.89 44.47 42.73 41.66 48.54 51.28 50.01 47.14 47.91 46.75 41.20 33.26 35.59 39.33
47.27 49.20 50.11 50.60 51.82 52.41 53.05 54.22 54.03 53.47 53.01 53.24 52.72 54.19 53.81 56.93 59.42 60.65 56.25 45.30 44.01 45.40 48.32 46.38 46.96 44.82 45.61 47.26 47.03 46.91 46.54 46.13 48.50 49.68 44.35 43.61 42.64 49.79 49.90 50.98 49.96 46.95 44.29 48.82 43.19 43.22 39.39
46.22 47.46 49.48 50.08 51.06 51.95 52.50 53.72 53.89 53.09 52.75 52.46 54.37 52.11 54.26 60.09 60.28 58.99 51.81 44.32 47.83 50.07 50.27 48.65 43.54 46.44 44.16 45.86 44.84 45.62 46.59 49.54 48.88 51.18 52.74 47.61 42.47 47.72 49.17 50.96 50.96 48.95 50.22 42.61 43.22 34.01 33.07
46.62 46.26 48.79 49.50 50.25 51.33 52.07 53.11 53.45 52.72 52.57 52.52 54.90 50.40 58.56 61.69 59.76 54.32 46.43 47.59 49.55 52.54 52.10 48.12 46.23 45.36 46.74 45.97 46.40 45.58 46.14 49.43 51.18 50.87 52.40 49.50 46.51 45.93 48.34 46.97 45.83 47.02 45.24 45.62 45.52 44.16 36.71
46.22 46.17 47.43 48.93 49.57 50.69 51.89 52.84 53.11 52.51 52.14 51.75 53.97 47.10 60.39 62.67 49.40 51.74 48.40 50.12 49.38 51.71 54.29 50.96 50.63 48.53 47.21 47.68 46.49 46.15 45.36 47.88 52.58 52.41 47.95 50.00 47.23 43.39 45.39 49.99 50.79 49.87 47.73 47.38 40.92 39.03 41.45
45.66 45.32 46.84 48.84 49.10 49.65 51.18 52.31 52.65 52.00 52.17 54.44 51.81 53.07 60.91 59.55 46.57 50.47 51.63 50.15 50.84 51.10 51.19 50.78 48.41 50.19 50.34 47.67 44.83 47.24 47.98 50.86 51.64 51.67 49.05 51.01 45.65 40.81 42.71 46.91 49.08 46.17 47.51 47.69 46.51 44.97 39.81
44.52 43.60 47.77 48.84 48.95 49.52 50.53 51.69 52.31 51.87 52.28 56.95 53.00 48.41 53.52 55.21 54.56 51.12 49.31 48.37 47.89 52.93 51.53 52.17 49.95 51.94 50.42 48.82 50.55 48.21 48.94 49.55 51.14 51.48 45.43 48.98 47.38 44.06 40.02 43.45 47.07 44.95 46.06 47.16 45.98 41.00 40.91
44.23 46.27 48.09 48.67 49.24 49.59 50.58 51.19 51.89 51.74 51.79 55.14 54.19 50.53 53.17 47.30 50.47 52.03 50.83 49.22 47.26 47.59 52.11 53.22 50.90 50.17 49.33 46.50 48.25 47.89 50.48 48.52 50.04 46.29 49.63 50.47 44.44 46.42 46.64 46.37 45.80 45.39 44.93 45.96 44.34 44.78 42.01
45.26 46.59 47.32 48.13 48.65 49.40 50.02 49.77 51.49 51.47 51.81 53.09 51.57 51.53 53.72 51.82 52.26 50.60 47.64 48.36 47.41 49.56 50.75 49.91 49.39 50.38 50.79 48.45 49.25 47.25 50.29 49.76 48.81 50.67 50.30 50.39 44.63 44.61 42.66 46.10 45.01 43.21 45.15 45.11 45.12 45.51 44.97
46.68 47.02 47.51 47.98 48.73 49.20 49.24 48.62 51.18 51.48 51.99 52.98 56.66 57.54 54.77 49.96 51.80 48.75 49.83 49.01 48.70 52.11 51.95 53.07 52.07 51.33 50.45 51.78 54.07 54.35 54.46 53.41 52.55 50.62 49.22 47.98 45.47 41.69 37.82 41.81 42.10 37.53 43.04 44.82 45.34 46.48 46.18
46.55 47.00 47.54 47.97 48.61 49.07 48.67 47.76 50.78 51.13 52.03 57.03 57.96 57.05 51.62 48.35 50.60 48.84 49.45 50.23 49.65 52.09 50.73 52.18 54.37 52.54 53.03 55.90 55.31 54.21 52.54 51.06 50.29 49.33 51.54 45.40 44.57 42.68 38.80 36.19 30.66 42.74 46.70 45.66 44.86 46.14 47.54
46.14 46.57 47.68 48.28 48.52 48.66 47.91 47.57 50.53 50.70 51.48 56.82 60.29 57.59 53.62 46.55 50.21 49.15 49.07 49.17 51.05 53.33 52.67 52.43 52.48 55.02 56.37 54.29 49.01 45.16 45.39 44.82 45.19 46.69 46.11 47.81 44.93 39.20 38.21 36.92 40.84 42.70 44.17 43.20 42.44 43.08 47.53
46.14 47.18 47.97 48.27 48.22 48.48 47.78 49.86 50.13 50.46 51.12 55.38 61.97 61.79 57.37 51.45 49.56 50.97 49.11 49.94 50.95 51.59 50.78 49.44 53.87 55.86 53.71 52.84 48.39 41.57 39.67 42.87 41.96 44.17 46.40 44.42 45.23 42.70 38.19 35.73 32.58 42.88 45.38 48.24 47.75 39.71 47.24
46.66 47.25 47.87 48.22 48.45 48.66 48.94 49.73 49.81 50.12 50.76 54.93 61.97 62.50 56.99 50.78 52.76 52.62 49.67 48.96 52.71 53.31 51.75 50.34 50.25 49.98 52.27 49.53 43.83 44.37 42.66 45.53 40.18 38.89 37.81 40.68 41.62 38.87 38.90 37.81 40.94 45.55 46.17 48.48 37.88 41.72 49.04
46.85 47.46 47.80 47.63 49.23 48.93 49.44 49.53 49.55 49.82 50.28 53.96 61.75 62.93 58.55 53.45 53.92 55.03 54.49 52.34 52.64 53.49 50.99 52.15 50.36 50.78 50.52 46.25 47.09 46.62 44.95 45.14 43.56 44.80 42.38 41.03 39.96 39.26 40.40 35.83 33.42 46.83 47.14 42.15 48.27 49.94 49.82
47.21 47.68 47.97 48.53 48.32 48.67 48.83 49.21 49.40 49.91 50.22 52.49 60.30 62.53 63.93 57.21 55.81 58.97 58.27 58.14 57.57 57.89 56.08 53.84 53.24 52.43 53.04 50.58 49.62 50.75 42.77 39.52 44.58 40.38 46.76 41.48 45.51 44.54 43.20 43.85 48.13 48.71 48.08 50.04 50.74 49.64 49.69

GFSGBSN_sfc_wetblb_024.txt.gz
Wetbulb
57.40 58.01 58.52 58.71 61.16 60.74 60.63 60.26 59.23 58.46 58.15 57.98 57.79 57.61 57.10 56.32 56.06 55.88 55.79 55.26 55.36 55.46 55.42 54.83 54.42 54.19 54.03 54.26 54.66 61.95 63.49 61.54 57.70 56.18 55.75 53.73 50.74 50.00 48.00 49.47 49.97 48.33 50.26 51.31 54.77 55.09 54.04
56.14 56.47 56.98 58.10 58.71 60.85 60.72 60.16 59.27 58.32 57.86 57.71 57.40 57.06 56.91 56.07 56.21 55.04 55.31 55.11 55.11 55.42 55.05 54.26 53.89 53.69 53.68 49.78 59.21 61.83 60.80 58.86 55.81 56.04 55.39 53.34 51.98 52.93 50.47 49.66 48.66 50.48 51.07 50.66 53.71 53.98 53.76
55.44 55.85 56.44 56.86 58.02 58.92 60.23 59.51 58.99 58.39 57.96 57.85 57.32 57.00 56.51 55.97 55.78 54.68 54.56 54.47 55.01 54.93 54.42 53.56 53.42 53.72 53.16 52.61 60.20 61.52 58.18 56.48 57.62 57.23 53.84 55.17 55.35 52.78 52.84 50.63 53.26 51.88 47.91 49.05 50.49 53.24 52.19
55.10 55.72 56.25 56.48 57.41 57.45 58.84 58.77 58.44 58.25 57.94 57.70 57.59 56.98 56.14 55.28 54.49 54.47 53.91 54.04 54.48 54.31 53.63 52.98 53.09 54.58 51.84 60.03 60.79 59.51 60.19 58.50 58.97 57.95 56.37 58.00 57.98 54.74 52.66 54.06 50.57 48.06 48.17 43.68 48.74 51.80 52.82
54.29 54.98 55.89 55.79 56.44 57.10 57.75 58.40 58.21 58.09 57.86 57.53 57.21 56.76 55.64 54.52 54.08 53.89 53.80 54.52 54.47 53.64 53.38 53.33 53.31 55.34 52.90 59.50 56.34 57.92 59.43 57.24 57.68 57.86 58.14 57.61 56.03 53.07 52.85 48.18 45.88 47.86 41.17 43.61 45.85 51.69 51.84
54.03 54.39 55.11 55.52 55.56 56.83 57.27 58.22 57.87 57.42 57.14 57.04 56.84 56.39 55.40 54.50 53.95 53.88 54.11 53.86 54.40 52.89 53.47 56.17 56.34 51.96 56.73 53.93 55.55 57.00 58.73 57.81 56.19 56.14 54.21 53.62 52.06 49.50 49.51 46.57 38.90 41.20 41.93 44.03 44.44 47.34 50.37
54.13 53.81 53.83 54.97 55.30 56.31 57.40 58.31 58.13 56.82 56.51 56.47 56.55 56.19 55.01 54.44 54.40 54.36 52.46 53.84 52.21 51.86 54.23 51.99 53.82 52.57 53.67 55.90 57.43 55.77 57.07 55.92 55.82 54.08 49.48 52.06 47.58 44.80 46.62 47.90 47.83 46.16 45.16 44.14 46.16 49.06 47.83
53.60 53.61 53.44 53.53 54.83 55.40 57.25 57.50 57.91 56.70 56.28 56.23 56.21 55.80 54.75 54.56 54.72 54.28 54.11 54.21 57.48 58.88 52.79 56.02 52.73 54.79 56.12 56.54 51.88 53.85 56.47 52.73 52.67 48.15 50.50 48.41 44.28 48.50 49.91 49.16 47.65 46.30 44.72 43.87 46.05 48.07 47.38
52.15 52.99 53.13 53.37 54.13 54.65 55.34 56.21 57.11 56.68 56.12 55.84 55.74 55.35 54.77 54.42 54.14 52.92 54.07 54.94 60.79 59.95 52.80 53.43 54.75 52.77 54.03 55.09 51.24 51.75 53.88 52.85 50.18 47.78 48.02 46.10 46.95 50.55 49.20 47.32 45.52 45.55 45.10 44.95 44.21 45.95 46.31
51.44 51.77 52.71 53.02 53.87 54.18 54.43 55.34 55.74 56.80 55.83 55.31 55.15 54.42 54.30 53.44 50.28 56.63 54.80 58.47 58.93 60.47 47.58 48.95 50.90 53.10 54.51 54.51 49.87 54.84 54.77 53.35 50.88 47.44 47.68 47.40 50.96 48.71 47.81 46.23 46.71 43.68 49.11 47.50 46.26 44.80 40.10
50.32 50.64 51.42 52.50 52.55 52.49 53.45 54.64 55.05 56.72 55.77 55.21 54.48 54.15 53.34 52.99 56.59 55.27 61.30 61.94 63.30 60.90 36.51 49.99 50.74 56.80 54.67 50.81 50.73 51.55 55.30 54.04 48.86 48.35 49.28 46.41 46.89 46.84 45.81 47.07 49.62 44.99 49.21 48.35 47.34 44.92 44.41
49.01 49.98 50.34 51.54 52.06 52.21 53.19 53.82 53.99 55.45 55.45 54.78 54.17 54.36 53.44 53.29 54.36 57.93 61.85 64.04 61.91 47.35 35.90 46.34 50.35 49.29 48.86 49.86 49.58 51.49 51.88 53.81 54.14 49.46 48.85 48.25 51.71 50.46 49.32 50.30 50.43 50.90 48.57 48.55 46.96 45.34 36.80
47.68 49.57 49.77 50.40 51.31 51.65 52.79 53.47 53.45 54.71 55.13 54.50 54.14 54.12 53.78 57.38 55.00 61.65 61.93 60.09 45.38 38.42 47.88 45.02 45.92 48.26 47.66 46.83 47.62 48.78 48.22 47.23 45.30 43.06 42.97 46.75 46.64 50.44 51.77 47.31 49.67 48.00 45.27 38.92 35.75 35.71 36.80
47.83 48.84 49.32 49.70 50.66 51.25 51.81 52.73 53.09 54.10 54.49 54.10 53.66 53.16 53.79 56.34 59.64 62.14 61.08 52.50 38.74 44.02 45.38 47.91 47.18 47.45 45.25 46.66 46.63 47.23 47.19 44.60 47.67 46.68 44.24 41.56 39.94 47.50 50.14 48.00 44.92 45.63 44.75 40.37 29.92 29.84 38.28
46.78 47.62 49.39 49.28 50.61 51.25 51.67 52.34 52.99 53.62 53.73 53.64 52.80 53.97 53.57 56.09 58.19 60.34 54.95 44.11 42.48 46.05 47.96 46.96 46.44 44.14 44.64 46.36 46.25 46.07 45.67 45.11 46.66 47.48 42.58 41.06 41.41 49.55 50.17 50.34 48.97 45.87 43.29 47.75 41.78 43.63 39.23
46.20 47.38 48.47 47.90 49.86 50.73 51.13 51.93 52.60 53.67 53.35 52.78 52.81 51.52 51.85 58.36 59.96 56.44 50.65 44.11 46.83 50.46 50.17 48.37 42.87 45.33 42.73 44.76 44.16 44.82 44.45 47.63 47.04 50.82 51.40 44.53 37.54 47.66 49.25 50.14 50.10 47.45 48.70 42.44 43.12 33.81 32.04
46.24 47.04 47.38 46.65 47.63 49.97 50.63 51.72 52.50 53.51 53.12 52.89 53.17 48.32 56.39 60.11 58.75 52.43 45.27 46.60 49.42 51.98 51.28 48.18 45.44 44.75 45.85 45.41 45.25 44.47 44.55 47.52 51.06 50.66 51.42 48.95 45.76 45.48 48.50 46.11 43.83 46.26 44.29 44.76 43.92 43.93 36.98
45.90 45.93 47.08 46.42 47.27 49.54 50.17 51.29 52.24 52.99 52.50 51.33 52.12 44.15 58.26 60.67 46.28 47.69 46.82 48.84 49.72 51.03 52.00 50.78 50.07 47.92 46.60 47.67 45.93 45.33 44.60 47.91 51.61 50.98 47.25 49.48 46.61 43.14 43.99 49.32 50.74 48.69 46.65 45.83 42.04 38.78 42.76
44.96 45.64 46.16 46.65 46.56 48.46 49.74 50.61 51.97 52.48 52.41 51.50 48.26 50.59 59.38 58.12 41.73 45.00 49.44 49.42 50.60 49.80 50.68 50.38 48.95 49.94 49.54 47.48 44.70 46.92 47.60 52.23 53.01 51.04 48.56 50.42 45.47 39.56 41.41 46.50 49.18 45.99 46.80 46.33 47.03 46.01 40.16
44.94 45.45 45.64 46.37 46.47 46.20 49.26 49.70 51.37 52.26 52.39 52.26 49.62 45.13 51.88 54.09 50.89 47.92 47.61 47.21 47.00 52.09 50.45 51.45 50.39 50.69 48.84 46.96 48.85 46.60 47.63 50.33 52.21 52.02 46.82 51.55 46.55 42.87 38.74 42.19 46.60 44.81 45.77 46.12 45.27 40.87 40.52
44.94 45.51 45.79 46.19 46.07 45.36 48.78 49.34 50.47 51.84 52.06 51.13 51.48 48.19 51.19 45.30 47.58 49.13 50.96 48.74 46.79 46.94 50.47 52.30 49.50 48.30 48.66 46.11 46.86 46.95 49.14 49.47 50.54 46.79 49.39 49.87 43.45 45.16 45.39 46.35 46.48 45.68 45.12 45.28 43.69 44.70 40.11
44.50 45.17 45.67 45.86 45.93 46.67 48.68 49.12 49.88 51.37 51.91 49.09 48.12 49.23 52.86 49.83 49.85 48.80 48.27 48.27 47.37 48.16 49.61 49.07 48.85 49.34 50.27 47.77 48.26 46.54 49.04 49.82 48.26 50.14 49.38 50.36 44.58 45.91 43.57 46.17 46.02 43.39 45.07 45.30 44.64 44.42 44.51
44.33 45.26 45.14 45.38 46.61 47.86 48.72 48.74 49.83 50.82 51.33 48.70 53.05 56.60 52.61 48.21 48.75 47.91 48.91 49.98 49.39 50.88 51.67 52.10 51.36 50.38 49.12 51.29 53.77 54.32 54.89 54.38 52.75 50.54 49.02 48.93 46.74 42.55 38.62 42.34 41.21 35.42 42.41 43.83 44.51 45.96 45.49
44.45 44.81 45.64 47.30 47.65 48.33 48.66 49.07 49.53 50.50 51.27 52.70 54.48 55.83 49.55 45.81 47.51 48.47 50.63 51.33 49.51 50.57 50.97 52.68 53.83 52.04 53.81 56.68 56.02 54.68 53.09 52.11 52.23 51.17 52.79 46.99 45.60 43.51 39.57 36.29 31.21 42.16 47.23 46.01 44.25 45.00 45.90
45.34 44.95 45.76 46.68 47.70 48.12 48.62 48.71 48.49 48.14 50.51 53.28 57.22 55.03 51.21 43.67 49.90 49.73 51.18 51.32 51.28 51.61 52.33 52.40 53.89 56.09 57.71 54.76 49.04 45.09 46.26 44.04 46.19 47.96 47.83 49.62 46.12 40.65 37.26 36.29 40.11 42.45 44.89 43.73 42.69 42.74 46.71
45.90 46.39 46.48 46.98 47.33 47.63 48.06 47.88 47.45 47.72 47.60 51.65 54.52 54.92 56.05 49.05 49.35 52.43 50.37 52.03 49.30 51.02 50.66 50.38 55.50 58.72 57.18 54.38 49.68 42.01 40.11 42.59 41.58 43.68 46.79 45.88 47.53 44.14 38.79 36.31 32.94 43.49 45.81 48.19 47.32 39.11 47.29
45.62 46.23 46.66 46.97 47.16 47.66 47.93 47.54 47.27 47.57 47.88 49.17 53.78 55.15 55.46 50.22 54.47 54.07 50.02 49.98 53.43 52.61 50.25 51.01 50.61 50.83 54.19 49.83 41.92 45.85 43.40 46.46 41.00 39.71 37.56 40.70 42.38 37.55 38.65 37.59 40.71 46.37 47.22 48.33 38.15 41.26 48.72
45.64 46.14 46.60 47.04 47.25 47.32 47.33 47.44 47.14 47.31 48.28 50.03 50.29 53.72 54.33 51.36 54.25 56.52 55.71 52.19 54.41 54.56 49.66 52.07 50.51 51.64 53.35 46.99 46.57 48.18 44.63 46.47 45.15 45.02 41.45 40.06 40.11 38.16 41.67 35.15 32.82 47.59 46.79 41.89 48.41 50.88 49.79
45.88 46.20 46.55 46.97 47.28 47.22 47.62 47.44 47.81 49.39 50.03 51.32 48.42 54.43 56.88 56.87 55.50 59.73 58.28 58.88 58.30 57.37 55.54 53.97 53.53 52.15 53.32 50.81 49.73 51.46 40.42 39.55 43.92 40.84 47.60 42.08 46.08 44.79 42.81 42.48 49.33 49.63 48.67 50.33 51.13 49.64 49.90

GFSGBSN_sfc_wetblb_027.txt.gz
Wetbulb
56.27 56.75 57.43 57.67 58.05 58.80 60.98 60.85 59.87 58.77 58.23 57.99 57.82 57.79 57.71 57.29 56.75 56.59 55.06 54.37 54.70 55.46 55.69 55.48 55.36 54.72 51.60 50.22 52.83 60.70 62.06 61.93 55.95 53.93 51.64 51.06 49.94 47.14 43.91 45.31 46.02 44.60 46.45 49.31 54.54 54.25 52.84
55.62 56.01 56.08 56.38 57.05 58.00 59.01 60.73 59.91 58.84 58.10 57.68 57.42 57.27 57.14 56.98 56.60 56.22 55.29 54.38 54.50 55.28 55.23 55.43 54.70 54.42 49.52 47.61 58.96 61.13 58.40 56.01 53.57 52.19 53.35 52.95 50.41 49.59 47.35 47.12 45.85 47.67 46.82 47.81 51.37 53.24 53.94
55.59 55.73 55.58 55.67 56.44 57.11 57.87 58.40 59.55 58.98 58.39 57.90 57.60 57.19 56.74 56.55 56.17 55.38 55.12 54.12 53.87 54.87 55.30 54.87 54.19 52.10 50.21 48.98 56.05 56.43 58.69 54.52 52.93 53.51 51.72 53.55 52.93 51.01 50.13 47.68 51.66 49.09 44.39 44.88 48.05 50.83 50.86
55.28 55.42 55.60 55.40 55.94 56.36 56.84 57.33 58.93 59.13 58.45 58.11 57.80 57.09 56.33 55.90 54.95 54.40 54.36 53.66 53.99 54.83 54.89 54.62 53.91 50.62 47.99 59.12 56.15 55.84 54.65 53.91 54.56 54.90 54.69 54.42 55.12 52.21 49.98 50.41 49.13 44.54 43.46 39.85 45.57 50.58 50.99
55.04 54.98 54.87 54.99 55.48 55.75 56.27 56.62 57.71 58.79 58.68 57.87 57.33 56.87 56.13 55.13 54.21 53.89 53.70 53.91 54.24 54.99 54.73 54.21 49.84 49.65 49.95 60.39 55.41 56.51 55.87 55.54 55.99 55.24 54.83 56.44 53.14 49.60 49.40 44.19 41.11 41.64 37.11 40.64 43.43 49.16 48.68
54.17 54.57 54.39 54.30 54.44 55.54 55.66 56.66 56.59 57.84 58.02 57.46 57.02 56.70 55.87 54.81 54.01 53.56 53.45 54.08 54.22 53.40 53.22 53.30 52.92 47.14 52.45 53.56 55.47 55.81 55.61 56.14 54.75 54.69 52.89 51.36 47.56 43.93 44.19 41.38 33.98 39.32 40.08 39.50 40.11 45.45 47.83
53.38 53.91 54.31 54.34 54.52 55.26 55.92 56.03 56.72 57.14 57.52 57.19 56.84 56.54 55.68 54.52 53.97 53.81 51.75 50.48 48.12 48.13 49.05 48.66 50.09 49.84 52.68 55.14 55.21 53.19 54.93 54.28 53.59 51.54 45.46 48.46 42.05 39.36 42.86 45.78 45.79 44.93 42.07 40.16 42.20 45.34 46.22
52.71 53.16 53.86 54.29 53.98 53.83 54.72 55.60 56.31 56.75 57.22 57.02 56.43 56.05 55.62 54.46 53.97 54.07 50.93 48.87 52.92 52.52 47.94 53.68 52.41 52.61 53.68 55.04 50.83 52.12 54.16 49.88 49.90 44.92 48.38 44.72 40.22 46.07 48.49 48.12 45.88 45.43 43.34 42.14 43.30 45.71 43.76
52.49 52.18 52.65 53.72 54.11 53.68 53.99 54.85 55.14 55.64 57.04 56.62 56.10 55.78 55.05 53.85 53.91 52.19 49.52 50.91 55.32 54.10 47.32 52.48 54.98 52.85 51.55 53.56 50.21 50.06 51.59 50.20 47.43 45.67 46.61 42.61 45.30 49.99 47.86 45.69 44.40 44.81 42.11 41.67 41.61 41.58 40.83
51.17 51.29 51.84 52.56 53.55 53.52 53.24 54.04 54.48 54.89 56.12 55.94 55.39 54.91 53.77 53.16 49.57 51.39 50.14 54.84 54.33 52.98 42.31 47.52 50.75 52.31 52.56 52.76 48.68 53.34 53.12 51.27 48.62 46.10 46.26 44.56 49.51 47.56 46.17 44.52 45.76 41.27 47.15 45.58 44.78 41.71 34.42
50.36 50.57 50.76 51.57 52.19 52.57 52.42 53.25 54.01 54.81 55.64 55.78 54.93 54.40 53.15 53.11 51.16 51.23 56.54 58.30 54.92 54.41 31.59 48.65 49.80 55.54 53.12 49.81 49.84 49.29 54.88 52.35 46.01 47.13 46.97 44.09 46.25 45.25 44.29 44.85 47.45 43.48 46.92 45.28 45.83 42.36 40.67
49.68 49.74 50.58 51.10 51.44 51.72 52.15 52.48 52.98 54.11 54.85 55.46 54.67 54.10 53.29 52.44 51.27 51.63 54.49 55.59 57.33 43.00 32.17 46.26 49.94 48.11 47.65 49.11 48.79 49.01 49.53 51.75 51.89 47.76 47.52 46.87 49.31 48.05 46.75 48.61 48.12 48.61 46.44 45.78 44.36 40.68 31.65
49.37 49.27 49.64 49.97 50.37 50.86 51.44 52.01 52.45 53.48 53.93 55.08 54.21 53.90 53.10 54.44 49.66 56.07 54.02 53.62 40.79 32.29 47.11 44.23 44.50 47.49 46.00 45.05 45.88 46.37 45.66 43.86 42.18 39.24 39.54 44.24 45.93 48.15 50.55 45.80 47.87 46.24 40.83 32.55 30.53 29.23 29.82
48.19 48.66 48.61 48.73 49.12 49.99 50.53 51.91 52.09 52.77 53.41 54.41 53.87 53.17 53.23 53.52 54.67 55.50 55.55 48.44 35.89 42.12 42.98 48.15 46.32 46.12 42.71 45.15 44.60 45.18 44.05 41.16 44.11 43.12 40.79 39.15 36.27 45.22 48.50 45.12 44.02 42.80 41.55 33.77 27.28 29.18 31.93
48.30 47.44 47.96 48.05 48.35 49.30 50.12 51.02 51.51 52.42 52.97 53.84 53.33 52.53 51.39 52.17 53.62 53.93 51.82 40.66 37.67 44.02 45.68 46.01 44.63 41.71 41.65 44.76 43.67 43.00 42.87 42.19 43.55 43.87 38.87 38.38 39.52 47.95 49.38 49.11 46.84 43.53 37.89 45.69 37.12 37.30 32.99
47.82 47.31 46.93 46.93 47.98 48.42 49.31 49.68 51.05 51.98 52.77 53.18 51.48 50.19 49.69 53.72 55.27 52.55 47.42 41.10 44.89 48.82 49.14 47.49 41.16 42.97 39.25 41.91 41.51 41.21 41.13 44.66 44.92 48.49 48.46 43.51 38.26 45.25 47.22 49.23 47.95 44.38 45.92 37.20 36.87 28.07 26.47
46.89 47.03 46.69 46.59 46.62 47.17 49.26 50.17 50.79 51.79 52.99 52.86 51.16 46.57 50.68 54.58 54.30 49.56 39.35 42.57 46.70 51.26 50.16 47.72 44.04 42.35 42.69 42.77 42.07 41.08 41.96 44.89 46.75 47.91 48.23 44.95 43.00 42.56 46.46 44.09 41.86 42.06 40.30 40.62 39.87 34.87 28.17
45.97 46.06 45.93 46.17 46.76 46.75 48.37 49.65 50.78 51.41 52.57 51.55 50.00 42.11 52.19 55.40 42.82 42.67 40.15 45.40 47.49 49.17 51.43 49.12 48.39 46.80 43.60 45.53 42.50 41.37 41.59 46.57 49.18 49.28 44.90 45.54 41.90 35.38 42.30 47.13 48.01 45.29 43.10 42.53 30.53 32.07 31.76
45.49 45.70 45.77 45.99 46.40 47.22 47.67 49.43 50.13 51.17 52.20 50.14 46.27 46.95 53.49 52.16 36.62 38.05 42.39 45.85 48.34 48.11 48.38 48.13 47.28 48.44 47.73 45.69 41.92 43.38 46.07 49.90 50.36 48.62 45.20 46.33 39.48 29.70 35.21 41.13 45.48 42.40 43.78 43.83 43.22 36.41 31.82
44.96 45.31 45.15 45.94 46.28 47.21 47.59 46.64 49.93 50.60 51.81 51.42 46.91 41.49 48.93 49.80 45.14 41.26 39.97 42.72 44.41 50.14 49.16 49.85 48.58 48.93 46.27 44.17 46.87 43.24 45.13 49.41 50.25 48.16 45.77 47.83 42.66 36.44 29.95 36.77 42.53 39.96 43.43 43.76 40.39 30.17 30.94
44.44 44.69 45.03 45.45 45.24 46.71 46.38 46.46 49.38 50.14 51.68 51.12 46.66 42.14 48.04 41.69 43.31 42.06 43.81 44.45 44.40 44.58 49.14 49.71 47.24 46.92 44.96 40.49 43.14 42.83 46.37 46.78 49.14 46.49 46.83 45.21 37.74 40.33 42.39 44.28 44.50 43.08 43.04 43.69 40.65 39.82 34.00
43.99 44.30 44.71 44.79 45.78 46.38 46.39 46.33 48.89 49.65 51.44 48.28 44.46 43.41 48.41 45.21 45.88 44.30 42.52 43.71 44.97 46.30 47.28 45.95 45.86 46.82 45.76 42.92 45.00 42.44 46.63 45.60 44.35 45.92 44.51 45.87 37.85 38.15 36.55 43.23 41.87 38.84 41.67 41.84 41.41 41.71 39.67
44.15 44.56 44.98 45.31 45.81 46.17 46.79 46.19 47.39 49.34 50.52 46.05 47.61 49.32 48.47 44.38 44.69 42.32 41.66 45.26 45.96 47.91 48.59 49.37 48.84 46.96 44.82 48.12 49.85 49.48 50.03 49.47 48.86 45.13 42.78 41.89 36.14 32.87 30.61 37.18 36.05 28.40 36.09 39.98 41.29 42.02 40.75
44.61 45.16 45.33 45.64 46.09 46.68 46.69 45.94 47.74 48.99 50.31 48.39 48.61 48.52 46.77 40.23 44.61 42.34 45.08 46.70 47.24 47.71 46.40 49.63 49.71 46.81 50.06 52.78 51.17 49.58 48.01 48.22 48.80 47.09 48.51 39.36 37.53 32.29 28.65 29.08 20.65 36.96 43.90 42.62 41.39 41.24 41.49
44.80 45.23 44.98 45.78 46.11 46.48 46.67 46.68 48.21 48.76 50.15 47.27 48.63 49.62 48.42 35.77 45.09 44.12 45.22 47.19 49.49 49.92 47.92 50.25 51.87 52.50 52.82 50.20 42.33 39.27 35.12 35.52 40.10 45.38 45.81 45.97 35.64 31.56 26.82 27.17 33.47 38.65 41.75 41.05 38.69 37.84 42.74
44.76 44.86 44.67 45.23 45.42 46.01 46.49 47.59 48.15 48.74 49.73 48.82 47.05 49.56 50.60 45.79 44.03 47.28 45.21 48.52 45.65 43.85 45.42 48.30 51.99 52.55 52.61 45.82 35.64 33.03 30.64 36.05 35.65 39.57 44.33 42.83 38.80 31.06 28.48 25.04 21.16 35.87 42.62 45.51 43.78 31.51 43.84
43.67 44.76 45.35 45.59 46.12 46.55 46.99 47.63 48.43 48.71 49.00 47.88 47.00 50.28 49.41 47.65 48.98 48.54 45.56 47.18 50.20 47.26 44.33 47.01 48.50 46.86 50.26 35.44 35.46 31.22 31.58 42.09 34.19 33.19 31.45 31.03 30.82 27.61 25.33 23.63 31.39 43.59 44.70 45.61 30.24 32.70 43.99
43.94 44.50 45.19 45.62 46.06 46.84 47.12 47.61 47.82 47.53 47.68 46.65 45.22 48.29 50.34 48.18 49.18 52.14 51.68 48.81 50.96 48.60 42.62 46.89 46.10 44.95 39.61 37.34 35.14 33.24 32.30 34.84 35.01 40.33 36.18 33.13 30.45 27.18 30.92 29.00 26.96 45.03 43.39 35.67 41.14 43.53 44.38
44.37 44.98 45.31 45.63 45.70 46.59 47.30 47.43 47.31 47.20 47.41 47.37 42.14 49.50 52.88 47.80 49.93 55.26 54.86 54.64 55.00 53.43 49.62 47.63 48.56 46.87 46.92 41.76 39.90 37.47 34.86 34.26 33.91 29.98 42.95 33.54 38.72 33.74 35.70 33.74 42.99 43.91 43.24 45.23 45.15 43.80 44.14

GFSGBSN_sfc_wetblb_030.txt.gz
Wetbulb
56.07 55.99 56.44 57.03 57.31 57.35 58.18 59.10 60.29 58.96 58.45 57.86 57.52 57.32 57.62 57.75 57.43 56.98 56.09 55.01 54.70 54.49 55.00 55.17 55.83 55.13 50.44 48.55 50.75 59.55 62.49 62.09 55.84 52.83 50.04 48.85 48.29 48.24 42.87 43.28 44.00 43.00 45.53 48.65 52.25 52.17 52.94
55.90 56.17 55.92 56.17 56.40 56.55 56.99 58.07 58.58 59.39 58.58 57.81 57.37 56.97 57.09 57.25 57.02 56.41 55.62 54.93 54.46 54.28 54.79 55.20 55.16 54.25 49.12 44.46 57.91 59.66 56.26 53.66 52.40 50.28 50.79 50.00 50.00 49.59 45.51 45.63 43.94 47.45 45.91 50.71 52.00 51.99 52.57
55.61 55.57 56.09 55.93 55.96 56.18 56.66 57.02 56.96 58.82 59.11 58.34 57.66 57.00 56.72 56.84 56.44 55.86 55.32 54.50 54.03 54.01 54.69 55.08 54.52 51.78 48.21 45.88 55.12 56.70 56.06 52.60 51.42 51.50 50.17 51.98 52.10 49.20 48.58 46.59 50.35 48.30 42.51 47.51 50.34 50.86 50.32
55.37 55.55 55.54 55.55 55.40 55.71 55.91 56.55 56.66 57.75 58.95 58.71 57.98 57.12 56.13 55.93 55.44 54.71 54.30 53.85 53.89 54.30 54.81 54.59 53.95 49.32 45.62 56.67 54.59 54.47 54.45 52.64 53.30 52.62 52.30 53.38 53.03 51.33 47.94 49.09 47.89 43.99 41.97 38.01 47.79 50.11 50.97
54.57 55.08 55.25 55.10 55.07 55.39 55.59 55.42 56.39 56.70 58.07 58.53 57.95 56.96 55.99 55.36 54.67 53.95 53.63 53.67 53.96 54.71 54.87 54.63 48.68 48.39 47.64 58.23 55.30 56.85 54.55 52.59 52.69 52.19 52.08 55.28 51.52 47.46 47.48 42.98 39.48 39.43 34.94 38.14 42.13 48.97 48.82
54.05 54.34 54.62 54.73 54.44 54.71 55.41 55.65 55.97 56.19 56.83 57.95 57.77 57.07 56.01 55.28 54.32 53.34 53.10 53.61 53.81 53.23 52.49 53.08 51.68 44.55 50.07 51.19 55.64 55.05 54.03 54.57 53.21 52.43 50.89 49.23 45.44 42.57 42.27 39.85 33.18 37.56 38.53 37.91 39.43 43.00 45.93
53.58 54.19 53.97 53.61 54.42 54.47 54.82 55.69 55.55 55.82 56.05 57.21 57.67 57.03 56.17 55.24 53.89 53.24 51.09 49.17 48.27 47.92 47.84 45.26 45.85 46.71 49.73 53.87 55.18 52.40 53.48 52.61 51.87 50.29 43.78 46.86 40.78 38.24 41.39 43.42 45.33 43.99 42.14 39.61 42.68 43.90 44.62
52.99 53.37 53.55 53.56 53.89 54.60 54.59 54.82 54.90 55.17 55.96 57.03 57.07 56.53 55.81 54.73 53.63 53.52 49.92 46.72 50.06 49.20 44.92 51.64 51.80 51.34 53.57 53.45 48.80 51.10 53.55 48.64 48.17 43.55 46.08 42.69 39.32 44.13 47.03 47.54 44.80 43.18 41.16 40.09 43.00 44.42 44.14
52.02 52.43 52.67 53.07 53.34 53.44 54.51 53.93 53.54 54.48 55.27 56.30 56.68 56.22 55.36 53.81 53.57 51.36 47.94 48.60 53.83 52.41 44.82 50.07 53.13 52.30 53.23 52.04 48.46 48.96 50.88 49.19 46.36 43.83 43.72 40.66 44.15 47.92 46.79 44.18 42.98 42.17 40.47 40.73 41.06 41.33 40.78
51.57 51.57 51.65 52.33 52.90 52.84 53.88 53.66 53.60 54.18 54.50 55.03 56.08 55.46 54.04 53.21 48.86 50.10 48.67 53.81 53.23 51.64 40.74 44.99 49.22 52.00 51.14 50.56 47.51 52.05 51.18 49.63 45.86 44.17 44.15 42.59 46.65 46.28 44.55 43.28 43.82 38.67 44.76 43.61 42.59 38.99 32.89
51.07 51.19 51.13 51.86 52.38 51.82 51.88 53.13 52.91 53.77 54.34 54.36 55.30 54.70 53.02 53.03 49.92 50.06 53.76 54.01 52.60 52.36 23.53 46.30 49.49 55.39 51.26 48.07 48.02 48.20 52.54 50.13 44.31 45.26 44.34 41.70 44.30 43.00 42.43 43.66 45.59 42.00 45.56 43.60 43.67 39.37 36.49
50.48 50.86 50.83 50.89 50.94 50.98 51.23 52.24 52.34 52.98 53.69 54.05 54.90 54.24 52.97 51.87 50.68 49.98 52.60 53.56 54.78 40.98 29.61 44.98 48.68 46.68 46.03 47.56 47.41 47.48 49.59 50.95 49.29 45.90 45.53 43.85 47.25 46.80 45.54 47.53 46.60 46.84 44.31 42.90 41.89 38.98 30.94
48.69 50.49 50.45 50.09 50.18 50.58 51.03 51.53 52.09 52.18 53.09 53.71 54.53 54.10 53.06 53.59 48.33 53.01 55.05 52.68 38.11 34.44 44.81 43.18 43.67 46.02 44.73 44.02 45.11 45.07 43.96 42.76 40.71 37.55 38.02 42.76 43.84 46.26 48.71 43.48 46.02 43.90 38.79 30.64 29.21 28.34 28.26
48.32 49.52 50.08 49.90 49.90 49.95 50.57 50.80 50.94 51.59 52.56 53.37 53.78 53.18 53.35 53.06 52.34 52.99 54.25 48.48 34.71 39.78 42.12 46.63 45.11 44.95 41.89 43.76 43.65 43.40 41.76 39.14 42.04 42.03 37.64 36.07 34.68 44.10 47.61 44.65 40.97 41.14 39.21 31.14 26.58 25.70 30.59
47.76 49.01 49.78 49.49 49.19 49.39 49.52 49.81 50.06 50.60 51.92 52.62 53.35 52.52 51.95 52.08 52.58 53.22 51.27 39.62 35.48 42.03 44.38 43.50 43.68 40.70 39.96 42.77 42.78 41.41 40.21 39.96 42.13 42.22 37.06 36.61 37.67 45.86 47.07 47.70 45.83 41.39 36.47 41.77 34.76 34.34 31.32
47.82 48.44 49.45 49.14 48.82 48.37 48.44 48.90 49.81 49.94 51.56 52.27 50.74 50.53 50.58 52.86 52.89 50.61 45.89 38.95 42.16 48.08 47.76 46.27 39.37 41.28 37.28 39.95 39.60 38.95 39.16 43.01 42.88 44.27 46.07 42.54 35.94 43.54 46.20 47.58 46.53 43.55 44.64 36.01 34.83 27.98 27.22
47.29 48.24 48.65 48.40 48.28 48.17 48.05 48.19 48.39 49.78 50.78 52.03 49.35 45.71 51.59 54.45 51.95 46.07 38.86 39.42 44.05 49.13 49.37 45.65 43.11 41.27 41.02 39.78 40.32 38.44 39.80 42.92 45.34 46.50 47.02 43.94 39.83 39.77 44.85 42.41 41.18 40.54 38.87 38.90 37.99 32.47 27.61
46.72 47.45 47.83 47.88 47.71 47.47 47.52 48.08 48.71 48.78 49.82 49.68 47.22 41.07 51.37 54.48 41.27 41.30 40.67 43.18 44.37 46.60 49.68 48.23 46.84 44.82 41.61 41.79 39.89 39.73 39.77 42.43 46.90 47.87 43.12 45.28 41.11 32.61 40.21 45.54 46.13 42.71 41.16 40.50 29.48 30.66 29.38
46.42 46.75 47.30 47.26 47.33 47.03 46.84 47.05 47.67 48.13 49.34 46.39 43.60 45.43 51.73 51.33 35.22 35.73 41.15 43.61 45.15 45.02 46.52 46.67 45.51 46.68 45.66 42.87 39.16 42.46 43.11 47.91 48.45 46.80 43.73 44.31 37.81 29.16 34.36 39.16 42.69 41.09 42.20 41.83 39.43 33.33 30.59
46.25 46.55 46.96 47.00 46.96 46.71 46.72 46.99 47.63 47.10 49.11 47.43 44.45 39.47 45.77 47.00 44.65 38.42 38.63 40.48 41.15 46.64 45.90 47.65 47.10 47.24 44.54 41.92 44.36 41.84 43.86 47.34 48.22 47.10 45.78 46.06 39.50 34.83 29.80 34.52 38.46 37.39 41.15 41.86 39.27 29.10 30.67
45.72 46.14 46.25 46.20 46.28 46.53 46.65 46.80 47.42 48.78 49.06 47.21 44.95 41.63 43.16 38.42 39.59 39.51 40.34 40.70 39.52 39.47 47.10 47.88 45.24 45.58 43.74 38.75 40.64 41.76 45.02 45.30 47.20 45.75 45.51 43.05 36.82 38.09 38.92 41.58 41.79 39.82 40.91 41.53 38.72 37.79 32.64
45.52 45.50 45.57 45.71 45.71 46.03 46.58 46.77 46.12 47.32 49.09 44.92 42.21 42.83 44.52 41.96 42.37 40.03 39.46 38.75 39.02 41.16 43.74 43.48 44.03 45.72 44.47 41.18 41.76 40.93 44.78 43.28 42.42 44.37 42.47 43.78 36.21 36.51 34.68 39.87 39.02 36.79 39.26 39.37 39.67 39.32 39.18
45.23 45.21 45.09 45.02 45.45 46.16 46.64 46.87 46.68 47.65 48.08 43.22 45.71 48.22 45.89 41.55 41.85 39.54 38.39 39.79 40.51 42.78 45.87 47.00 46.55 45.14 42.33 44.94 47.42 46.52 47.83 47.30 46.74 43.18 41.14 39.77 34.90 31.36 30.71 34.54 33.63 28.68 34.77 38.11 39.42 40.01 39.68
44.87 44.92 44.87 44.89 45.38 46.01 45.30 45.65 46.16 46.54 46.33 47.56 45.39 47.22 44.52 38.53 42.30 41.03 41.90 42.40 41.72 43.94 42.55 47.57 47.97 45.35 47.76 50.46 48.46 46.92 45.21 46.07 47.02 46.29 46.00 37.12 34.58 30.34 27.56 27.49 20.74 36.39 41.40 40.96 38.46 38.73 39.37
44.34 44.58 44.66 44.95 45.35 45.93 45.88 46.21 46.49 46.91 46.05 47.26 48.54 46.87 45.53 34.54 43.49 43.45 43.29 42.45 44.07 45.85 46.21 46.93 49.34 50.12 51.57 47.26 40.29 37.18 34.14 36.41 38.88 43.64 43.86 43.47 35.03 30.85 25.63 25.73 31.99 37.15 40.06 38.36 36.81 35.99 40.36
44.17 44.37 44.77 44.94 45.44 45.70 45.80 45.98 46.30 46.24 47.18 47.56 47.28 48.29 45.16 43.82 41.66 47.13 44.02 44.20 40.68 42.47 43.19 46.39 50.46 51.92 50.48 41.60 34.09 31.61 29.78 34.52 33.81 37.75 41.95 40.50 35.37 31.16 27.70 23.93 21.01 33.60 40.75 43.32 41.85 30.67 42.17
44.10 44.39 44.83 45.09 45.28 45.42 45.65 46.10 46.09 45.82 47.99 47.42 46.88 48.50 45.17 41.92 47.90 47.74 43.37 42.66 45.58 44.68 43.31 45.95 46.63 45.69 47.37 34.64 31.72 30.26 31.09 39.27 32.26 31.60 30.17 29.55 29.05 26.05 22.15 21.83 28.63 38.92 43.22 42.70 29.75 31.13 42.30
44.50 44.76 44.87 44.97 45.02 45.44 45.42 45.81 46.00 46.74 48.46 46.56 46.45 48.38 46.18 44.22 46.85 49.71 48.02 45.05 46.95 47.64 42.58 45.25 44.75 44.39 37.75 35.67 34.12 31.71 28.78 34.34 33.47 37.23 34.42 32.11 28.71 26.00 30.29 24.17 25.75 43.42 41.52 35.52 37.42 41.46 42.54
44.59 44.76 44.78 45.07 44.97 45.19 45.28 46.14 46.62 47.63 48.18 47.37 44.19 48.40 49.44 43.99 46.47 50.53 50.77 50.85 51.37 51.54 48.04 45.82 45.49 45.50 45.12 39.98 38.17 35.26 33.11 31.91 32.23 30.17 40.10 32.37 35.06 31.55 33.26 32.27 40.89 41.91 41.61 43.75 43.53 42.72 42.78

GFSGBSN_sfc_wetblb_033.txt.gz
Wetbulb
56.03 56.06 56.56 56.65 56.87 57.41 56.65 57.89 57.99 58.77 58.92 58.45 57.95 57.77 57.78 57.84 57.97 57.35 56.12 55.49 55.39 54.50 54.33 54.80 55.33 55.21 50.11 44.95 47.26 56.81 62.28 61.79 57.62 51.75 48.05 47.44 46.68 45.46 41.32 41.68 41.50 41.39 43.72 44.78 48.05 51.42 50.55
54.57 55.91 55.84 55.97 56.22 56.02 55.46 56.56 57.34 56.85 58.46 58.40 57.89 57.40 57.04 57.20 57.25 56.81 56.14 55.24 54.66 54.47 54.04 54.58 55.16 54.32 47.54 39.68 55.17 58.12 55.55 53.49 51.48 48.94 48.60 48.52 48.51 48.61 45.28 43.71 42.44 46.67 45.39 49.60 50.03 50.88 51.88
54.70 55.23 55.79 55.48 55.83 55.97 55.71 55.71 56.55 56.62 57.04 58.55 58.30 57.43 57.07 56.93 56.85 56.24 55.69 54.98 54.35 54.23 54.27 54.60 54.50 51.58 47.23 42.73 53.98 54.67 54.58 50.90 50.13 49.19 48.74 50.82 50.73 48.28 47.09 44.57 48.09 47.45 42.93 48.48 48.95 49.23 49.34
54.64 54.92 55.17 55.33 55.18 55.22 55.26 55.60 55.94 56.70 56.69 57.96 58.81 57.62 56.58 56.22 55.79 55.35 54.74 54.23 53.88 54.13 54.43 54.41 53.79 48.23 45.32 53.68 53.81 54.74 52.68 52.67 52.44 50.54 50.71 51.78 50.78 49.21 47.43 47.49 46.54 42.72 41.04 38.54 46.83 48.71 49.41
54.29 54.73 54.95 54.72 54.88 54.94 54.81 55.39 55.55 55.56 56.54 56.94 57.95 57.65 56.64 55.43 54.88 54.41 53.80 53.84 54.07 54.43 54.55 54.55 47.53 47.10 45.53 55.91 53.27 56.53 54.21 51.94 51.88 50.79 50.58 52.98 49.88 45.76 46.47 41.53 37.77 39.04 34.38 37.44 43.41 48.60 47.14
53.92 53.56 53.24 54.38 54.16 54.78 54.72 54.80 55.15 55.23 55.61 55.96 56.92 57.39 56.47 55.39 54.62 53.66 52.95 53.44 53.56 52.97 52.38 52.65 50.96 41.65 47.09 48.64 53.95 53.89 52.89 53.06 51.23 50.66 49.67 47.99 44.17 40.88 40.37 38.82 32.27 34.58 35.97 35.30 37.29 40.94 45.55
54.12 53.82 53.84 53.28 53.93 53.57 54.80 54.77 54.37 55.12 55.00 55.67 56.30 57.25 56.67 55.49 54.60 53.09 51.25 49.02 46.78 47.02 47.59 44.36 42.82 43.12 46.88 51.87 53.12 51.78 52.27 51.16 50.68 48.41 42.50 45.31 39.97 36.63 38.88 41.41 42.57 41.19 39.22 37.47 40.41 44.90 43.53
53.42 53.30 53.29 53.46 53.49 52.94 52.58 53.90 54.08 54.45 54.86 55.65 55.99 56.49 56.47 55.39 53.94 53.45 50.10 45.63 47.86 48.43 42.88 49.53 49.85 48.85 51.77 52.86 48.54 49.61 52.44 47.31 46.77 42.10 44.53 41.35 37.82 43.04 44.97 45.00 44.02 42.46 40.13 40.61 42.13 43.54 42.18
51.42 52.58 53.06 52.99 53.17 53.34 52.82 53.03 53.65 53.45 54.04 54.53 55.18 56.15 56.07 54.58 53.39 51.22 47.41 48.58 52.91 50.62 40.47 46.87 50.88 50.28 51.51 52.31 48.49 47.13 49.93 47.66 44.46 42.46 41.96 38.71 42.07 46.59 45.53 43.13 41.95 40.14 39.15 39.49 40.57 41.44 39.64
50.42 51.03 52.22 52.76 52.52 52.91 52.74 52.56 52.60 53.45 53.41 53.72 54.03 55.27 54.59 53.05 49.46 49.73 48.71 52.75 52.60 50.46 38.62 42.88 48.19 50.64 52.19 50.07 45.82 51.12 50.41 48.80 44.53 42.99 42.43 41.13 45.07 44.30 42.63 41.44 41.96 37.57 42.64 41.86 40.94 37.87 32.25
49.56 49.67 50.62 52.01 51.92 51.54 51.60 51.98 52.13 53.41 53.10 53.53 53.33 54.46 53.39 53.28 49.11 49.85 53.26 53.11 51.99 50.63 23.03 42.22 48.03 54.05 49.42 46.30 46.36 47.01 50.82 48.35 43.34 43.94 42.83 40.34 42.54 41.59 40.64 41.91 44.04 40.85 43.86 41.87 41.62 38.12 34.90
49.07 49.09 49.89 50.85 51.43 51.03 50.84 51.47 51.62 52.10 52.62 53.08 53.13 53.99 53.29 51.82 50.52 49.75 51.96 53.91 53.14 34.90 25.15 41.91 48.02 45.60 44.12 45.62 45.60 46.25 47.57 49.13 47.56 44.43 43.40 42.51 45.89 43.71 43.03 45.40 45.00 45.18 42.29 40.60 39.29 37.07 29.15
48.65 48.54 49.08 49.76 50.68 50.86 50.80 51.61 51.29 51.31 52.13 52.33 52.91 54.22 52.96 53.27 47.17 52.01 53.58 52.50 38.77 28.03 41.75 41.55 42.29 44.49 42.64 42.13 43.10 43.94 42.67 41.94 40.03 36.61 36.35 40.56 42.01 43.93 46.63 41.50 43.97 42.40 36.89 29.15 28.46 27.39 27.19
48.88 48.37 48.10 48.69 50.13 50.67 50.67 50.68 50.28 50.36 50.78 51.83 52.37 53.19 53.44 53.42 51.88 51.17 55.02 47.30 33.20 38.19 39.59 46.31 43.83 43.00 40.03 42.16 42.03 42.43 40.29 38.06 40.64 40.13 36.25 34.84 33.14 42.10 45.83 42.44 39.92 39.11 37.36 29.96 26.06 24.85 29.34
49.44 48.88 48.29 47.91 49.05 50.24 50.27 49.96 50.00 50.52 50.64 51.51 51.82 51.88 52.25 53.40 53.10 50.15 50.00 38.99 34.01 39.18 44.69 40.94 42.24 39.11 38.66 41.57 41.45 40.16 38.52 38.13 40.41 41.67 36.76 34.71 36.00 43.18 45.28 45.88 44.44 40.70 35.43 39.73 32.73 31.69 29.30
49.93 49.01 48.34 47.86 47.90 49.82 50.10 49.57 49.87 50.16 50.12 51.12 45.96 48.07 49.15 53.83 53.49 47.96 44.92 39.29 40.80 45.93 47.53 45.37 37.83 40.15 36.27 38.12 38.37 38.17 37.59 41.19 40.85 42.77 43.10 40.22 34.56 41.84 44.03 45.72 45.60 42.13 43.24 33.63 32.99 27.34 26.28
49.85 49.09 48.55 47.79 47.79 49.22 49.59 49.29 49.50 49.58 49.68 50.47 46.04 43.19 50.11 53.42 52.60 43.75 37.26 38.53 42.69 47.54 47.58 44.59 41.40 38.99 39.52 38.36 38.73 36.52 38.43 41.13 43.04 43.64 44.07 42.37 38.01 37.19 42.85 40.45 39.52 39.32 37.30 36.78 36.29 31.09 26.27
49.55 48.94 48.22 47.54 47.57 48.81 49.18 48.93 48.95 48.74 48.93 48.39 43.93 37.50 50.76 52.73 42.33 39.56 36.40 40.63 43.88 44.87 47.46 46.21 46.01 43.81 40.56 39.83 38.19 38.28 38.23 41.04 44.07 45.75 41.58 42.96 37.79 30.88 38.62 43.12 44.51 41.46 38.98 37.84 29.23 30.18 28.37
49.46 48.75 48.13 47.66 47.61 48.29 48.73 48.39 48.21 48.06 48.77 45.26 39.51 42.74 51.38 50.11 37.05 36.00 39.41 41.20 43.67 43.31 43.65 43.85 44.19 45.15 44.01 39.58 36.78 39.10 40.06 45.51 46.29 44.35 42.15 43.20 36.41 29.03 34.04 38.63 40.94 38.70 40.15 40.34 37.28 31.53 29.53
48.88 48.51 47.83 47.61 48.10 48.60 48.39 47.84 47.62 47.87 48.27 46.78 41.45 37.00 44.32 46.30 44.63 39.58 37.43 38.67 40.35 45.70 43.55 45.46 44.88 46.05 43.38 40.50 42.10 40.06 41.82 45.58 46.59 45.60 45.49 44.33 37.61 34.83 30.59 34.74 37.78 35.19 39.16 39.28 37.67 29.11 29.75
48.81 48.22 47.47 47.08 48.14 48.00 47.74 47.38 47.71 47.91 47.34 44.64 40.94 38.17 43.22 37.94 38.84 40.57 39.75 39.60 38.77 39.76 43.85 44.23 41.84 43.68 42.19 37.88 38.52 38.90 42.86 43.77 45.29 44.74 43.54 42.63 35.72 35.63 36.51 37.74 39.99 39.11 39.20 39.44 37.12 36.28 32.01
48.79 47.80 46.98 47.00 47.54 47.67 47.22 46.99 46.90 47.02 47.95 41.85 37.84 40.09 43.28 40.24 41.93 39.59 39.44 37.46 38.54 40.89 41.74 40.90 40.25 43.82 43.09 39.88 40.15 38.74 42.55 41.43 41.60 42.80 40.86 41.72 34.35 35.75 34.03 37.72 37.11 35.50 38.34 37.85 37.66 37.93 37.28
48.84 47.48 46.62 46.58 47.15 47.17 47.01 46.75 46.56 46.92 46.56 39.40 42.58 44.33 43.20 40.68 40.09 38.39 37.66 38.15 39.27 42.66 43.44 44.43 44.76 43.92 41.45 43.69 45.28 43.96 45.40 45.90 44.90 42.57 39.34 38.06 33.81 31.56 30.15 32.91 32.31 28.63 33.68 36.43 37.69 38.91 38.53
47.92 47.04 46.67 46.45 46.63 46.84 46.49 46.22 46.45 46.79 46.23 44.53 42.86 44.11 41.97 36.75 39.06 38.29 39.57 40.31 39.95 41.80 40.31 43.72 43.81 42.80 45.90 47.95 46.28 45.52 43.83 44.62 45.64 44.19 42.79 34.92 32.75 29.76 26.91 27.35 20.77 36.07 39.35 39.18 37.17 36.75 37.51
47.06 46.53 46.48 46.21 46.38 46.08 45.81 46.10 46.25 46.49 46.31 42.43 45.44 43.14 42.49 35.25 39.91 40.61 39.77 40.02 41.52 43.10 42.03 42.53 45.91 46.54 49.51 45.23 39.01 37.06 33.47 36.16 37.52 41.58 42.27 40.76 32.84 29.06 26.24 26.09 31.24 35.63 37.27 37.48 35.66 34.19 38.87
46.18 45.98 46.04 45.86 45.74 45.40 45.37 45.96 46.05 46.22 45.67 43.48 44.71 45.54 43.11 40.10 39.60 43.67 41.21 41.45 38.37 38.81 39.49 42.81 47.14 49.88 47.06 38.77 32.43 31.75 30.99 34.77 32.95 36.89 40.21 37.28 34.75 32.74 25.72 23.21 22.54 33.83 38.35 41.52 40.47 29.96 40.46
45.51 45.39 45.27 44.72 44.91 45.13 45.49 45.63 46.42 46.22 45.87 44.59 44.57 49.07 44.23 38.50 43.53 45.39 41.97 40.90 43.17 40.95 38.85 43.12 46.17 45.30 46.28 32.69 30.03 29.48 29.39 38.06 31.74 31.76 30.22 29.80 28.68 27.34 21.74 22.32 28.21 36.35 41.16 40.96 30.52 32.11 40.73
44.35 44.48 43.93 44.60 44.67 44.77 45.05 45.24 45.63 46.26 46.79 44.29 43.29 48.57 44.69 40.03 43.33 47.85 47.30 43.14 44.32 43.15 38.56 42.13 45.10 43.94 35.64 35.49 33.57 30.32 29.18 34.13 32.15 35.26 32.88 32.72 29.06 25.81 25.24 21.68 25.16 40.44 40.21 34.23 36.55 39.14 41.34
43.75 43.96 44.19 44.11 44.17 44.78 45.29 45.72 45.91 45.83 46.39 45.10 43.83 49.28 49.23 43.27 42.99 47.02 46.75 47.88 47.13 47.53 45.74 44.98 44.19 44.92 44.14 39.02 36.00 35.12 30.35 29.40 32.52 29.75 38.35 32.21 33.76 31.55 32.98 31.95 39.06 40.51 39.71 40.96 41.82 41.10 40.94

GFSGBSN_sfc_wetblb_036.txt.gz
Wetbulb
54.89 54.88 55.94 56.17 56.45 56.26 55.69 56.64 56.79 56.92 57.10 58.32 58.60 58.33 58.25 58.38 57.96 57.40 56.54 55.81 55.57 54.90 54.68 54.64 54.88 55.38 49.90 41.28 44.25 56.39 61.76 61.27 56.02 51.41 47.22 46.42 45.25 44.06 39.97 40.27 40.27 39.72 42.40 44.16 45.96 50.27 49.71
54.93 55.00 54.71 55.30 55.83 55.54 55.29 55.79 55.77 56.22 56.44 56.55 58.05 58.20 57.87 57.68 57.38 57.19 56.48 55.61 54.86 54.66 54.37 54.53 55.05 54.38 46.21 37.00 52.45 56.00 55.73 52.12 51.18 47.59 46.68 46.84 46.86 47.36 44.25 42.53 42.48 44.58 45.24 47.21 49.59 49.49 50.95
53.92 54.38 54.96 53.76 54.62 55.42 55.41 55.27 55.40 55.46 55.86 56.36 56.81 58.05 57.70 57.43 57.01 56.67 56.09 55.39 54.45 54.41 54.33 54.55 54.64 51.15 45.67 41.82 52.74 50.72 53.32 50.50 50.23 48.54 47.31 49.28 49.58 46.07 45.68 43.06 46.67 45.63 43.76 46.95 47.97 49.38 49.11
54.08 53.94 54.19 54.78 53.66 53.41 54.82 54.86 54.87 55.44 55.70 56.26 56.85 57.32 57.35 56.71 56.21 55.83 55.24 54.55 54.11 54.51 54.43 54.68 53.86 47.43 43.80 51.29 52.00 53.68 51.84 51.50 51.52 49.69 48.83 49.96 49.46 47.14 45.02 46.31 44.38 40.61 40.58 38.71 46.37 48.02 48.08
54.72 53.40 53.86 53.95 54.25 54.26 53.23 54.59 54.87 55.13 55.39 55.45 56.13 56.51 56.81 56.29 55.57 54.92 54.53 53.90 53.86 54.53 54.57 54.29 48.48 45.73 42.24 53.31 50.33 53.86 53.83 52.02 50.79 49.40 49.22 52.00 48.40 44.26 44.27 39.64 37.55 38.01 32.82 37.01 43.05 47.86 46.88
53.27 54.79 53.14 53.56 53.67 53.88 54.14 52.77 54.42 54.39 54.78 54.66 55.10 55.65 56.29 56.31 55.28 54.23 53.27 53.56 53.29 52.55 52.71 52.55 50.57 40.93 43.85 46.48 51.80 52.65 52.32 52.28 50.12 49.44 47.95 46.29 43.01 39.69 38.85 37.78 32.61 33.62 34.32 34.10 35.15 40.46 44.66
52.43 53.48 54.09 53.56 53.28 53.69 53.44 54.23 52.85 53.98 54.11 54.66 54.92 55.26 55.61 56.37 55.47 53.80 51.08 48.70 45.32 45.81 47.69 45.45 42.09 40.10 44.02 50.51 52.71 49.87 50.98 50.24 49.32 47.25 41.44 43.82 39.16 35.57 38.26 40.19 41.49 39.92 37.48 36.44 37.81 42.28 41.85
51.23 51.98 52.84 52.85 53.57 53.39 53.46 53.60 53.25 53.20 53.55 54.17 54.68 55.14 55.51 56.23 55.26 53.39 50.07 45.06 47.90 47.70 42.61 47.80 48.17 46.57 49.17 51.64 48.84 49.30 50.89 46.35 45.61 41.06 43.01 40.52 36.85 41.80 43.42 42.57 42.05 40.53 38.19 37.57 40.81 41.33 40.83
50.88 50.80 50.98 51.65 52.12 53.32 53.33 53.20 52.92 52.93 53.22 53.31 53.43 54.09 55.00 55.59 53.68 51.39 47.42 47.66 52.87 52.07 41.13 44.43 48.44 47.87 49.51 51.51 47.54 47.77 48.78 45.98 43.02 40.84 41.00 37.82 40.14 44.73 43.44 41.07 40.37 38.72 37.23 38.15 38.21 40.69 38.60
50.20 50.03 50.25 50.99 51.39 52.06 53.06 52.54 52.64 52.40 52.54 52.77 52.75 53.00 53.69 53.46 50.46 48.49 46.84 52.30 53.35 51.20 36.64 40.61 45.63 48.66 50.39 50.63 45.45 50.56 49.42 47.43 43.27 41.23 41.24 39.59 43.49 42.83 40.81 39.98 40.96 35.62 41.72 40.22 39.35 36.35 31.75
50.23 49.93 49.82 49.95 50.52 51.08 51.80 51.96 52.13 52.29 52.00 52.81 52.19 52.73 53.22 53.51 49.37 47.89 51.65 52.56 51.68 49.76 24.86 41.13 46.59 53.24 50.17 45.70 45.53 46.26 49.10 46.95 42.47 42.79 41.84 40.06 40.37 40.80 39.13 40.75 42.47 39.83 42.54 40.67 39.56 35.98 34.27
50.26 50.12 49.93 49.87 49.37 49.61 50.58 51.53 51.30 51.41 51.52 51.68 52.17 52.57 53.07 52.63 51.03 49.15 52.10 53.42 52.23 37.14 24.56 38.54 46.61 44.62 42.79 44.02 44.13 44.62 46.16 48.15 46.09 43.31 41.68 40.71 43.70 42.31 41.67 43.38 43.41 43.80 40.67 38.86 37.86 35.52 29.02
49.97 50.11 49.91 49.61 49.40 49.28 50.16 51.23 51.03 50.88 51.05 51.22 51.88 52.30 53.06 53.45 49.33 50.76 53.31 51.32 40.58 28.92 39.81 39.03 42.04 42.95 40.78 40.37 41.61 42.16 41.86 41.12 38.75 35.24 34.89 38.91 40.57 42.37 44.69 40.02 41.98 39.94 35.67 28.44 27.22 27.23 27.16
50.17 50.10 49.84 49.62 49.45 48.99 49.51 50.49 50.79 50.38 50.95 50.85 51.43 51.16 52.43 53.26 52.64 50.00 53.73 46.04 32.55 36.70 37.58 44.12 42.30 41.47 38.42 40.75 40.34 41.11 39.14 37.45 38.96 38.81 34.99 33.82 32.31 40.98 44.09 41.72 38.81 37.69 36.36 28.77 25.10 23.90 28.37
50.46 50.38 49.96 49.62 49.24 49.04 49.02 49.89 50.54 50.30 50.57 50.26 50.63 46.51 49.18 52.77 53.90 51.18 47.96 36.77 33.46 36.81 42.41 39.92 40.45 37.60 37.05 39.60 39.69 38.76 37.84 37.01 40.04 40.68 35.98 33.03 34.34 41.51 43.64 43.83 41.97 38.19 34.21 38.04 31.53 30.34 28.58
50.17 50.07 49.92 49.72 49.23 48.77 48.51 49.06 49.85 50.27 49.95 49.83 46.03 45.37 43.45 53.13 54.00 48.92 42.07 37.75 41.25 42.96 46.25 43.99 36.30 39.07 34.95 36.84 37.16 37.18 36.27 39.72 39.48 42.32 42.19 39.46 32.96 39.84 42.18 43.95 43.12 40.08 41.68 32.84 31.52 26.91 25.50
49.94 49.69 49.80 49.73 48.90 48.44 48.07 48.39 49.38 50.05 49.66 49.92 45.34 39.94 43.60 52.66 52.57 44.96 34.53 37.09 42.07 46.60 46.25 42.81 40.33 38.26 38.21 36.87 37.43 35.48 37.17 39.42 41.47 40.54 41.86 39.78 36.28 35.27 41.31 39.01 38.17 37.56 35.58 34.84 34.81 30.37 26.16
49.40 49.46 49.19 49.41 49.04 48.54 48.12 48.13 49.16 49.84 49.31 47.51 43.51 33.41 48.57 52.10 41.71 42.28 38.34 38.80 43.21 44.80 46.54 44.55 44.05 43.01 39.68 38.55 36.71 36.72 37.07 40.37 42.70 43.48 39.43 41.22 36.62 29.28 36.76 41.12 42.08 39.71 37.77 36.21 28.90 29.25 27.68
48.95 49.15 48.95 49.38 49.37 48.46 47.84 47.81 48.92 49.37 49.06 44.79 39.16 38.69 50.32 48.41 35.74 36.31 40.79 39.68 41.94 43.03 42.85 42.60 42.30 43.83 43.00 38.54 34.62 37.84 38.54 42.36 44.04 42.72 40.72 41.87 34.63 28.32 32.77 36.68 39.14 37.50 38.76 38.14 35.28 30.81 28.95
47.99 48.82 49.08 49.26 49.37 48.38 47.78 47.73 48.52 48.98 48.95 45.24 40.17 32.84 42.79 44.25 43.36 37.79 37.22 37.32 37.12 44.21 42.61 43.64 42.88 44.43 41.79 39.39 39.54 37.21 38.62 44.07 44.71 43.74 45.12 43.78 36.34 33.71 30.13 33.86 36.52 34.13 37.69 37.71 36.13 28.56 29.36
47.37 47.60 47.97 49.00 49.07 48.23 47.75 47.82 48.37 48.77 48.33 44.23 40.65 34.50 41.00 34.60 37.18 38.96 38.94 38.31 36.63 37.63 43.15 43.71 40.63 42.25 40.52 37.05 36.66 37.51 40.81 42.18 42.93 44.41 41.86 41.15 34.37 35.04 35.60 37.08 37.60 37.23 37.50 36.93 35.52 34.85 31.70
47.20 47.45 47.61 48.26 48.75 47.93 47.66 47.57 48.22 47.66 47.99 41.12 36.94 36.74 41.11 38.16 38.86 38.49 39.41 37.10 36.94 38.91 41.10 39.10 39.26 41.40 42.12 39.15 39.11 37.45 41.17 40.28 40.11 41.24 40.19 39.67 34.31 34.11 32.93 35.90 35.89 34.87 36.26 36.10 36.39 35.89 35.32
47.30 47.41 47.57 48.11 48.36 47.72 47.63 47.61 47.51 46.97 46.97 39.67 40.68 41.35 41.56 38.12 37.83 36.16 36.10 37.68 38.04 40.89 42.56 43.65 42.22 41.00 39.55 42.48 45.14 44.25 44.21 43.63 42.10 40.34 38.24 36.51 33.36 31.09 30.03 32.09 32.66 29.01 32.95 35.97 35.72 36.83 37.45
47.18 47.51 47.71 47.85 47.84 47.65 47.48 47.61 47.33 46.94 45.92 39.76 41.00 43.04 39.52 34.74 37.75 36.55 37.36 39.19 39.27 40.67 39.39 43.38 44.18 41.44 43.04 47.29 46.14 44.53 42.86 43.08 43.56 42.37 41.32 33.64 32.36 30.40 26.32 26.89 21.19 35.20 37.55 37.60 36.35 36.37 36.90
47.30 47.27 47.42 48.04 47.62 47.53 47.38 47.13 46.86 47.04 46.58 39.83 42.13 41.29 40.19 34.00 38.16 39.66 38.79 37.64 40.58 41.86 40.99 42.54 44.19 45.29 48.30 46.07 40.27 36.93 33.57 34.27 35.80 39.50 38.53 38.21 32.42 28.74 27.17 25.71 30.20 34.22 36.31 35.94 35.05 34.47 37.92
47.07 47.20 47.31 47.47 47.04 47.22 46.74 46.77 46.41 46.69 47.01 41.35 42.73 45.44 42.37 37.92 36.46 40.80 40.19 39.24 36.74 37.40 37.67 40.13 46.14 47.89 46.72 41.01 34.51 32.04 31.34 34.03 32.60 35.97 38.64 36.56 33.83 31.88 24.49 23.53 22.26 33.16 37.87 39.63 38.76 29.86 38.91
46.83 46.82 47.45 47.20 46.83 46.72 46.40 46.19 46.16 46.25 46.98 41.82 40.26 42.85 42.68 36.09 41.85 42.28 38.99 38.50 41.48 39.45 35.75 39.17 42.51 43.62 44.89 29.37 28.61 28.67 31.70 37.33 32.34 33.43 31.85 29.95 28.38 27.25 21.22 22.08 29.04 36.60 38.58 39.66 30.25 32.09 39.23
46.45 47.13 46.76 46.35 46.32 46.37 46.15 45.89 45.95 46.05 46.54 42.20 38.96 44.09 42.83 38.63 39.97 43.91 45.98 40.97 41.55 41.34 36.45 39.87 43.11 42.14 34.97 35.05 32.82 31.41 26.87 33.27 32.25 35.49 34.49 34.38 30.26 26.01 24.74 21.88 26.78 38.94 38.38 34.09 36.89 37.53 39.49
46.09 45.89 45.84 45.67 45.75 45.74 45.56 45.42 45.66 45.98 46.11 43.40 38.64 44.17 45.63 42.67 42.04 46.51 45.58 45.94 45.08 44.94 42.65 41.95 40.97 42.30 41.86 38.20 33.57 33.47 29.02 27.55 32.40 29.98 37.10 33.25 35.85 32.58 33.74 33.05 39.00 39.43 38.49 39.91 39.87 39.87 39.96

GFSGBSN_sfc_wetblb_039.txt.gz
Wetbulb
54.32 54.47 54.48 54.79 55.05 55.61 54.74 55.47 55.73 55.77 56.03 56.31 56.48 57.43 59.03 59.37 58.94 57.76 56.78 56.07 56.11 55.77 55.26 55.04 55.50 55.60 51.85 45.22 44.02 58.98 61.62 61.13 57.83 53.47 49.95 49.07 48.81 48.25 45.33 45.35 44.80 43.66 45.42 47.12 49.27 52.02 51.90
54.20 54.18 54.42 54.04 54.74 54.36 54.84 54.54 55.15 55.21 55.34 55.22 55.97 56.32 57.62 58.78 58.40 57.69 56.84 56.03 55.56 55.26 54.89 54.85 55.29 54.72 48.64 41.25 55.02 58.34 56.63 54.52 53.81 51.58 49.70 50.01 49.97 50.36 47.64 46.93 45.44 47.38 47.47 50.32 51.41 51.96 52.61
55.21 54.68 54.55 54.52 54.73 54.56 53.91 54.71 54.16 53.96 54.92 55.12 55.69 56.19 56.35 57.99 58.03 57.42 56.82 55.88 55.24 54.85 54.81 54.83 54.98 51.51 47.21 44.54 54.95 55.76 54.75 53.18 52.67 51.69 49.96 51.07 52.23 49.94 49.57 47.36 48.82 48.27 47.14 49.54 50.86 51.59 51.47
53.05 53.89 55.05 54.18 54.11 54.08 53.78 53.60 53.74 53.44 54.53 54.96 55.46 55.22 55.62 56.30 57.14 56.82 56.08 55.15 54.71 54.83 54.75 54.81 54.10 50.14 44.85 52.19 53.75 54.49 54.05 54.06 53.20 52.63 51.30 52.12 52.39 50.42 49.28 50.00 47.36 43.98 44.65 41.84 48.96 50.74 50.55
51.81 52.27 53.35 54.56 53.90 53.56 53.53 53.94 52.85 53.39 54.61 54.53 54.95 54.69 54.89 55.20 55.90 55.84 55.11 54.49 54.28 54.59 54.57 54.32 49.94 49.33 43.52 53.08 50.26 53.97 55.37 53.64 52.33 51.49 51.52 52.02 52.11 48.42 48.36 44.94 42.96 42.55 39.41 41.30 46.18 51.10 49.65
51.77 51.73 52.39 53.29 53.51 53.88 53.60 53.46 53.68 53.02 53.30 53.98 54.24 54.32 54.46 54.57 55.16 55.26 53.66 53.67 53.67 52.93 53.13 52.85 50.81 45.11 46.46 47.79 52.44 54.50 55.03 54.40 52.45 51.81 50.55 49.90 47.51 45.64 44.65 43.73 37.93 39.62 40.44 41.51 41.48 45.54 48.51
51.07 51.74 51.70 51.56 52.67 52.96 54.10 53.68 53.53 53.50 52.87 53.53 53.81 54.26 54.59 54.85 55.03 54.48 52.33 50.13 46.37 46.51 49.06 47.23 46.38 43.68 43.63 51.15 54.29 51.94 53.35 52.29 52.32 50.63 46.08 47.62 44.80 41.76 43.16 44.39 43.88 43.49 42.30 40.96 43.16 45.79 46.13
51.78 51.73 51.82 51.60 51.49 52.12 52.77 53.83 53.31 53.09 52.92 52.99 53.48 53.73 53.91 54.71 55.30 53.54 51.73 47.06 47.75 49.30 43.67 49.05 48.71 47.48 48.97 52.59 48.74 51.66 53.17 49.27 48.95 44.94 46.61 44.96 42.35 45.10 45.06 44.82 44.45 43.71 41.79 41.28 43.41 44.15 44.05
50.94 51.27 51.47 51.49 51.59 51.31 51.89 52.60 53.04 52.72 52.72 52.51 52.82 52.76 52.74 53.37 54.07 52.38 49.91 48.37 53.03 52.99 44.04 45.58 48.20 47.79 49.11 51.30 48.04 49.13 50.55 48.61 46.27 43.69 44.45 42.75 44.04 46.81 44.93 43.69 42.70 42.56 41.89 40.96 41.43 43.15 43.26
50.71 50.62 50.96 51.25 51.30 51.39 50.81 51.67 52.16 52.58 52.38 51.91 52.09 52.20 51.68 53.56 51.28 50.62 48.21 52.65 53.32 52.59 37.82 40.58 44.57 48.20 50.46 51.34 47.11 52.44 50.92 49.72 46.67 43.74 43.61 44.03 45.95 45.19 44.35 43.16 43.70 40.61 44.41 43.17 41.88 40.75 37.55
50.84 50.75 50.75 50.73 50.68 50.39 50.26 50.50 51.85 52.27 52.10 51.97 51.46 52.20 51.52 53.30 49.68 47.80 51.32 52.87 52.69 50.45 26.89 42.38 46.51 53.45 50.90 47.28 47.67 47.71 50.42 49.71 45.20 44.72 45.26 43.50 43.89 43.73 42.57 43.56 44.88 43.23 44.90 43.71 42.98 40.47 39.82
50.55 50.65 50.46 50.73 50.43 50.20 49.95 49.75 50.73 51.57 51.82 51.51 51.30 51.99 51.47 51.67 51.61 51.01 52.78 54.38 52.55 39.15 26.84 38.78 46.66 45.45 45.21 45.35 45.85 46.69 48.19 50.47 48.94 45.61 45.26 44.49 46.94 46.02 45.61 45.70 45.56 46.16 43.88 41.57 41.49 40.63 35.84
50.51 50.53 50.50 50.40 50.46 50.12 50.16 49.69 49.54 50.49 51.20 51.46 51.05 51.26 51.43 53.15 48.83 52.14 54.38 51.57 38.55 32.01 40.92 38.31 42.21 43.54 42.44 41.67 42.94 44.33 43.87 44.11 42.44 38.63 39.21 42.28 43.83 46.41 46.90 44.33 45.51 44.19 41.14 36.01 33.73 34.47 34.00
50.43 50.43 50.60 50.55 50.26 50.21 49.97 49.80 49.11 49.52 50.73 50.96 50.69 50.58 50.93 51.09 54.04 52.70 53.20 43.69 32.25 36.78 38.04 44.01 43.79 42.06 39.70 41.93 42.29 42.34 41.58 41.08 43.06 41.63 38.27 37.48 35.96 43.64 46.67 45.60 43.43 41.99 41.74 36.43 28.80 30.31 33.97
50.52 50.45 50.47 50.48 50.39 50.12 49.97 49.68 49.21 49.23 50.48 50.54 50.21 48.39 47.52 49.52 52.53 51.76 47.02 35.01 34.95 38.09 41.75 40.95 42.23 38.90 38.63 40.86 41.46 41.44 40.93 41.35 43.04 43.55 39.52 36.97 37.41 44.79 46.31 46.74 45.92 41.71 39.54 41.78 35.64 34.15 34.64
50.71 50.54 50.29 50.33 50.19 50.00 49.85 49.65 49.13 49.22 50.10 50.41 45.79 45.03 44.63 50.45 53.11 49.70 42.18 36.54 39.47 42.74 45.78 45.17 37.81 40.81 36.20 38.23 39.39 39.96 38.85 42.14 41.95 44.09 46.41 42.88 37.33 42.70 44.84 47.14 46.21 44.19 44.52 38.25 37.38 30.71 28.86
50.39 50.31 50.15 49.98 49.92 49.82 49.60 49.53 49.11 49.08 49.85 50.00 44.40 38.86 44.60 50.14 52.10 44.73 35.75 37.45 40.86 45.34 46.96 43.43 41.67 40.75 39.60 38.24 39.88 37.87 39.17 41.97 43.54 42.48 44.87 43.08 41.20 39.08 44.36 42.84 41.84 41.46 40.62 38.84 39.60 36.57 32.45
49.87 49.77 49.97 49.77 49.77 49.77 49.69 49.29 48.87 48.91 48.99 47.69 41.90 32.85 44.91 49.46 38.80 40.71 37.05 40.05 42.61 43.14 46.62 45.27 45.41 43.92 41.75 40.25 38.22 38.85 39.54 42.81 43.57 44.51 41.96 44.66 41.13 36.35 39.87 44.05 44.98 43.58 42.56 41.47 37.34 33.84 33.61
48.01 48.22 49.29 49.54 49.88 49.56 49.68 49.17 48.58 48.66 48.91 44.54 37.65 37.53 45.64 45.96 33.42 35.02 39.72 39.70 41.57 41.46 43.21 43.78 43.16 44.71 45.53 41.19 37.86 39.72 40.10 44.09 43.97 44.17 43.21 43.96 38.76 34.51 36.84 40.56 42.80 42.20 42.13 40.68 38.52 37.03 33.56
47.44 47.80 48.16 48.54 48.98 49.76 49.61 48.96 48.31 48.22 49.07 44.48 38.98 32.47 39.67 41.48 41.03 37.01 36.57 36.66 37.58 43.19 42.50 44.87 43.96 45.43 44.33 42.22 41.70 39.10 39.93 44.10 44.59 45.11 44.57 45.80 39.73 37.81 34.25 37.93 41.04 38.88 40.21 40.63 40.93 35.60 36.23
46.69 47.21 47.45 48.03 48.84 48.81 49.46 48.76 48.02 48.22 48.46 43.93 39.88 35.00 39.44 32.31 34.82 36.60 38.39 37.56 36.70 36.92 42.80 44.31 41.88 43.13 42.14 38.60 40.00 38.85 42.01 44.26 45.11 45.07 44.95 45.06 38.45 38.68 39.10 40.01 40.33 40.28 40.61 39.78 39.18 40.11 38.27
46.91 46.66 46.79 47.32 48.03 48.51 49.56 48.48 47.73 48.00 48.38 41.81 36.23 36.24 39.60 38.66 37.12 36.11 37.73 36.30 36.39 38.48 39.91 39.75 40.06 42.28 43.03 40.92 41.47 39.36 43.06 42.92 42.80 43.06 42.98 42.49 38.69 38.20 36.79 38.87 39.65 38.97 39.96 40.28 40.16 39.36 39.39
46.62 46.59 46.71 47.05 47.37 48.33 49.02 48.14 47.65 47.77 47.09 40.32 42.10 40.26 39.40 37.73 36.42 33.57 34.50 36.82 37.70 40.64 41.55 42.88 42.45 41.71 40.38 42.56 45.91 45.96 46.51 46.71 45.93 43.82 41.08 40.33 37.43 35.98 33.97 35.51 37.16 33.63 37.66 39.85 39.86 40.85 41.96
46.67 46.59 46.75 46.87 47.42 47.64 47.77 47.75 47.50 47.90 46.73 43.34 41.48 41.23 37.16 32.13 36.18 34.42 36.07 38.61 38.35 39.95 38.82 42.16 44.08 41.01 44.20 48.18 47.53 46.73 44.85 44.52 44.51 43.32 44.10 37.77 37.59 35.58 32.43 32.15 29.58 40.36 41.12 41.82 41.15 41.66 41.90
46.27 46.35 46.78 46.81 47.06 46.76 47.58 47.43 47.34 47.80 47.62 42.27 42.34 41.57 38.98 32.94 37.33 37.35 37.53 37.00 40.62 41.61 40.51 42.01 44.51 46.44 47.81 47.20 40.78 38.93 37.09 38.27 38.93 40.68 40.80 40.79 36.74 32.10 32.36 32.23 35.45 37.89 39.58 39.84 39.13 40.62 42.89
46.93 46.09 46.22 46.82 46.87 46.14 47.71 47.15 47.04 47.67 47.69 43.90 42.88 44.30 41.89 35.82 36.15 40.57 38.34 38.63 36.63 37.81 38.64 41.07 46.60 48.66 46.23 40.75 36.90 34.42 34.11 36.55 35.22 37.62 39.41 37.49 38.21 38.54 30.03 31.06 29.72 39.25 41.86 42.74 43.17 35.65 43.13
45.85 46.11 46.63 46.77 46.49 46.25 47.25 46.81 47.01 47.41 47.27 43.42 41.96 44.73 43.00 36.63 39.75 41.39 39.18 38.25 41.00 39.69 37.45 39.78 42.11 43.05 45.39 35.21 34.21 33.67 35.18 39.20 34.93 34.40 34.02 34.76 33.57 33.82 28.86 33.67 35.15 40.66 41.72 43.48 35.65 39.54 43.08
46.50 46.72 46.67 46.54 46.42 47.09 46.78 46.78 46.98 47.13 46.74 43.21 40.40 44.28 41.74 37.96 39.06 42.38 41.83 41.47 41.22 40.63 35.97 39.91 40.50 41.48 38.22 35.41 35.47 35.46 33.90 37.00 37.06 38.19 36.54 36.46 34.28 33.52 31.09 32.66 32.92 41.99 40.49 39.19 44.29 43.11 43.72
46.46 46.34 46.48 46.73 46.85 46.57 46.30 46.62 46.89 46.63 46.39 44.07 38.14 44.70 45.14 40.07 39.70 45.61 46.15 46.09 44.67 45.89 42.23 43.02 40.65 41.52 41.53 39.43 36.91 35.41 34.65 33.39 36.26 35.02 38.83 37.14 39.63 37.74 38.83 39.38 44.60 42.72 45.57 44.96 43.97 44.82 43.61

GFSGBSN_sfc_wetblb_042.txt.gz
Wetbulb
55.36 54.98 54.55 54.39 54.56 54.71 54.49 54.66 55.46 55.31 55.49 55.54 55.34 55.81 56.07 57.05 58.96 58.83 57.71 56.89 56.79 56.75 56.27 55.73 55.82 56.02 55.53 50.32 48.33 60.85 62.44 61.93 59.24 57.43 53.62 52.97 52.48 51.63 48.56 49.88 50.04 48.46 50.11 51.54 52.88 52.53 55.07
54.00 54.67 54.98 54.75 54.43 54.17 54.60 54.68 54.69 54.52 54.34 54.98 55.15 55.53 56.28 56.96 57.58 58.50 57.86 56.98 56.24 56.12 56.00 55.58 55.53 55.17 52.50 45.76 56.86 60.72 59.52 58.11 57.17 55.58 53.12 53.86 52.99 53.60 51.29 50.61 49.61 51.19 51.01 53.91 53.69 53.75 54.91
52.67 53.24 54.19 55.13 54.52 54.29 54.36 54.23 54.05 53.07 54.20 53.57 54.78 55.27 55.45 55.76 56.46 57.32 57.74 56.94 55.95 55.69 55.79 55.50 55.22 54.28 50.68 49.30 56.73 60.61 57.93 56.41 56.62 55.22 52.55 54.16 55.21 53.36 53.13 50.41 52.16 51.67 49.31 52.86 53.44 54.48 54.27
52.46 52.54 52.59 53.30 53.75 54.55 53.95 53.71 53.79 54.10 53.33 54.11 54.68 54.68 54.64 54.78 55.33 55.71 56.45 56.29 55.51 55.53 55.43 55.33 54.83 53.49 48.98 54.57 57.29 57.07 58.65 56.92 56.69 56.49 54.49 55.42 55.19 53.93 52.60 53.45 51.06 48.95 49.11 44.77 50.90 53.95 54.30
51.36 51.73 52.33 52.58 52.27 53.25 54.01 53.66 53.46 53.64 53.81 53.46 53.97 54.08 54.07 53.78 54.23 54.76 55.51 55.53 55.11 54.96 54.52 54.28 53.04 52.18 47.64 54.69 52.42 55.25 58.67 55.08 57.21 56.04 55.64 54.20 54.73 53.13 52.49 48.52 46.47 48.13 43.62 44.38 46.92 54.24 53.06
52.29 52.31 52.50 52.53 52.74 52.50 53.15 53.80 53.50 53.27 53.33 53.30 53.30 53.63 53.70 53.89 54.13 54.36 54.45 54.08 55.53 53.44 54.58 54.93 53.46 48.41 51.55 48.15 53.96 57.30 57.62 56.43 54.97 55.02 53.35 52.95 53.05 50.29 49.43 46.72 40.61 42.71 43.60 45.71 45.56 50.45 52.46
51.21 52.62 52.81 52.61 52.38 52.17 51.49 53.01 53.56 53.25 53.11 53.24 53.06 53.34 53.36 53.97 54.44 54.63 55.50 57.83 53.44 50.84 51.78 50.83 50.68 49.40 46.77 53.19 57.16 55.93 57.94 56.18 55.31 53.54 49.40 52.40 48.66 45.20 46.45 47.25 47.74 46.84 45.15 44.50 47.07 49.62 48.23
51.81 51.70 51.61 52.09 52.21 51.62 51.01 51.13 52.22 53.31 53.11 53.05 52.64 52.56 53.07 52.94 53.35 54.53 56.28 53.48 52.59 52.53 46.95 52.52 51.80 51.72 53.47 53.51 50.72 54.37 56.93 52.61 51.59 48.15 50.84 48.90 46.10 48.75 49.11 48.79 47.47 47.01 45.29 44.68 47.37 48.13 47.62
51.31 51.50 51.69 51.83 51.90 51.96 51.72 51.51 50.98 52.34 53.02 52.61 52.28 52.16 52.65 52.10 54.06 54.07 55.43 54.90 57.06 56.22 48.26 49.35 51.59 50.11 51.04 52.18 49.51 51.41 54.20 52.80 49.88 48.01 48.62 46.92 47.98 49.75 48.44 47.59 46.20 46.89 45.41 44.86 44.73 47.35 47.91
51.23 51.12 51.23 51.65 51.90 51.84 51.90 51.95 51.17 51.36 52.00 52.48 51.79 51.86 51.92 51.95 51.05 55.40 53.16 56.32 57.29 56.56 43.48 44.09 46.03 49.94 51.70 52.26 48.19 54.37 55.34 52.49 49.66 47.38 48.48 48.32 50.20 47.99 47.84 46.43 47.82 43.90 47.91 46.64 46.06 45.08 41.56
51.14 51.23 51.04 51.40 51.31 51.16 50.97 51.27 51.33 50.79 50.92 52.12 51.85 51.65 51.56 51.45 51.30 52.83 55.05 58.28 57.54 54.88 30.74 45.34 47.53 54.84 52.77 48.97 49.07 50.94 55.51 52.45 47.88 47.56 48.36 46.42 47.56 47.36 45.93 46.89 48.72 45.62 48.29 47.18 46.84 45.61 44.41
51.11 51.15 51.25 51.25 51.17 50.83 50.93 50.77 50.76 50.47 50.55 51.44 51.78 51.50 51.37 51.22 50.40 55.02 57.28 58.39 55.66 42.61 30.55 41.42 48.84 47.22 46.57 48.74 48.67 51.01 50.69 53.28 52.59 48.96 49.64 48.57 50.80 49.75 48.39 49.26 49.37 49.46 47.47 46.77 47.20 46.14 39.34
50.86 50.86 51.01 51.00 50.89 50.56 50.78 50.73 50.39 50.34 50.15 51.19 51.31 51.25 50.76 52.55 48.29 56.95 57.86 54.75 41.18 34.13 43.08 40.53 44.46 47.08 45.73 44.57 46.44 47.97 47.19 46.85 44.81 42.10 43.10 46.97 47.49 49.89 49.93 47.30 49.29 48.41 45.60 39.49 37.49 38.03 37.32
50.74 50.69 50.92 51.01 50.92 50.73 50.63 50.59 50.27 50.04 49.86 50.70 51.06 50.66 50.32 51.47 53.19 56.58 54.00 45.83 32.99 37.72 40.07 45.21 45.64 46.23 42.98 44.72 45.83 46.79 45.92 44.31 47.66 46.52 43.99 41.48 39.46 46.58 49.81 48.29 45.99 46.61 46.06 40.29 31.57 34.09 38.53
50.99 50.87 50.82 50.82 50.87 50.84 50.69 50.53 50.24 50.02 49.65 50.03 50.43 49.07 47.65 50.00 53.44 52.83 47.76 36.84 35.51 39.51 43.69 42.71 43.87 42.60 42.22 43.36 44.77 45.47 45.43 44.76 47.01 47.89 42.53 41.59 41.31 48.35 49.46 50.14 49.45 45.82 43.08 46.98 40.84 40.91 38.83
51.16 50.91 50.81 50.56 50.53 50.58 50.72 50.43 50.24 50.11 49.61 49.53 47.86 44.65 45.06 50.53 53.27 47.55 41.64 37.13 39.46 44.48 45.92 46.01 39.70 44.35 40.07 40.71 41.78 43.53 44.22 47.11 46.30 48.56 49.89 46.22 41.02 46.75 48.40 50.38 49.54 47.74 49.11 41.61 43.21 33.54 31.97
50.88 50.83 50.73 50.42 50.23 50.15 50.31 50.41 50.00 49.95 49.49 49.45 46.76 39.12 47.04 51.10 50.76 41.28 35.04 38.88 41.26 46.73 47.95 45.49 43.66 41.93 43.44 41.53 41.90 42.88 43.64 45.58 48.61 48.01 49.74 48.07 45.34 43.74 47.62 46.13 45.56 45.74 44.56 44.84 44.52 42.41 35.78
48.65 49.49 50.32 50.20 50.38 50.22 50.16 50.17 49.98 49.75 49.05 48.36 43.01 34.27 48.56 50.95 36.13 37.84 36.30 41.90 43.08 44.55 48.63 47.17 47.47 46.51 44.26 43.89 41.39 42.22 43.00 45.75 49.34 49.73 45.39 48.67 45.89 41.44 43.47 47.97 48.86 47.94 46.09 46.28 40.51 38.46 41.10
47.91 48.34 48.67 49.63 49.92 49.95 49.96 50.08 49.87 49.47 49.14 46.49 37.61 39.04 48.24 47.68 30.40 32.64 39.43 40.78 43.38 43.70 44.89 45.99 45.26 47.57 48.00 44.84 40.87 44.06 45.00 49.26 49.26 48.89 46.96 48.35 44.12 39.07 40.36 43.78 46.62 44.98 46.54 46.53 45.74 43.75 40.55
47.40 47.37 47.89 48.36 49.01 49.92 49.93 49.93 49.80 49.34 49.09 46.61 38.67 32.43 39.86 41.01 42.66 37.67 36.62 38.70 38.63 44.84 44.39 47.01 46.34 47.63 46.68 44.53 45.96 42.90 44.34 46.56 48.62 49.49 47.08 49.01 45.91 42.32 38.03 41.38 44.86 42.76 44.67 46.10 45.30 41.09 41.35
47.16 47.19 47.33 47.50 47.97 48.52 49.62 49.93 49.77 49.11 48.84 45.89 39.16 35.60 38.76 32.71 35.63 38.87 39.84 39.31 38.08 38.75 44.56 46.54 45.29 45.80 45.26 41.70 43.11 42.68 44.17 45.79 46.78 46.21 48.48 48.73 42.74 44.54 44.36 44.64 44.68 44.07 43.80 45.24 43.95 44.91 41.77
46.62 46.60 47.18 47.21 47.37 47.74 48.38 49.32 49.51 48.95 48.55 42.62 35.20 38.58 42.16 38.38 38.65 37.53 39.13 37.64 37.94 40.23 41.86 41.17 42.80 45.52 46.09 43.34 43.71 42.15 44.40 45.10 45.55 47.53 47.40 48.78 42.83 44.65 41.79 44.56 44.22 42.71 44.65 44.97 45.53 45.50 45.45
46.29 46.29 46.56 46.95 47.33 47.64 47.88 47.74 49.36 48.48 47.80 40.63 42.56 45.44 42.96 38.49 37.72 35.75 37.72 37.73 38.96 41.94 43.37 44.56 44.71 43.62 43.31 45.36 47.95 47.44 47.80 47.57 47.60 47.34 46.49 46.23 44.31 41.43 37.80 42.94 42.67 38.09 42.92 44.72 45.72 47.16 46.70
46.77 47.21 46.93 46.86 47.13 47.42 47.74 47.77 48.33 48.34 47.35 45.59 45.01 44.50 39.79 35.57 37.53 36.12 37.34 39.02 38.95 41.09 40.79 43.87 45.78 44.10 46.82 50.29 49.29 48.84 48.04 47.49 48.36 47.63 49.62 45.38 44.17 43.51 39.40 37.28 32.87 43.85 47.61 48.37 46.51 47.35 48.81
46.42 46.23 46.54 46.91 46.87 47.01 47.15 47.34 47.50 48.04 47.66 45.79 46.64 43.74 40.95 36.74 39.04 37.97 37.72 38.23 40.48 42.27 42.20 43.42 46.44 48.46 50.53 46.79 41.12 37.52 37.61 41.10 43.91 46.82 47.15 48.80 45.50 40.21 38.22 36.90 41.52 42.21 43.62 44.72 44.71 45.46 49.50
45.79 47.62 47.16 46.60 46.42 46.69 46.74 46.89 47.03 47.74 47.37 45.43 47.51 48.52 45.54 39.85 38.34 41.17 38.05 39.23 38.33 39.60 40.87 43.83 47.87 52.31 49.73 44.61 41.68 35.08 31.98 35.62 38.94 40.90 43.76 44.71 45.34 44.39 37.17 35.83 34.00 43.62 48.23 49.57 48.26 42.02 50.05
45.42 46.48 46.44 46.32 46.47 46.62 46.39 46.46 47.31 47.38 47.24 45.30 46.45 49.87 45.99 39.75 42.96 43.32 39.55 39.03 42.47 42.34 41.01 43.24 45.14 45.91 48.97 42.20 39.17 37.24 35.96 41.20 36.51 38.11 37.03 38.79 39.54 39.26 39.32 38.99 42.26 47.06 47.55 48.78 40.27 44.05 50.03
44.95 46.10 46.00 46.07 46.22 46.12 46.15 46.31 47.31 47.00 47.05 45.07 44.47 49.80 46.10 42.17 43.07 43.73 44.40 42.56 43.06 43.63 39.99 43.98 43.51 44.92 44.39 39.80 39.53 39.99 39.87 41.06 40.50 43.44 40.80 39.40 38.97 38.63 40.66 38.43 36.48 47.24 45.62 44.71 50.61 50.46 51.17
45.93 45.74 45.74 45.77 45.99 45.75 45.98 46.93 46.99 46.77 47.13 45.88 41.59 48.27 49.72 44.60 40.86 46.26 44.84 46.83 45.96 48.08 46.29 46.77 43.85 44.32 45.67 42.32 44.21 44.42 41.95 40.22 42.29 37.92 44.85 38.96 44.50 43.74 43.40 43.82 50.96 49.13 51.42 51.88 53.21 52.11 50.70

GFSGBSN_sfc_wetblb_045.txt.gz
Wetbulb
53.57 53.97 54.67 55.52 55.11 54.65 54.81 55.20 55.22 54.94 55.12 55.15 55.26 55.22 54.99 55.31 56.36 57.83 58.05 57.82 57.85 57.68 57.24 56.81 56.48 56.16 56.72 53.09 52.80 63.27 63.29 61.82 58.59 58.39 55.68 54.90 53.28 53.12 49.86 49.89 51.35 50.30 51.28 52.92 54.14 53.62 55.67
52.93 53.35 53.32 54.04 54.95 54.95 54.51 55.05 55.11 54.52 53.99 54.49 54.52 54.99 55.27 55.22 55.54 56.64 57.09 57.42 57.46 57.13 56.83 56.58 56.21 55.50 54.82 48.92 56.70 61.32 61.69 58.85 58.05 56.91 55.90 55.49 54.51 54.84 52.68 51.18 50.25 52.41 51.82 53.49 54.24 54.63 55.87
52.79 52.96 52.98 53.57 53.98 53.98 54.58 54.63 54.15 54.06 53.93 53.77 54.14 54.53 54.58 55.00 55.12 55.34 56.26 56.48 56.96 56.74 56.62 56.39 55.86 56.09 52.17 51.87 57.54 61.10 59.50 57.65 57.94 57.32 55.05 56.51 56.54 54.48 54.45 51.20 53.25 52.11 49.70 52.86 51.91 53.77 53.52
52.16 51.87 52.30 53.29 53.25 53.42 53.54 54.00 54.51 54.05 54.02 54.15 53.97 53.98 54.09 54.34 54.07 54.26 54.85 55.29 56.12 56.78 56.22 55.47 55.43 56.18 50.66 57.30 57.68 58.39 59.77 57.06 57.69 58.33 56.62 57.45 57.38 55.12 54.03 54.57 52.03 49.38 50.30 45.33 51.44 53.94 55.04
52.76 52.73 52.14 52.82 52.61 53.16 52.87 52.92 53.71 54.29 53.88 53.74 53.57 53.40 53.57 53.54 53.66 53.85 54.48 54.99 55.86 56.44 55.03 54.63 55.43 54.33 50.09 56.21 52.50 55.38 60.41 55.79 56.42 56.65 57.24 56.46 56.29 53.75 53.92 49.08 47.22 48.65 44.46 45.43 47.32 53.09 53.82
51.97 52.42 53.26 53.40 52.78 52.76 53.08 52.69 52.88 53.83 54.18 53.53 53.40 53.24 53.02 53.16 53.44 53.65 54.09 54.85 56.77 54.25 55.64 57.60 56.42 51.22 53.85 50.47 52.53 53.72 59.66 57.93 55.98 55.74 54.66 54.63 53.56 50.63 50.26 47.54 41.60 43.54 44.20 46.43 46.07 46.69 51.72
51.27 52.18 52.47 52.68 53.13 52.93 52.04 52.46 52.33 52.70 53.44 53.83 53.25 53.17 52.90 53.06 53.37 52.99 55.18 58.11 54.55 53.56 54.62 50.32 52.57 51.01 49.36 53.43 57.28 55.14 56.96 56.22 56.24 54.40 49.65 53.20 49.29 46.77 48.41 48.96 48.01 47.54 46.42 45.73 47.76 50.40 48.31
52.00 52.06 52.26 52.12 52.33 51.81 52.36 52.69 52.10 51.70 52.41 53.21 53.34 52.69 52.63 52.78 52.84 53.32 56.32 53.29 54.17 54.96 48.34 53.67 53.33 53.11 55.45 54.58 51.36 53.17 58.11 52.48 52.53 49.02 51.47 50.51 47.00 50.44 50.22 49.41 47.63 47.50 45.79 45.64 47.94 49.52 48.81
51.86 51.84 52.32 52.39 52.25 52.61 51.95 52.15 52.39 51.86 51.25 52.67 53.11 52.70 52.33 52.33 52.90 53.62 55.06 54.94 59.22 58.61 48.32 48.55 52.39 52.22 52.43 54.07 50.00 51.04 54.88 53.11 51.02 49.17 49.60 47.54 49.57 51.31 48.63 47.54 46.85 47.32 46.29 45.80 45.55 49.06 50.00
51.30 51.38 51.65 51.80 52.15 52.30 52.22 52.41 52.16 52.01 51.30 51.78 52.22 52.32 51.76 51.86 48.93 53.59 53.23 57.93 59.47 58.44 43.09 44.55 49.12 51.76 52.95 53.13 49.17 54.24 55.51 53.48 51.34 48.25 49.37 48.76 51.56 49.00 48.15 47.37 48.16 44.96 49.14 47.38 46.80 45.97 41.80
51.44 51.36 51.59 51.70 51.72 51.46 51.59 51.65 51.63 51.69 51.63 51.08 51.64 51.81 51.32 51.29 50.24 53.23 57.13 59.69 60.06 57.30 30.58 46.84 49.25 55.65 53.48 49.84 50.53 50.96 55.31 52.73 48.87 48.74 49.61 47.14 48.66 48.28 46.95 47.76 49.54 46.72 49.61 48.19 47.94 46.58 46.12
51.26 51.55 51.53 51.65 51.42 51.36 51.20 51.20 51.15 51.27 51.27 50.87 51.04 51.83 51.36 50.02 50.88 53.76 59.48 59.86 57.79 41.89 31.33 43.43 49.92 48.22 48.79 49.67 49.88 52.00 51.25 53.76 53.09 49.58 50.03 49.25 52.47 50.79 49.70 50.33 50.09 50.93 48.68 48.35 48.55 46.77 40.33
50.95 51.30 51.39 51.49 51.35 51.26 51.43 51.14 51.11 51.05 51.03 50.94 50.69 51.58 51.32 51.93 48.25 55.02 56.09 54.35 40.34 33.38 43.74 41.89 45.07 48.31 47.86 47.06 47.68 49.23 47.65 46.80 45.23 42.89 44.13 47.08 48.28 50.72 51.22 47.87 50.51 49.25 46.62 39.79 38.52 38.90 38.10
50.98 50.94 51.10 51.23 51.23 51.22 51.22 51.16 50.97 50.82 50.64 50.67 50.42 50.90 50.02 52.17 54.33 52.85 51.55 45.54 32.67 38.24 40.02 46.75 46.21 48.20 45.10 47.42 47.35 47.74 47.17 44.59 47.93 47.66 45.41 42.65 40.78 48.04 50.85 48.63 47.07 47.33 46.91 41.37 32.10 36.05 39.11
50.92 51.00 51.12 51.08 51.22 51.12 51.12 51.08 50.77 50.50 50.37 50.32 50.24 49.97 49.34 51.42 54.02 51.71 43.70 34.88 36.63 39.41 43.21 42.98 45.02 44.08 44.87 46.33 46.51 46.55 45.89 45.02 46.57 48.76 43.76 43.35 43.05 49.68 50.24 50.76 50.22 47.36 44.34 49.31 42.10 44.05 39.96
50.82 51.06 51.11 50.92 50.94 50.90 50.75 50.90 50.84 50.63 50.38 49.87 46.85 46.27 46.66 50.45 53.83 49.58 38.43 35.91 39.85 43.74 44.00 45.03 40.22 45.13 43.13 44.35 43.69 45.23 44.88 47.35 46.42 49.14 50.93 47.37 42.18 47.93 49.29 51.37 51.25 49.00 50.71 43.11 44.20 35.29 33.73
50.42 50.35 50.81 50.71 50.65 50.53 50.71 50.78 50.68 50.55 50.21 49.88 45.99 40.04 48.09 51.53 50.27 42.18 32.32 37.82 42.44 45.22 45.87 43.57 43.52 42.64 45.20 45.12 44.47 44.05 44.48 47.12 48.53 48.60 50.37 48.94 46.14 45.35 49.12 46.85 46.14 46.78 46.01 46.65 45.90 43.22 36.89
49.36 49.97 49.81 50.49 50.46 50.57 50.56 50.49 50.54 50.35 49.76 47.88 42.86 34.89 48.71 50.50 36.36 38.54 34.22 39.87 43.41 44.21 46.48 45.24 47.11 46.44 45.04 46.85 44.68 43.76 43.58 46.03 49.16 49.93 46.67 49.21 47.09 42.63 44.86 50.14 50.92 49.16 47.26 47.16 41.51 40.18 42.96
49.39 49.67 50.07 49.60 49.51 49.80 50.38 50.42 50.29 50.13 49.74 45.70 38.63 39.71 49.48 48.27 31.18 35.71 38.73 39.79 43.03 43.25 43.94 44.20 45.45 47.93 49.31 46.29 43.44 45.49 45.89 49.33 50.74 49.06 47.91 49.21 44.81 40.40 42.10 46.35 49.00 46.61 48.28 48.19 47.92 46.61 41.75
49.20 49.00 48.86 48.96 48.89 49.08 49.90 50.19 50.09 50.10 50.01 46.23 39.23 33.05 39.58 42.20 42.59 38.96 36.49 37.22 37.97 44.31 44.29 45.13 45.99 47.81 47.05 46.36 48.26 45.21 45.32 47.96 50.93 49.16 48.34 49.96 46.36 43.27 39.89 43.29 46.37 43.78 45.48 46.97 46.27 42.32 41.90
47.38 47.65 47.78 47.88 47.89 48.24 48.70 49.30 49.91 50.07 49.56 45.76 39.48 36.60 39.74 32.35 36.43 39.95 39.98 38.86 37.59 38.01 44.37 45.48 43.86 45.45 44.34 42.79 44.55 44.26 46.47 47.41 47.36 48.23 48.83 49.18 43.20 45.02 45.60 46.75 46.37 45.77 45.47 45.80 44.60 45.23 42.20
47.27 47.01 46.93 47.05 47.28 47.63 47.73 48.43 49.02 49.73 49.55 43.17 34.73 39.12 41.50 40.41 39.80 38.90 38.96 37.39 37.82 39.93 41.55 41.27 42.04 45.00 46.48 43.90 45.13 43.48 45.58 45.60 44.59 47.72 47.27 49.66 43.68 45.11 42.93 46.24 45.84 43.58 45.08 45.34 45.45 45.84 45.58
46.42 46.49 46.56 46.59 47.13 47.63 47.64 47.55 48.17 48.94 48.81 41.89 41.82 45.53 42.22 39.11 38.19 38.17 38.86 38.58 38.32 41.57 43.60 44.67 44.14 43.49 44.29 46.46 50.05 49.44 49.41 48.84 48.21 47.48 46.35 46.84 45.58 42.77 39.60 44.65 44.37 40.28 43.86 44.83 45.68 46.95 46.93
46.58 46.54 46.47 46.50 46.81 47.23 47.60 47.53 47.66 48.56 48.65 42.81 44.26 45.76 41.17 36.26 37.84 38.52 39.65 40.41 39.46 41.24 41.49 44.40 45.75 44.55 47.75 52.26 51.16 50.64 48.35 46.69 47.94 48.01 49.24 46.77 45.15 44.35 40.04 39.87 33.27 43.98 48.94 48.34 46.43 47.28 48.52
46.00 46.07 46.56 46.79 46.58 46.59 47.06 47.16 47.28 47.93 49.38 44.35 47.45 45.98 42.29 37.48 39.80 39.11 40.16 40.51 41.28 42.53 41.76 43.71 46.62 48.99 50.65 49.15 43.66 39.96 39.70 40.06 42.38 45.75 46.37 47.95 46.94 42.41 39.03 38.63 41.59 44.07 46.60 46.67 45.63 45.44 49.36
46.96 47.38 47.45 47.02 46.48 46.29 46.38 46.89 47.08 47.54 47.34 45.62 47.64 50.25 46.43 40.07 38.28 42.28 39.69 41.46 38.74 40.26 40.88 43.77 48.53 51.64 50.78 45.54 41.53 35.11 32.61 37.03 36.50 40.30 46.81 47.69 47.93 44.49 41.02 36.17 33.57 43.89 48.40 51.06 50.22 42.52 50.31
47.03 46.99 46.99 46.97 46.94 46.73 46.32 46.80 47.09 47.05 47.42 46.05 46.96 51.67 45.88 40.58 43.21 43.29 40.41 40.43 43.10 42.51 41.16 42.42 45.82 47.58 50.46 43.48 38.69 36.98 35.71 40.38 35.79 37.02 37.63 39.50 41.01 40.25 40.49 38.83 42.60 48.23 49.58 51.56 41.59 43.65 51.75
46.07 46.04 46.14 46.07 46.27 46.32 46.41 46.56 46.77 46.76 47.35 45.88 44.57 50.62 47.15 42.70 43.24 45.03 46.25 42.81 43.65 44.51 40.66 43.40 43.74 44.86 45.19 40.18 39.65 39.37 39.94 41.32 40.15 40.47 40.93 39.54 39.19 39.80 41.84 39.16 36.77 50.31 49.09 45.23 50.45 54.29 53.91
45.72 45.77 46.50 46.92 46.59 45.85 46.23 46.42 46.73 46.52 47.03 46.86 43.38 49.34 51.65 45.08 41.46 47.55 48.62 49.57 48.22 47.62 46.05 46.05 44.92 45.44 46.27 43.16 43.79 42.55 42.85 46.00 41.06 36.72 44.31 39.04 44.30 42.89 44.22 44.39 51.70 51.33 51.93 53.23 54.46 53.78 54.69

GFSGBSN_sfc_wetblb_048.txt.gz
Wetbulb
53.72 53.73 53.67 53.77 54.05 54.81 55.82 55.37 55.51 55.14 54.69 54.30 53.83 54.54 54.74 54.87 54.90 55.66 55.90 56.42 57.10 58.10 58.16 58.01 57.87 57.63 55.82 52.99 53.40 61.36 63.39 60.96 57.23 55.96 54.86 53.31 52.19 51.30 49.29 50.77 50.36 49.00 50.08 51.56 53.70 53.53 52.66
52.99 53.31 53.51 53.52 53.59 53.49 53.99 55.07 55.50 54.59 54.28 54.08 53.98 52.76 54.24 55.07 54.86 55.20 55.03 55.35 55.93 56.84 57.66 57.87 57.66 56.46 54.60 47.48 58.31 61.66 62.35 59.39 56.36 55.31 54.79 54.95 53.42 54.55 51.72 51.08 49.52 50.92 51.19 50.77 53.99 53.06 54.10
52.81 52.81 52.96 53.64 53.94 53.49 53.18 54.20 54.05 54.75 54.48 53.90 54.06 53.86 53.85 54.28 54.70 54.75 54.56 54.56 55.10 55.67 57.12 57.42 56.86 56.16 52.57 50.94 58.07 57.95 59.90 58.46 56.44 55.82 54.08 55.99 55.88 53.54 53.29 51.12 53.08 51.41 47.57 49.80 52.23 53.21 52.47
52.47 53.09 53.12 53.28 53.37 53.43 53.81 53.52 53.91 53.78 54.31 54.53 54.03 53.61 52.73 53.37 53.83 54.13 53.94 54.07 54.72 55.57 56.86 57.14 56.01 54.89 49.48 58.47 59.29 57.75 59.01 57.66 57.25 57.10 56.74 57.35 57.02 54.22 52.50 53.74 51.46 48.36 48.12 44.38 50.60 52.76 53.05
52.20 52.70 52.74 53.48 53.39 53.17 53.22 53.46 53.15 53.43 53.98 54.46 54.43 53.41 53.09 52.24 52.62 53.29 53.41 53.61 54.23 55.79 56.80 56.09 54.24 54.07 49.17 56.97 54.78 55.91 57.82 55.41 55.08 55.99 57.04 56.78 55.19 52.11 51.97 48.24 45.83 47.15 42.17 45.04 47.55 52.35 51.96
51.86 52.65 52.96 53.11 53.04 53.21 53.20 53.27 53.25 53.05 53.15 53.94 53.97 53.81 53.08 52.85 52.74 52.69 52.63 52.02 54.43 55.87 56.50 57.67 56.16 50.16 52.89 51.19 54.63 54.63 56.33 57.83 53.86 53.92 53.06 52.80 51.31 48.25 48.17 45.81 39.76 42.67 43.54 45.33 45.68 49.73 50.02
51.46 51.68 52.49 52.77 52.90 53.16 52.07 53.13 52.95 52.67 52.75 53.31 53.39 53.61 53.33 52.93 52.69 52.56 51.70 54.48 52.27 53.22 55.01 50.99 50.17 49.12 50.74 55.78 56.11 51.80 53.92 56.02 54.62 52.22 47.31 50.63 46.64 44.19 46.93 48.74 47.79 46.08 44.92 45.12 48.01 50.82 49.54
51.36 51.70 51.41 51.70 52.61 52.80 51.85 52.18 52.00 52.81 52.55 52.27 52.77 52.85 53.41 52.90 52.47 52.62 51.83 50.92 51.50 54.95 46.94 51.62 52.10 53.13 54.46 56.09 50.66 52.62 53.81 51.57 50.31 47.18 49.59 47.93 45.42 49.68 50.79 50.06 47.77 46.17 44.36 44.72 47.41 50.50 48.33
51.58 51.83 52.12 51.75 51.91 52.43 52.41 52.48 52.32 51.67 52.66 52.23 51.69 52.79 53.06 52.38 52.56 50.68 49.44 52.10 57.69 57.78 47.22 47.10 49.05 48.77 50.66 52.70 50.28 51.14 52.96 51.28 48.30 46.79 47.87 45.69 48.36 51.95 49.59 47.84 45.75 45.70 44.52 45.15 45.68 48.58 49.64
51.52 51.44 51.77 51.64 52.15 52.04 52.14 52.23 52.25 52.15 52.02 52.25 51.56 52.17 51.82 51.75 48.22 51.68 49.12 55.94 57.44 58.69 41.51 41.18 45.46 49.71 50.26 51.58 47.09 53.73 54.24 51.67 48.84 46.16 47.95 47.75 50.83 49.60 48.44 45.75 46.54 43.11 48.10 47.44 46.26 44.73 40.29
51.17 51.31 51.27 51.52 51.73 51.71 51.86 51.90 52.25 52.06 51.92 52.04 51.71 52.01 51.47 51.09 49.63 49.85 54.00 56.34 58.67 56.68 26.87 44.80 47.59 55.77 53.29 48.84 49.62 49.72 54.24 52.40 47.21 47.27 48.32 46.22 47.90 47.42 46.71 46.63 48.69 45.67 49.95 48.29 47.15 44.79 44.34
50.77 51.06 51.11 51.59 51.71 51.63 51.66 51.61 51.61 51.80 51.62 51.56 51.65 51.60 50.97 49.24 49.95 51.44 54.61 55.35 56.56 39.85 28.60 42.05 49.83 47.89 47.83 49.19 48.76 50.99 50.31 53.12 52.18 48.18 48.86 47.76 51.67 50.02 49.40 50.02 49.86 50.37 48.21 47.93 47.40 45.19 38.60
50.34 50.61 51.15 51.24 51.44 51.64 51.76 51.58 51.43 51.43 51.53 51.42 51.34 51.17 50.53 49.55 46.34 53.89 55.17 50.22 38.24 31.41 42.09 39.67 44.64 48.09 46.51 46.46 46.47 47.76 47.03 46.03 44.70 41.30 42.49 46.03 46.87 50.33 51.14 47.47 49.72 48.27 45.39 38.59 37.07 37.44 36.98
50.18 50.32 50.89 51.30 51.26 51.39 51.47 51.58 51.35 51.13 51.31 51.41 50.95 50.61 50.01 49.20 52.24 52.31 50.27 43.27 30.48 37.20 38.87 46.88 45.87 47.18 44.43 46.82 46.96 46.85 45.84 43.61 47.67 45.93 43.00 40.59 39.37 46.71 50.50 47.75 46.19 46.21 45.16 40.15 32.27 33.06 37.35
50.00 50.25 50.65 50.83 51.22 51.31 51.39 51.50 51.32 51.15 51.05 50.96 50.54 49.38 47.97 50.38 52.89 51.50 43.17 32.88 33.77 37.75 42.32 40.84 44.25 42.59 44.07 46.55 46.53 45.80 45.63 44.90 46.70 47.30 41.85 40.72 41.68 49.01 49.91 50.14 48.97 46.30 42.90 48.15 41.27 41.57 38.22
49.99 50.02 50.18 50.20 50.52 50.85 51.10 51.19 51.19 51.19 51.01 50.68 47.66 45.42 45.87 52.12 52.21 47.75 38.29 33.14 36.97 42.02 43.61 43.13 38.18 42.26 41.21 44.54 44.13 44.53 44.60 47.92 47.09 48.92 49.19 45.75 41.67 47.84 48.87 50.27 49.98 47.42 49.72 42.22 43.45 34.49 32.79
49.46 49.65 49.84 50.04 50.32 50.46 50.84 51.02 51.13 51.09 50.64 50.56 45.74 39.64 47.16 50.62 51.87 41.98 32.13 34.35 38.70 43.83 44.53 41.58 40.01 40.19 41.74 42.15 45.43 43.50 44.43 47.47 49.45 48.65 48.77 47.14 44.85 44.68 47.95 45.43 44.29 45.66 44.84 46.07 46.04 42.89 36.07
48.74 48.91 49.20 49.51 49.89 50.47 50.78 50.93 50.92 50.91 50.39 48.84 42.95 34.73 48.75 50.63 36.91 37.97 34.39 38.31 41.33 41.03 44.30 43.71 43.91 42.11 42.46 44.26 43.32 44.57 43.48 47.03 50.58 49.91 45.09 47.59 46.35 41.05 43.81 48.62 50.06 48.73 46.50 46.93 40.78 38.95 42.86
48.37 48.57 48.92 49.50 49.59 49.69 49.82 50.55 50.62 50.58 50.34 46.28 38.83 38.62 47.76 47.99 30.24 32.65 37.85 37.26 40.00 40.02 40.74 42.40 42.15 43.89 45.09 43.90 42.02 45.83 46.77 49.93 50.81 49.02 47.23 47.62 43.21 37.97 41.02 46.02 48.70 45.70 47.43 47.37 47.44 46.14 41.32
47.81 48.06 48.68 49.02 49.39 49.44 49.92 50.24 50.42 50.51 50.50 46.78 38.91 32.32 39.90 41.86 41.55 36.86 35.39 36.32 35.81 41.64 41.18 42.74 43.24 44.55 43.40 43.75 46.67 44.46 45.84 48.90 51.65 49.57 47.27 49.22 44.94 41.45 37.42 42.21 46.08 43.73 45.79 47.30 46.14 39.94 40.32
47.82 48.52 48.45 48.95 49.15 49.78 50.02 49.73 50.37 50.45 50.22 46.35 39.31 35.56 39.20 32.46 34.66 37.99 38.44 37.92 36.13 35.68 40.80 42.48 41.82 42.65 41.98 40.22 42.78 43.10 46.91 47.16 48.85 49.12 49.68 49.01 42.77 44.11 44.40 45.55 46.38 45.53 45.19 45.30 43.94 44.69 41.47
47.97 47.42 47.30 47.56 48.76 48.65 48.96 49.01 49.24 49.72 50.20 44.12 33.84 37.59 41.50 39.00 38.22 37.09 37.83 36.88 36.42 38.36 38.79 38.18 40.23 42.77 43.59 41.52 43.27 41.46 45.56 46.35 45.66 48.23 47.29 48.56 42.42 43.93 41.27 44.96 45.06 43.85 45.75 45.62 45.23 45.34 45.13
46.99 47.16 47.18 47.44 47.47 47.72 48.09 48.38 48.30 48.66 49.45 43.26 41.16 44.34 41.80 38.34 37.34 35.77 35.96 37.61 38.07 40.42 41.72 42.07 42.44 42.55 42.54 44.47 46.99 48.05 49.34 49.10 49.55 47.72 46.27 45.92 44.80 40.87 36.51 43.44 42.86 37.71 44.45 45.39 45.71 46.46 46.07
46.24 46.37 46.61 46.64 46.81 47.26 47.42 47.34 47.50 47.94 48.44 42.35 41.42 43.75 39.03 34.65 37.30 36.73 38.29 39.17 38.83 40.51 39.23 42.18 43.94 42.34 46.97 50.58 49.75 49.17 49.15 47.99 47.93 48.69 48.88 45.19 43.91 42.59 35.51 38.27 31.37 43.44 48.90 48.13 46.01 46.42 47.53
46.02 46.47 46.80 46.70 46.52 46.64 46.83 47.00 47.19 47.39 47.96 43.78 44.82 42.99 39.66 36.47 39.13 38.67 38.75 39.32 40.80 42.36 41.05 42.00 44.27 46.69 49.75 47.98 40.92 37.24 38.82 41.29 43.15 47.22 46.57 47.24 45.15 40.97 35.85 34.63 40.62 43.32 46.29 45.64 44.65 44.14 48.50
46.41 46.83 47.36 46.85 46.47 46.42 46.30 46.57 46.94 47.28 47.63 45.25 42.42 46.63 43.05 38.46 38.02 41.57 39.05 40.55 37.68 39.03 40.48 42.28 46.61 49.72 47.92 44.33 39.26 33.10 31.38 37.33 37.56 40.88 46.84 45.81 46.40 41.39 40.00 33.06 30.77 42.81 47.89 50.02 49.53 39.75 49.66
46.78 46.78 46.92 46.73 46.33 46.19 46.28 46.24 46.62 47.13 47.65 46.12 41.99 45.82 44.33 39.01 43.02 43.47 39.86 39.75 42.92 41.37 39.92 42.28 43.58 44.46 47.10 42.33 36.90 33.52 33.41 40.71 35.44 36.59 37.64 38.92 39.02 37.58 37.74 36.32 41.02 47.16 48.86 50.19 39.30 41.27 51.38
46.60 46.65 46.78 46.53 46.72 46.11 46.44 46.46 46.43 46.82 47.34 45.67 43.14 47.49 44.86 41.46 43.74 44.82 44.46 41.40 42.47 43.27 38.83 43.17 42.93 44.33 39.99 38.06 38.88 37.82 37.34 39.33 37.74 40.65 39.23 37.28 36.51 36.86 39.12 36.58 34.15 50.18 48.48 43.41 48.49 52.70 53.92
46.27 46.00 46.21 46.32 46.72 46.71 46.69 46.25 46.42 46.72 47.22 46.12 40.60 47.23 48.71 44.32 42.96 47.40 47.41 48.83 47.17 46.98 44.92 44.63 43.88 43.53 44.52 40.77 41.96 42.44 41.46 41.62 39.74 34.19 44.13 36.94 40.39 39.33 42.05 42.26 49.75 50.72 49.45 52.19 53.72 54.26 54.23

GFSGBSN_sfc_wetblb_051.txt.gz
Wetbulb
53.30 53.66 53.57 53.85 53.81 54.03 54.05 54.58 55.45 55.62 54.79 53.55 52.96 53.29 54.03 54.23 55.05 55.22 54.88 54.50 54.57 55.62 56.53 57.59 58.42 58.62 53.89 49.61 51.23 59.63 62.07 61.05 56.51 54.38 52.02 50.14 48.67 47.13 44.24 46.03 47.49 44.70 46.58 49.14 49.15 50.82 50.44
53.30 53.12 53.10 53.34 53.35 53.82 53.97 53.89 54.71 54.46 54.46 54.40 53.85 52.61 52.58 53.81 54.06 54.47 54.63 54.24 54.11 54.36 55.52 56.73 58.06 57.17 52.22 45.42 56.65 60.15 59.80 57.46 54.42 51.86 50.83 51.62 50.16 50.88 48.47 47.99 45.84 48.17 47.38 47.07 48.39 49.51 51.47
52.46 53.03 53.43 53.89 53.77 53.61 53.53 54.18 54.21 54.39 53.85 54.13 54.17 54.10 52.47 52.38 53.23 53.57 54.04 53.73 53.64 53.85 54.81 56.15 56.97 55.68 50.63 48.68 56.17 55.46 58.17 57.08 54.89 52.85 50.50 52.64 52.74 49.00 49.36 46.99 51.08 49.51 45.23 46.06 46.31 49.04 48.51
52.48 52.78 52.63 53.22 53.67 53.49 53.33 53.63 54.00 53.76 53.76 53.82 54.19 54.06 53.55 52.50 52.28 52.87 53.13 52.82 53.09 53.46 54.18 55.88 56.57 52.59 46.39 56.40 56.55 55.97 56.29 54.50 56.65 54.40 53.42 54.13 54.00 50.76 49.21 49.76 48.31 44.97 44.23 38.61 45.39 49.64 50.66
52.19 52.13 52.37 53.13 53.01 52.93 53.14 53.36 53.28 53.69 53.63 53.39 54.08 53.69 53.64 53.19 52.64 52.51 52.46 52.63 52.65 53.32 54.14 55.60 51.89 49.52 47.05 57.04 53.46 55.73 53.96 53.56 55.39 54.12 53.16 55.33 52.34 47.76 47.68 42.52 40.21 41.77 37.27 39.49 43.08 50.04 49.36
51.64 52.20 52.70 52.89 52.89 52.92 53.00 52.98 53.28 53.28 53.48 53.27 53.48 53.62 53.35 53.40 52.86 52.23 51.90 52.01 52.16 53.65 55.13 56.61 54.50 46.72 51.49 48.31 53.58 54.95 54.29 53.53 53.41 51.38 50.55 50.12 46.36 42.47 41.49 38.71 33.89 37.53 39.12 40.01 42.12 46.30 48.90
51.02 51.28 51.52 51.69 52.40 52.16 52.08 52.68 52.65 52.49 52.94 53.15 52.80 53.02 52.82 53.33 53.09 52.28 50.33 47.58 47.76 47.68 51.36 48.89 48.34 46.48 48.19 53.91 55.23 51.30 52.49 51.66 53.25 49.45 43.52 46.38 40.62 37.97 40.48 43.26 44.82 43.70 41.98 39.66 42.86 47.76 46.00
50.64 50.65 50.92 51.23 51.67 52.14 52.18 52.56 52.39 52.07 52.34 53.15 52.59 51.98 52.78 52.90 53.09 52.26 48.90 43.92 48.79 48.56 43.88 51.99 52.86 51.89 51.90 54.79 49.78 51.30 50.90 48.07 48.58 44.46 45.60 43.26 39.79 44.87 47.33 47.19 46.51 45.41 41.09 39.82 46.62 49.58 46.16
51.19 51.59 51.48 51.64 51.70 52.25 52.32 52.64 52.45 52.24 52.36 52.15 52.57 51.94 52.47 52.28 52.36 49.01 45.60 46.08 51.64 49.16 43.47 46.31 49.35 47.50 48.20 50.17 47.67 48.38 48.48 48.57 46.25 44.63 44.61 41.34 44.47 48.44 47.26 46.18 44.77 43.19 40.90 40.67 42.96 45.55 45.15
50.72 51.04 51.53 51.42 51.73 52.03 52.26 52.53 52.42 52.15 52.05 51.97 52.26 51.80 51.56 51.45 46.90 46.19 44.78 52.88 53.37 51.58 38.57 39.26 42.84 46.33 47.86 48.07 45.70 51.82 52.97 48.55 46.30 43.88 45.22 43.93 48.08 46.81 46.64 45.45 45.06 38.99 44.91 46.03 45.11 41.25 34.91
50.22 50.56 50.86 51.41 51.66 51.72 51.74 51.77 52.05 52.20 52.09 51.97 51.74 51.67 51.31 51.34 46.09 44.10 50.01 50.73 51.92 52.71 20.91 40.72 43.98 50.68 48.38 44.48 46.75 46.31 52.34 49.09 43.98 44.60 44.24 42.82 45.28 45.32 44.41 45.66 46.79 42.51 47.60 46.38 44.99 40.40 38.29
49.70 50.07 50.55 51.09 51.20 51.12 51.33 51.42 51.69 51.77 51.99 52.00 51.62 51.70 51.04 47.88 47.17 47.51 50.27 50.57 51.08 37.03 26.82 39.22 47.50 46.28 44.72 44.16 45.65 47.78 46.82 49.86 49.74 45.24 45.28 44.72 48.75 47.25 46.08 48.49 48.06 48.20 46.63 44.97 43.40 40.02 31.66
49.63 50.03 50.29 50.52 50.72 51.04 51.23 51.35 51.34 51.42 51.52 51.65 51.73 51.70 49.92 48.10 41.67 49.31 51.00 47.88 35.77 28.04 39.97 36.91 43.56 46.17 44.80 43.20 43.06 44.65 43.64 42.10 40.07 38.11 38.47 43.50 44.64 47.96 48.44 44.59 47.00 44.80 40.00 32.41 31.40 29.74 29.25
49.29 49.44 49.72 50.24 50.58 50.81 51.02 51.24 51.22 51.26 51.32 51.21 51.28 51.13 50.00 48.01 47.44 47.66 48.16 41.33 29.01 33.77 34.64 43.35 42.75 45.61 42.28 44.51 44.51 44.36 42.81 40.02 43.49 42.61 38.98 36.54 34.92 44.26 47.93 45.79 42.45 42.68 40.55 32.93 27.93 27.33 33.38
49.01 49.32 49.66 49.77 50.25 50.47 50.87 51.18 51.22 51.04 50.95 51.01 50.86 48.41 46.83 47.05 47.47 48.58 42.35 31.77 28.93 33.99 39.09 37.42 39.64 38.14 41.36 44.60 44.35 43.40 41.89 40.99 43.84 44.13 38.30 37.22 38.05 46.53 47.25 48.44 46.07 42.16 38.45 43.86 38.82 38.73 34.12
48.76 48.87 49.00 49.18 49.48 49.90 50.50 50.82 51.12 50.91 50.85 50.70 46.78 45.07 44.00 48.49 47.74 45.91 37.47 32.57 34.92 39.65 40.14 39.63 34.00 38.86 36.17 40.49 42.02 41.47 41.11 44.90 44.22 46.08 46.84 42.55 37.45 45.20 46.61 48.03 47.37 44.61 45.94 37.26 39.12 30.31 30.20
48.10 48.29 48.86 49.09 49.39 49.64 50.08 50.57 50.92 51.11 50.98 50.78 45.58 39.41 45.01 48.82 46.67 39.76 30.41 31.87 35.91 41.28 41.51 37.70 36.47 35.93 37.54 36.99 39.77 40.29 41.78 45.24 46.20 45.72 47.00 44.44 41.12 40.55 45.23 43.96 42.67 41.98 41.02 42.25 41.50 37.62 29.63
47.85 48.12 48.20 48.34 48.93 49.41 49.94 50.21 50.73 51.07 50.83 48.95 43.53 34.09 45.24 47.46 35.78 36.05 31.15 34.63 39.22 38.16 41.44 39.22 40.21 38.95 37.59 38.63 37.53 38.15 40.85 44.76 48.04 47.39 43.50 45.27 41.93 35.56 39.48 46.59 48.29 45.48 42.54 42.43 34.81 35.06 36.51
47.28 47.38 47.59 48.03 48.60 48.97 49.16 49.71 50.17 50.64 50.79 46.65 39.33 38.48 46.25 44.85 29.85 31.73 34.68 34.92 37.57 36.83 37.92 38.37 37.00 40.44 40.88 37.96 35.05 39.51 43.41 48.54 49.33 46.81 44.60 44.92 38.72 33.47 35.75 41.55 45.90 43.03 44.15 45.14 43.88 41.90 35.16
47.16 47.21 47.71 48.20 48.44 48.74 48.89 49.31 49.75 50.43 50.68 47.44 38.11 32.05 39.20 41.28 37.83 33.23 32.06 32.11 32.87 39.32 37.75 39.06 38.61 39.44 37.06 37.61 40.18 37.94 42.12 47.85 49.00 47.13 47.45 46.83 41.16 36.93 32.31 37.60 43.84 41.16 43.24 44.13 42.21 33.87 35.59
46.75 47.17 47.33 47.58 47.99 48.23 48.53 49.09 49.55 49.84 50.22 47.30 38.14 34.16 37.32 32.55 33.77 34.42 34.20 34.22 32.11 32.64 38.39 38.72 36.12 36.69 36.01 33.88 36.95 37.01 42.68 44.19 46.44 47.88 46.44 45.11 37.29 40.55 41.02 42.94 44.35 44.28 43.72 43.39 42.06 42.15 36.92
46.84 47.12 47.24 47.37 47.75 48.33 48.60 48.57 48.91 49.36 49.65 45.17 32.64 35.82 38.09 34.41 37.05 34.83 34.38 32.10 31.79 34.79 35.70 34.98 34.19 36.81 37.60 34.81 37.36 36.40 40.66 41.47 41.32 45.90 44.13 44.96 37.52 40.11 38.56 42.66 43.35 41.41 43.43 43.41 42.88 43.69 43.60
47.23 47.39 47.31 47.77 48.21 48.06 48.32 48.00 48.92 49.21 49.08 44.18 42.28 40.30 38.81 35.64 35.07 33.37 32.51 32.74 34.27 36.68 37.87 39.63 38.07 36.24 35.33 38.12 41.53 44.18 46.22 46.91 46.02 43.26 42.08 42.38 38.62 36.52 32.43 40.61 39.94 33.71 39.50 42.96 43.86 45.31 43.37
46.82 46.91 46.88 47.04 47.32 47.76 47.72 47.67 48.78 49.21 49.11 46.26 42.50 41.54 35.86 33.12 33.27 33.09 34.70 35.53 34.92 37.59 35.39 39.56 40.50 37.10 39.86 45.33 47.04 46.23 45.85 44.41 44.72 45.02 46.88 41.27 39.23 36.30 31.20 35.13 28.23 39.59 45.70 46.13 45.13 45.49 44.85
45.90 46.21 46.52 46.71 46.66 46.90 47.16 47.22 46.79 47.63 49.11 44.82 43.27 41.15 37.68 32.64 34.91 35.20 35.26 35.42 37.03 38.17 37.59 38.65 41.38 42.90 42.69 40.06 37.66 35.35 34.15 37.29 39.33 44.06 44.57 44.53 39.08 33.54 31.79 31.97 36.26 40.69 43.98 43.86 42.38 41.31 45.36
45.86 46.33 46.53 46.47 46.49 46.33 46.36 46.52 47.10 47.44 48.12 46.46 42.22 44.00 41.54 35.18 34.17 38.47 36.09 36.96 33.84 34.31 35.51 37.94 43.47 43.87 41.45 38.04 35.35 29.19 25.80 34.54 34.57 38.55 45.16 44.05 43.29 36.22 31.08 28.80 27.52 37.53 45.13 48.54 46.90 36.57 45.87
46.14 46.57 46.78 46.81 46.33 46.44 46.58 46.40 46.55 47.00 47.51 46.23 43.02 42.78 39.22 34.98 39.63 39.97 35.75 35.65 39.48 37.16 34.99 37.67 39.25 38.39 41.07 32.96 30.33 28.14 29.26 37.52 31.65 32.01 33.99 36.84 34.70 32.90 28.89 27.86 34.29 43.51 47.00 48.64 35.96 36.96 46.86
46.67 46.76 46.62 46.88 46.80 46.90 46.81 46.62 46.36 46.48 46.88 45.19 42.31 43.36 39.61 34.09 40.13 42.21 44.08 39.60 39.95 39.91 34.15 37.11 37.70 37.96 36.45 31.93 30.96 29.73 28.17 35.00 34.84 36.85 33.29 35.11 33.18 30.43 33.98 31.11 29.39 45.17 45.96 40.68 43.18 47.13 48.13
46.27 46.09 46.13 46.27 46.42 46.55 46.78 46.75 46.30 46.45 46.61 46.42 41.16 43.81 44.42 37.64 41.08 46.14 46.45 46.61 45.24 45.52 41.68 40.47 37.76 38.56 38.34 34.18 35.23 34.24 29.54 33.46 33.55 28.08 40.42 34.43 38.00 34.98 36.60 34.95 44.42 45.15 46.13 49.22 49.50 49.25 49.31

GFSGBSN_sfc_wetblb_054.txt.gz
Wetbulb
53.78 53.70 53.52 53.40 53.46 53.59 53.78 54.11 54.72 54.64 54.47 54.34 54.28 54.27 53.58 53.15 53.46 54.12 53.68 53.93 54.36 54.42 54.06 54.27 56.00 56.87 53.95 48.59 49.16 56.87 61.34 60.32 55.90 52.77 50.09 48.57 46.75 45.06 41.76 43.04 45.02 43.65 45.16 47.38 47.52 50.54 49.10
52.70 52.84 53.27 53.65 53.75 53.55 53.33 53.18 54.34 54.18 54.44 54.24 53.91 53.88 54.14 54.24 53.20 53.75 53.64 53.32 53.37 53.68 53.99 54.10 55.21 56.78 50.65 44.26 53.33 56.14 58.09 55.97 52.67 50.00 49.59 49.43 48.41 48.48 45.88 45.35 44.22 46.58 46.96 46.29 45.88 49.24 50.13
52.64 52.94 52.82 53.66 53.80 53.39 53.56 53.98 53.94 53.99 54.08 54.06 54.03 54.05 54.18 54.13 54.13 53.52 53.50 53.20 53.08 53.00 53.76 53.77 54.40 55.30 49.34 46.84 53.74 53.91 57.59 54.90 53.29 51.48 48.81 50.63 50.97 47.66 47.34 45.42 48.84 47.58 43.15 44.61 44.76 47.38 47.50
52.46 52.55 52.42 53.12 53.21 53.32 53.42 53.66 53.40 53.20 53.69 53.89 53.83 53.95 53.72 53.45 53.41 53.29 53.09 52.71 52.63 52.84 53.22 53.90 53.98 53.64 45.34 54.77 53.63 53.75 53.73 52.94 54.64 53.84 52.21 52.02 51.61 49.52 47.29 47.93 46.24 43.48 41.87 36.93 43.22 48.38 48.55
51.63 51.83 52.13 52.96 52.84 52.93 52.90 52.88 53.15 53.54 53.58 53.66 53.52 53.33 53.80 53.08 52.67 52.87 52.69 52.42 52.41 52.93 53.32 54.40 51.85 49.32 44.26 56.37 52.53 54.53 53.66 51.47 53.10 54.07 51.81 53.60 50.04 46.67 46.24 40.59 37.44 39.19 34.93 37.72 41.10 46.59 48.28
51.61 51.63 51.90 52.38 52.61 52.72 52.81 52.94 52.73 53.00 53.08 53.33 53.20 53.16 53.10 53.10 52.46 52.51 52.20 52.08 52.00 52.41 52.21 55.62 54.41 45.33 48.32 45.89 51.95 53.25 52.96 52.76 50.77 51.02 49.10 47.74 45.31 41.45 39.83 36.89 30.99 34.86 35.64 34.62 36.72 45.72 46.21
51.02 51.15 50.85 50.94 51.11 51.33 51.71 52.31 52.79 52.57 52.65 52.69 52.77 53.02 52.69 52.44 52.40 52.47 50.37 46.32 43.42 45.49 49.18 47.73 47.91 45.87 47.11 50.61 54.77 50.84 52.49 50.45 49.35 47.01 41.34 44.98 40.96 36.72 38.76 40.17 41.50 41.32 39.62 38.32 41.74 45.86 46.54
50.13 50.34 50.34 50.80 51.57 51.77 52.09 52.53 52.81 52.67 52.77 52.62 52.54 52.85 52.63 52.31 52.27 52.33 48.94 43.04 44.28 43.29 38.60 47.73 50.42 50.44 51.87 53.16 48.15 50.39 50.88 45.69 46.06 42.31 43.33 41.36 39.42 43.24 44.36 43.91 42.97 42.05 40.03 39.83 42.51 46.86 45.15
49.01 49.44 50.12 50.32 51.02 51.69 51.95 52.30 52.38 52.37 52.64 52.42 52.21 52.23 52.48 51.68 51.64 48.89 45.68 44.71 49.29 48.22 39.92 44.30 48.28 48.66 49.77 51.64 46.77 46.13 48.24 46.23 44.63 42.62 42.06 39.27 42.84 46.02 44.34 42.88 41.85 41.97 40.52 39.54 39.94 44.53 43.10
49.00 49.46 49.87 49.93 50.50 51.03 51.29 51.77 52.12 52.39 52.37 52.23 52.01 51.94 51.62 50.82 46.89 45.67 44.14 49.79 49.54 48.57 36.62 38.64 42.86 45.01 47.58 47.76 43.56 50.34 50.37 45.52 44.56 42.81 43.32 41.74 45.88 44.37 43.42 42.38 43.17 38.76 44.77 42.53 42.57 39.34 33.82
48.63 49.09 50.09 49.66 50.04 50.87 51.57 51.88 52.03 51.98 51.98 51.90 51.79 51.70 51.54 51.00 44.85 43.31 47.48 49.66 51.16 47.16 17.37 38.04 42.89 50.27 47.37 43.01 45.08 44.81 49.38 46.88 42.38 42.84 43.04 41.02 43.38 42.72 41.84 42.96 45.26 41.83 45.65 43.43 43.43 38.72 36.11
48.75 48.99 48.76 49.84 50.67 50.82 51.03 51.30 51.47 51.52 51.68 51.83 51.67 51.94 51.60 47.89 46.21 46.25 48.39 49.21 49.10 36.62 24.10 37.85 45.06 41.95 41.33 42.31 43.41 45.40 45.65 48.54 46.87 42.68 42.88 42.93 46.56 44.57 44.22 46.31 46.24 47.24 44.29 42.62 40.79 37.77 30.87
48.81 48.78 48.99 50.06 50.21 50.44 50.95 50.93 51.12 51.05 51.42 51.43 51.58 51.59 50.52 48.17 39.93 45.58 47.64 45.97 34.57 25.77 37.96 35.52 42.12 44.49 40.91 39.66 40.37 42.45 40.95 40.74 38.11 35.03 35.75 41.46 42.17 45.29 46.54 42.77 45.05 43.82 38.39 30.67 29.47 28.90 28.65
48.05 48.06 48.70 49.17 49.45 49.75 50.17 50.66 50.75 50.78 51.21 51.34 51.23 50.80 50.36 48.33 45.53 45.27 45.92 40.11 27.73 32.55 32.98 40.03 40.28 43.65 41.00 41.46 40.39 41.45 40.13 36.57 40.64 39.53 36.25 34.95 33.40 42.36 45.76 43.49 40.85 40.86 39.53 31.34 26.83 26.77 31.36
47.36 47.94 48.21 48.60 48.80 49.63 49.72 50.12 50.02 50.52 50.68 50.87 50.96 48.60 46.91 46.25 46.59 45.73 39.37 30.52 29.80 32.79 37.29 36.30 37.71 35.30 39.56 43.02 43.26 40.52 39.15 38.52 40.86 41.69 35.29 34.67 36.13 44.91 45.79 46.25 44.53 41.28 37.77 42.01 36.16 36.52 31.44
46.50 47.69 47.73 48.17 48.23 48.64 49.06 49.48 49.77 50.42 50.55 50.74 47.07 45.45 44.14 46.46 46.58 43.26 34.53 31.33 35.39 39.64 39.38 38.41 32.18 36.03 32.22 35.92 38.75 39.54 39.55 42.76 41.97 44.36 44.22 40.13 34.83 43.19 45.07 45.69 44.86 43.22 45.12 35.91 36.71 29.09 27.04
46.60 47.06 47.76 47.91 48.08 48.21 48.68 49.11 49.63 50.06 50.54 50.64 45.77 40.01 45.16 46.82 47.11 38.83 28.63 31.62 35.66 40.20 39.91 36.65 35.24 34.97 35.70 35.35 36.57 36.15 39.61 43.74 44.72 44.32 45.27 42.29 38.36 39.09 43.61 41.05 39.94 40.45 38.79 40.67 39.88 36.16 28.92
46.67 47.03 47.19 47.66 47.75 48.06 48.55 49.09 49.48 49.93 50.19 48.68 44.09 34.48 44.00 46.99 34.93 34.19 29.58 33.84 38.62 37.59 40.36 38.45 38.68 36.47 36.22 36.90 35.62 36.22 37.32 41.31 47.18 46.61 41.09 42.84 39.38 34.64 38.15 43.89 45.21 42.02 41.17 40.76 34.25 33.38 34.20
46.48 46.64 46.96 47.30 47.72 47.91 48.26 48.53 49.29 49.58 50.08 46.86 39.73 38.35 45.30 43.62 29.04 29.42 32.65 33.65 36.66 36.38 36.76 35.49 36.08 37.74 38.12 35.26 31.77 37.08 38.97 44.46 47.01 46.26 42.87 43.20 37.32 30.37 34.86 39.74 42.68 39.95 42.31 43.10 41.74 38.50 34.25
46.19 46.47 46.84 47.26 47.82 47.92 47.99 48.23 48.81 49.51 50.06 47.20 36.70 32.06 38.58 40.03 36.78 32.41 30.64 31.03 31.56 37.99 36.11 37.12 36.77 37.80 35.81 33.98 36.44 34.30 36.42 42.25 46.66 46.40 46.40 45.23 39.38 36.88 32.30 35.25 39.84 38.51 41.24 42.99 40.98 32.21 34.79
46.12 46.28 46.33 47.04 46.90 47.36 47.80 48.26 48.81 49.11 49.66 46.73 37.10 33.66 36.85 31.69 32.97 33.63 33.04 33.24 31.02 30.80 36.76 38.08 35.01 34.77 33.89 31.08 32.73 32.89 37.77 41.84 45.16 46.20 45.73 43.94 36.63 39.47 40.34 41.83 42.16 40.97 41.26 42.16 39.50 39.31 36.01
45.90 46.08 46.25 46.30 46.69 47.31 47.66 48.00 48.31 48.80 49.36 44.11 32.63 35.25 37.99 34.06 36.33 34.17 33.41 31.29 30.99 33.21 34.69 33.14 32.88 35.02 35.64 32.23 33.33 31.62 35.43 38.98 40.57 44.87 43.22 44.11 37.01 37.67 36.55 41.07 41.69 39.34 41.04 42.50 42.07 42.32 41.79
46.03 46.27 46.31 46.55 47.08 47.66 47.82 47.80 47.89 48.34 48.44 42.34 42.97 40.81 38.64 35.86 34.18 33.52 31.92 31.48 33.09 34.74 35.87 37.13 36.45 34.99 33.22 35.35 37.90 39.50 40.78 42.41 43.92 43.14 40.79 40.47 38.46 35.28 32.84 38.61 39.44 33.38 38.47 40.12 41.13 42.70 42.43
46.24 46.53 46.80 47.19 47.40 47.82 48.17 48.02 47.90 48.35 48.17 45.23 43.79 41.75 36.38 32.25 32.21 32.56 34.48 35.21 33.83 35.36 32.76 37.36 37.75 34.76 38.53 41.89 42.23 43.57 42.86 42.64 43.63 44.01 44.49 39.18 37.74 36.52 30.01 32.77 27.87 39.06 44.70 43.33 41.90 43.73 44.41
46.47 46.55 46.94 47.02 47.23 47.45 47.35 47.80 47.65 48.06 48.56 46.03 45.11 42.07 37.89 32.10 33.66 33.39 34.34 34.57 36.52 36.30 35.19 36.51 38.58 40.80 41.82 37.77 32.80 30.72 29.72 33.61 36.46 41.77 43.52 42.55 39.22 32.86 28.23 30.25 34.51 38.77 41.63 41.20 40.26 39.43 44.50
45.69 45.99 46.23 46.08 46.02 46.21 46.27 46.63 47.13 47.56 47.91 46.23 45.76 45.33 41.82 35.31 33.43 36.96 34.06 35.44 32.48 32.73 33.58 35.68 41.12 41.80 39.66 34.02 30.13 25.22 22.59 30.41 31.61 36.40 42.67 43.31 42.16 34.99 32.64 28.30 26.79 36.15 42.82 46.05 44.85 33.74 44.11
45.42 45.62 45.87 46.08 46.01 46.01 46.10 46.20 46.56 46.92 47.17 44.64 43.97 45.07 38.29 33.75 36.62 38.11 34.43 34.01 36.99 34.85 31.86 34.75 36.25 36.31 39.50 29.59 24.56 24.86 26.24 34.83 28.24 29.12 31.97 34.95 34.93 32.83 31.84 29.06 32.02 40.86 44.11 47.00 35.31 35.80 44.44
45.83 46.15 46.20 46.12 46.33 46.47 46.52 46.36 46.18 46.65 46.81 44.30 42.95 44.81 39.31 33.39 35.82 39.91 42.30 37.03 37.49 36.75 31.87 34.71 34.52 34.82 32.91 28.78 27.48 26.77 24.09 32.00 30.90 34.75 32.06 31.90 32.75 31.82 32.71 30.96 27.64 44.04 45.24 38.87 41.60 44.31 45.76
46.56 46.59 46.65 46.47 46.47 46.59 46.57 46.59 46.31 46.46 46.60 46.30 40.27 44.24 45.15 39.09 37.01 42.14 43.60 46.51 43.39 42.72 39.41 36.86 35.80 36.61 36.90 31.77 30.86 30.33 26.48 25.67 29.91 26.79 37.11 31.35 35.00 33.89 35.54 35.08 42.91 44.68 45.19 47.35 47.57 46.04 46.19

GFSGBSN_sfc_wetblb_057.txt.gz
Wetbulb
53.01 53.07 53.28 53.69 53.98 53.94 53.60 53.49 54.04 54.45 54.32 54.44 54.38 53.71 53.47 53.63 54.26 54.46 53.87 53.44 53.59 53.82 53.32 53.37 53.87 54.35 53.91 47.02 47.89 54.10 61.02 60.38 55.04 50.37 48.00 46.83 45.53 44.07 40.11 41.48 43.03 40.85 43.58 45.62 46.40 47.16 47.17
52.25 52.55 53.01 52.96 53.06 52.98 53.09 53.23 53.46 53.93 53.89 54.03 54.13 54.01 54.04 53.74 54.09 54.23 54.21 53.55 53.44 53.58 53.62 53.21 53.48 54.01 50.03 41.85 50.66 54.12 56.67 54.42 50.96 48.69 48.17 47.74 45.82 46.63 44.25 43.44 42.52 45.09 45.25 44.93 44.80 48.12 48.76
51.84 52.02 52.55 53.00 52.74 52.80 52.82 53.38 53.11 53.25 53.37 53.78 53.82 53.80 53.57 53.40 53.84 53.80 53.62 53.60 53.35 53.24 53.47 53.21 53.16 51.59 47.85 44.04 51.85 51.29 51.32 51.83 51.35 49.57 47.21 49.20 48.78 46.00 45.70 43.62 47.08 45.65 41.68 42.93 43.07 46.76 46.43
51.60 51.64 51.69 52.72 52.91 52.94 53.08 53.00 53.00 52.80 53.38 53.29 52.84 53.59 53.31 53.29 53.35 52.79 52.73 52.66 53.20 53.24 53.43 53.69 53.33 51.41 43.79 53.06 51.58 52.11 51.46 51.15 53.28 51.90 50.97 50.60 50.03 47.29 45.61 46.50 44.66 41.42 39.88 35.55 41.52 46.36 47.41
51.45 51.39 51.84 51.80 52.44 52.61 52.86 53.14 53.18 52.51 52.70 53.50 53.51 53.41 53.14 52.73 52.69 52.21 52.17 52.36 52.75 53.18 53.55 53.44 50.24 49.52 43.51 54.36 51.20 53.73 52.59 49.76 51.63 52.26 51.08 53.01 48.61 44.96 44.35 39.36 36.31 36.59 32.39 35.33 39.39 45.45 44.90
51.29 51.30 51.51 51.42 51.46 51.64 51.89 52.24 52.55 52.94 53.22 53.08 53.02 52.81 53.16 52.77 52.13 51.74 51.66 52.12 52.23 51.48 51.14 53.12 53.48 44.10 46.81 45.98 49.57 52.09 52.29 51.52 48.87 49.47 48.42 46.80 43.89 40.17 38.03 36.18 29.95 32.05 34.05 32.87 35.34 40.59 44.07
50.44 50.89 50.82 50.64 50.19 50.89 51.86 51.83 52.42 52.58 52.77 53.00 52.91 52.69 52.62 52.94 52.28 51.74 50.08 46.83 41.14 43.23 45.22 44.88 46.19 46.17 47.11 50.32 53.74 50.35 51.20 49.06 48.41 45.95 40.65 42.98 38.12 36.41 40.11 39.44 39.53 38.60 36.92 35.63 39.32 43.27 43.84
49.43 49.76 50.08 49.34 50.50 50.46 51.41 51.99 52.46 52.46 52.62 52.89 52.81 52.54 52.46 52.28 52.41 51.71 48.74 42.97 42.75 44.95 39.42 45.76 44.82 47.70 51.21 51.89 46.41 48.62 50.85 45.29 44.22 39.41 41.62 39.55 36.87 41.90 43.04 42.21 40.24 39.10 37.17 37.17 40.83 43.89 43.83
48.29 48.70 48.97 48.87 49.83 50.07 50.50 51.15 51.96 51.96 52.38 52.50 52.50 52.50 52.32 52.12 51.88 47.87 44.71 44.66 49.35 48.92 39.89 43.14 45.57 44.58 45.80 49.47 45.48 45.62 47.84 44.43 41.85 39.97 40.12 37.70 40.91 44.81 42.75 40.59 39.28 39.01 37.43 37.93 38.46 41.63 41.61
48.31 49.07 48.83 47.93 48.69 49.91 50.21 50.55 50.93 51.90 52.09 52.09 52.18 51.95 51.54 51.25 45.47 45.45 43.50 48.75 48.52 49.23 34.06 35.73 41.72 43.94 47.26 48.29 43.25 49.36 48.20 45.49 43.37 39.92 41.40 39.97 44.56 42.71 40.88 39.80 40.48 35.86 42.23 42.00 39.72 37.06 33.28
47.99 48.18 48.73 48.70 48.94 49.64 50.08 50.44 51.11 51.78 51.86 51.91 51.63 51.71 51.51 51.18 43.12 42.14 45.44 47.60 48.02 46.83 16.61 36.47 41.79 48.76 47.21 42.60 42.46 45.05 48.49 44.15 39.86 41.31 41.88 39.66 41.11 40.93 39.97 41.28 42.84 39.60 44.13 42.26 40.57 37.42 34.64
48.06 47.92 48.05 48.34 48.87 49.43 50.21 50.19 50.80 50.73 51.41 51.65 51.59 51.75 51.58 48.70 46.69 45.67 46.68 46.75 46.80 35.37 22.21 35.27 42.59 41.07 40.72 41.72 41.46 44.22 43.38 46.95 45.36 41.56 41.23 42.20 43.65 43.34 42.18 44.59 44.06 45.31 42.24 40.47 38.77 36.11 29.54
47.42 47.89 47.58 47.76 48.12 48.79 49.09 49.68 50.10 50.48 51.00 51.09 51.46 51.50 50.34 47.58 39.75 44.50 44.99 44.09 35.85 26.43 36.54 34.22 39.35 40.47 39.95 38.17 39.10 41.69 39.38 39.46 37.61 33.16 33.45 39.17 39.32 42.33 44.45 41.18 43.29 41.54 36.73 29.36 28.07 27.79 27.78
46.66 47.54 47.64 47.26 47.40 48.39 48.68 49.30 49.72 49.87 50.67 50.76 50.83 50.68 49.79 48.52 45.87 44.93 43.27 37.70 27.55 31.61 31.16 38.54 38.11 40.56 37.72 38.81 39.07 39.55 38.46 35.03 39.87 38.31 33.90 32.48 30.36 39.92 43.88 41.92 40.20 40.02 38.00 29.97 25.76 25.59 29.37
46.31 46.95 47.35 47.54 47.36 47.61 48.35 49.10 49.73 50.01 49.91 50.25 50.32 48.40 45.99 46.44 45.40 44.81 36.25 28.90 30.46 32.90 36.30 35.06 36.53 34.27 37.46 41.35 39.24 38.57 36.80 36.72 39.56 39.96 35.02 32.79 33.81 43.04 43.48 44.66 43.63 39.15 35.15 40.53 33.62 34.16 30.49
45.91 45.85 47.00 47.14 47.26 47.42 48.27 48.45 48.77 49.08 49.53 49.94 46.23 45.43 44.28 46.38 46.86 43.49 32.41 29.30 34.78 39.58 38.08 37.83 30.84 34.47 31.92 34.97 36.70 36.35 36.75 40.76 40.63 42.99 42.60 37.98 32.94 42.32 43.15 43.53 43.35 42.01 43.14 34.75 34.64 28.28 26.51
45.28 45.49 46.16 46.73 46.91 47.34 47.91 48.44 48.72 49.06 49.29 49.63 45.12 40.19 45.49 47.11 46.38 38.28 26.74 28.97 34.49 38.53 39.01 35.14 33.88 32.99 33.79 33.68 35.80 35.34 37.01 41.37 43.88 42.80 43.01 40.59 36.34 36.67 42.03 38.54 37.68 38.62 37.78 38.45 38.82 34.02 27.74
45.95 45.62 45.97 46.50 47.02 47.40 47.92 48.20 48.14 48.62 49.02 47.41 43.46 34.29 45.02 46.67 34.59 35.11 29.34 31.67 37.50 36.12 39.43 37.84 37.91 35.81 33.89 34.54 33.81 35.15 36.39 38.47 45.40 45.21 39.84 41.58 37.45 33.62 36.89 42.26 43.50 41.52 39.35 39.49 32.26 31.64 31.79
44.88 45.39 45.96 46.38 46.83 47.07 47.23 47.38 47.57 48.39 48.89 45.54 38.99 37.79 45.23 43.31 29.36 29.30 33.06 32.35 34.63 35.13 35.47 35.59 34.80 36.82 37.68 33.72 30.39 34.00 37.16 42.03 44.92 43.67 42.68 43.50 35.88 31.34 33.57 37.28 40.61 38.27 39.63 40.38 39.60 36.45 32.02
45.17 45.77 46.22 46.24 46.69 46.79 47.10 47.29 47.94 48.14 48.65 45.38 35.50 31.35 37.67 39.65 35.74 32.81 30.92 30.57 30.67 36.91 35.76 36.69 35.35 36.81 34.96 32.73 35.24 32.55 34.30 39.91 42.05 45.78 46.22 44.60 38.19 34.51 31.08 34.52 38.67 36.83 39.83 40.54 39.51 31.85 32.10
45.00 45.41 45.74 46.08 46.57 46.92 47.15 47.43 48.00 48.07 48.32 44.89 35.88 32.98 37.24 31.19 32.25 33.69 33.56 32.48 29.42 30.62 35.47 36.99 33.87 33.77 33.00 29.75 31.40 31.12 35.55 37.58 41.31 45.84 45.76 42.67 35.46 37.95 38.17 39.61 40.77 40.52 39.40 38.96 37.09 38.39 34.92
45.12 45.57 45.72 45.86 46.30 46.54 46.82 47.12 47.34 47.85 48.20 42.48 31.92 34.78 38.13 32.65 36.19 33.58 33.63 31.31 30.51 31.40 32.84 31.65 31.27 34.01 33.98 30.68 31.90 29.79 33.37 35.05 35.88 41.75 42.01 43.74 35.24 36.65 34.06 39.33 39.65 38.13 40.25 40.72 39.94 39.46 38.99
45.48 45.55 45.62 45.80 45.94 46.32 46.79 47.03 46.92 47.47 47.67 41.31 41.87 40.62 39.07 36.13 33.64 32.69 31.10 32.17 32.44 34.50 35.14 35.49 34.88 33.10 31.77 34.08 36.76 37.09 37.72 37.99 39.71 38.81 38.51 38.54 36.25 34.74 30.70 36.81 36.79 31.96 37.10 39.94 39.99 41.33 41.17
45.38 45.75 45.90 46.13 46.32 46.67 46.90 46.98 47.00 47.30 47.52 44.20 43.01 41.46 36.08 31.99 32.16 32.41 34.41 34.15 32.89 34.42 32.10 35.41 36.48 33.79 36.87 40.34 39.20 38.98 39.83 39.77 41.43 42.60 43.27 38.09 36.65 36.01 32.03 32.49 26.76 37.91 42.98 43.31 40.91 41.79 42.38
45.17 45.85 46.64 46.71 46.71 46.85 46.94 46.87 47.00 47.30 47.55 44.24 44.24 41.69 37.57 31.71 34.71 33.64 34.33 34.66 35.59 36.11 35.05 34.89 36.84 39.02 39.80 36.86 31.13 29.38 27.26 30.68 33.59 39.65 41.94 40.77 37.80 32.53 31.28 30.69 33.15 38.75 39.99 39.53 38.92 39.50 43.34
46.04 46.27 46.45 46.45 46.32 46.41 46.83 47.10 47.41 47.64 47.75 45.35 43.39 45.89 40.85 35.24 33.24 37.17 34.31 35.42 32.18 31.83 33.46 34.38 39.70 41.09 38.12 32.38 29.28 25.00 21.23 27.37 29.44 34.28 41.98 39.91 37.98 33.15 31.44 27.63 26.57 34.35 41.32 45.17 43.85 34.91 42.97
45.54 45.68 45.80 45.87 45.90 46.27 46.36 46.39 46.37 46.77 47.42 45.89 44.30 45.83 41.16 34.73 38.07 38.61 34.02 33.15 36.03 33.51 31.49 33.94 35.46 35.14 37.54 28.28 24.10 24.29 24.96 31.99 25.61 26.81 29.84 34.50 33.90 32.11 31.64 29.97 31.11 39.68 43.07 45.83 33.99 35.85 43.38
45.45 45.57 45.73 46.03 45.76 45.73 45.94 46.06 46.23 46.42 46.59 44.89 42.35 46.55 41.97 35.89 37.56 40.09 40.51 36.71 36.03 35.81 30.04 34.00 33.85 33.25 30.90 26.87 26.26 26.29 22.25 28.74 29.38 32.36 30.69 29.90 30.19 30.78 31.86 29.86 26.46 42.77 41.98 38.47 41.27 43.74 45.26
45.73 46.20 46.25 45.87 46.08 46.26 45.94 45.87 46.13 46.34 46.34 46.08 39.86 44.22 46.01 39.34 38.57 41.77 42.44 42.85 42.38 40.91 37.69 35.88 34.69 35.45 34.79 29.94 28.38 28.25 23.94 23.03 28.29 24.23 34.90 28.73 31.90 30.12 32.41 32.50 42.03 42.80 43.16 45.17 46.31 45.56 45.47

GFSGBSN_sfc_wetblb_063.txt.gz
Wetbulb
51.32 51.09 51.52 52.07 52.68 52.50 52.69 52.67 52.69 53.36 53.09 53.09 52.79 52.88 53.20 53.19 53.48 53.40 53.41 53.43 53.00 52.34 52.56 53.08 53.83 53.95 50.67 44.29 43.68 52.99 58.64 61.79 59.40 52.80 49.33 47.86 47.38 46.10 44.06 43.77 44.02 42.97 45.11 45.73 46.99 47.32 47.38
51.54 52.00 50.93 51.21 52.16 52.29 52.19 52.37 52.40 52.74 52.59 52.81 53.22 53.22 52.82 52.76 52.56 52.53 53.20 53.10 52.89 52.70 52.31 52.48 53.33 52.96 47.59 37.43 49.49 53.02 51.93 54.07 52.37 49.88 49.46 48.60 47.49 48.20 45.79 44.70 44.63 46.59 45.56 46.75 47.72 47.50 49.08
50.91 50.96 51.04 51.21 51.44 51.15 51.20 51.66 51.74 52.17 52.49 52.61 52.89 53.27 53.14 52.54 52.33 52.19 52.58 52.64 52.38 52.35 52.60 52.02 52.84 50.69 43.66 40.48 50.54 51.08 51.11 52.11 52.32 50.23 48.73 49.84 49.85 47.82 47.80 45.45 48.04 47.20 44.61 45.95 46.54 46.76 47.52
52.17 51.16 51.16 50.90 51.57 51.42 51.57 50.97 51.05 51.22 51.60 51.86 52.30 53.02 53.14 53.12 52.85 52.67 52.59 52.36 52.13 52.29 52.46 53.11 52.91 49.17 40.36 50.22 52.52 51.46 51.44 50.12 51.66 51.25 50.88 51.47 51.14 48.54 47.18 48.52 46.05 44.28 43.29 40.47 44.07 47.18 47.75
50.75 51.69 50.96 50.94 51.12 51.36 51.19 51.07 51.34 51.32 52.04 52.19 52.39 53.06 52.94 52.76 52.61 52.47 52.23 52.08 51.71 51.90 53.44 53.54 48.92 46.00 39.31 52.29 49.62 52.81 51.92 47.90 49.51 50.56 51.43 52.41 50.05 46.95 46.66 43.14 41.56 40.89 38.67 38.42 41.14 46.45 47.31
50.22 50.22 50.96 50.28 49.82 49.94 49.95 49.55 51.11 51.50 51.39 51.81 52.04 52.67 52.77 52.47 52.23 52.13 51.75 51.38 50.82 52.06 51.32 51.12 49.78 41.51 43.85 41.42 49.36 52.11 52.19 51.39 47.61 48.53 48.44 48.08 46.00 43.24 42.28 41.27 34.66 37.63 37.75 38.61 39.44 44.01 45.33
49.71 49.68 50.06 49.99 48.73 48.70 49.34 48.96 50.12 50.86 51.39 51.20 51.54 51.81 52.59 52.43 52.37 51.97 50.00 44.54 42.63 41.87 43.69 42.34 43.02 41.42 43.02 50.80 53.93 51.14 51.85 50.13 48.57 46.72 42.99 45.17 42.05 38.38 40.58 42.82 41.98 40.76 39.20 38.44 41.11 43.50 42.77
49.10 49.06 50.05 49.29 48.16 48.48 48.94 48.61 49.40 50.35 50.42 50.71 51.04 51.86 52.14 52.25 51.98 51.58 46.92 41.19 43.23 42.86 36.56 43.22 43.40 43.37 46.93 48.69 42.76 47.21 51.26 46.18 43.95 39.79 43.33 41.12 39.10 43.90 43.16 42.89 42.03 41.03 39.66 39.56 42.10 43.51 43.27
48.87 49.22 49.03 48.86 47.79 48.08 49.23 48.35 47.67 49.67 49.84 50.21 51.16 51.74 51.56 51.69 51.44 46.04 44.13 43.82 47.79 46.48 37.29 39.67 43.20 42.00 43.17 45.15 40.66 41.87 47.80 46.01 42.33 39.94 40.77 39.88 42.06 44.72 42.63 40.60 40.11 40.26 39.46 39.20 39.38 41.95 43.78
48.66 48.79 48.70 48.55 47.73 47.42 47.56 47.41 48.64 48.85 49.35 50.31 50.33 50.66 50.78 50.69 45.09 44.46 40.87 47.39 48.09 46.95 33.52 34.45 38.85 42.20 43.94 44.97 39.84 46.43 47.47 45.80 42.82 39.75 40.88 40.43 44.14 41.88 41.58 39.92 41.51 37.34 42.04 41.64 39.86 38.87 36.96
48.83 48.24 48.22 48.18 47.89 47.91 48.13 48.15 48.30 48.91 48.85 49.43 50.06 50.71 50.64 50.43 45.26 42.53 44.39 47.81 47.56 46.15 20.13 36.87 40.51 48.05 46.49 40.62 41.75 43.70 48.29 44.88 40.60 40.60 41.59 39.27 40.51 40.68 39.35 40.61 42.65 40.39 43.64 41.84 40.96 39.30 38.33
47.20 46.90 47.45 48.01 48.11 48.30 47.51 47.61 48.00 48.10 48.57 49.16 49.53 50.05 50.31 47.55 47.33 46.41 47.37 45.83 44.87 32.30 21.52 35.07 41.28 40.72 40.00 42.09 42.16 44.39 43.36 46.05 45.79 41.85 42.67 41.84 45.00 44.17 43.31 43.40 43.67 44.77 42.67 41.79 40.68 39.28 33.09
46.91 47.24 47.02 47.69 47.91 47.58 46.86 46.89 47.61 47.60 48.07 48.32 49.39 49.87 48.47 49.30 43.16 45.68 46.09 42.12 30.38 23.64 37.01 33.09 34.73 38.73 38.14 37.81 39.72 40.85 38.78 37.98 37.12 34.45 35.84 39.91 40.69 43.67 44.68 41.38 43.15 43.51 40.82 33.64 32.11 32.22 32.38
46.58 47.23 47.18 47.31 47.25 46.89 46.69 46.89 47.33 47.54 47.49 47.79 48.98 48.58 46.89 48.53 48.40 47.29 43.70 34.81 23.36 30.52 33.18 38.89 37.45 37.32 34.69 38.97 38.46 39.11 37.36 34.53 39.63 39.09 36.63 34.26 31.83 40.73 43.88 42.42 40.32 40.57 40.36 34.92 28.53 29.71 33.77
45.74 45.79 46.41 46.64 46.38 46.37 46.67 46.57 46.99 46.98 47.36 47.53 47.99 44.02 44.40 46.33 49.05 47.28 37.80 25.19 26.30 30.52 36.06 34.61 35.99 33.10 34.61 37.81 37.69 38.20 36.59 35.71 38.05 40.48 35.40 33.88 34.49 41.72 42.65 44.01 44.37 39.93 37.06 43.03 35.87 35.84 34.40
45.47 45.10 46.00 46.65 46.57 46.33 46.33 46.07 46.08 46.15 46.76 47.67 41.82 40.75 40.89 47.61 48.19 43.86 32.99 28.15 29.31 37.33 36.71 36.20 30.82 34.36 30.51 33.30 34.45 36.45 36.14 38.64 38.20 42.25 43.54 39.40 34.05 41.49 42.80 44.47 43.81 43.16 44.33 36.65 36.77 30.16 28.59
44.92 44.96 45.01 45.59 45.58 45.96 45.48 45.58 45.54 45.68 46.57 47.14 40.59 36.32 42.57 47.59 46.83 38.29 28.27 29.68 31.38 35.68 36.03 33.98 32.67 31.95 32.68 32.13 33.49 34.73 35.93 37.88 39.25 41.27 43.26 41.23 38.83 37.82 41.93 39.72 38.69 39.92 39.24 39.97 40.31 36.92 32.47
44.16 44.49 44.58 44.73 44.73 45.34 45.20 45.05 45.20 45.55 46.67 43.50 39.12 30.37 44.75 47.15 33.99 34.79 30.93 32.55 35.54 33.78 37.78 36.28 36.74 35.33 33.57 33.86 32.24 33.34 33.82 37.05 40.40 40.22 38.95 42.12 38.57 33.17 36.87 42.12 43.96 42.75 40.99 41.40 35.89 33.34 35.38
44.18 44.56 44.31 44.30 44.66 44.99 44.94 44.58 45.17 45.93 46.06 40.96 35.92 35.38 44.59 43.88 28.17 29.54 34.39 32.73 33.70 32.97 34.54 34.69 33.92 35.62 37.00 33.47 30.38 33.99 35.10 40.19 40.35 39.55 37.90 43.63 36.78 31.50 33.76 39.02 41.15 39.48 41.23 41.38 40.06 37.95 35.85
43.56 44.07 43.97 44.05 44.23 44.99 44.70 44.57 45.00 45.61 46.06 42.31 35.90 29.73 35.95 38.59 37.51 32.34 31.35 30.78 30.08 35.17 33.71 34.60 34.55 36.18 34.24 32.51 35.27 32.36 33.14 37.79 40.53 40.90 44.06 45.22 40.01 34.74 30.86 34.82 39.18 36.53 38.72 40.70 40.68 35.01 35.70
43.63 43.87 43.82 43.84 44.07 44.41 44.46 44.44 44.80 46.05 46.23 41.74 35.87 30.81 35.05 28.46 29.93 32.71 33.16 32.06 29.55 29.57 34.64 35.63 32.27 33.58 32.69 29.24 30.77 30.94 34.65 35.36 38.12 41.83 42.41 43.07 35.40 38.27 38.64 39.15 39.15 38.36 38.16 39.56 37.68 39.12 36.08
42.92 43.56 43.85 43.53 43.86 44.12 43.94 44.57 45.28 45.95 46.23 39.34 32.16 33.72 36.02 33.11 34.97 31.59 33.25 30.86 30.09 31.49 33.30 31.40 31.42 33.66 34.13 30.91 31.96 30.22 32.91 33.76 33.43 37.54 37.03 38.78 36.04 37.29 35.08 38.82 38.68 36.95 39.06 38.98 39.14 39.44 39.33
43.58 43.98 44.29 44.17 44.28 43.94 44.03 44.83 45.40 46.08 45.52 38.24 39.46 39.56 36.59 32.59 32.05 32.00 32.54 32.16 31.85 34.53 35.09 36.00 34.81 33.17 31.49 33.37 36.56 37.13 37.63 37.34 36.90 34.34 34.12 35.01 36.13 34.14 30.96 35.49 35.98 33.30 36.68 38.08 39.72 40.94 40.55
44.34 44.54 44.64 44.71 44.83 44.76 45.04 45.07 45.52 45.89 45.46 41.27 40.61 39.67 33.92 28.42 31.69 31.60 33.46 33.90 33.04 34.04 32.30 35.46 36.64 33.89 36.91 40.56 40.31 38.99 36.86 36.34 36.40 35.99 37.68 33.87 35.79 34.20 31.36 32.36 24.87 37.60 41.69 40.96 40.08 41.03 42.28
44.76 45.29 45.82 45.44 45.14 45.04 45.07 45.25 45.13 45.18 45.49 42.23 42.29 39.66 35.38 29.41 32.01 33.37 33.79 33.96 35.31 36.15 34.52 34.72 36.92 39.08 41.13 38.38 33.11 30.86 30.08 31.39 33.19 35.06 35.20 37.19 34.48 33.05 29.64 29.56 32.64 36.45 39.80 40.33 39.43 39.16 42.63
44.89 44.68 44.88 44.90 45.61 45.11 45.06 44.76 44.66 45.29 45.68 43.44 42.20 43.47 39.64 32.12 30.38 35.21 34.47 35.21 32.40 32.45 33.19 35.23 40.01 42.21 40.37 34.17 31.04 25.95 24.53 27.71 28.53 33.72 38.04 36.45 37.40 35.30 31.86 28.04 25.13 35.36 41.67 44.41 44.02 34.71 43.54
45.14 45.40 45.53 45.19 45.12 45.25 45.34 45.29 45.31 45.63 46.10 43.89 42.21 44.01 39.59 32.90 36.47 36.96 33.77 35.20 37.15 34.95 32.76 34.43 35.75 35.90 39.33 32.53 29.00 27.80 27.45 31.38 26.72 28.65 30.31 32.26 33.53 30.92 31.52 30.00 33.15 39.32 42.62 44.54 33.22 35.05 44.66
45.11 45.42 45.47 45.56 45.44 45.42 45.22 45.62 45.80 45.73 46.14 44.41 41.67 44.62 40.33 33.44 37.28 40.29 40.74 37.85 37.66 36.52 32.24 35.55 34.78 34.48 33.59 29.96 29.49 28.96 28.36 30.71 29.92 32.36 33.53 32.04 30.92 31.13 32.70 30.14 26.35 41.14 42.44 37.62 41.82 44.94 45.10
45.48 45.59 45.94 45.94 45.61 45.65 45.56 45.30 45.09 44.76 46.33 46.13 40.46 44.95 44.24 38.48 37.16 42.89 43.07 44.51 43.09 41.78 38.65 38.18 36.40 34.34 34.81 31.82 31.86 32.47 29.41 29.35 31.12 27.48 35.37 30.34 35.65 34.24 34.81 34.76 40.20 42.83 42.41 43.54 44.41 43.51 44.54

GFSGBSN_sfc_wetblb_066.txt.gz
Wetbulb
51.49 51.77 51.95 51.17 51.77 52.57 52.63 52.40 52.59 53.22 52.89 52.90 52.88 52.93 53.04 52.91 52.96 52.67 53.19 53.10 53.08 52.47 52.45 52.35 52.65 53.40 52.71 46.17 44.30 51.67 58.54 61.37 60.24 57.23 53.68 52.51 50.98 50.04 47.34 48.38 49.08 47.42 48.11 50.14 50.84 50.68 50.81
51.01 50.85 51.27 50.79 50.83 51.67 51.25 51.40 51.70 52.33 52.94 53.07 53.31 53.00 52.80 52.72 52.88 52.86 53.20 53.10 52.98 52.93 52.85 52.66 52.33 52.61 49.93 40.98 48.99 53.66 55.48 55.89 56.94 56.24 53.75 53.36 51.64 52.43 49.22 48.59 47.77 48.87 49.00 49.14 49.75 50.41 51.50
52.37 51.98 50.89 51.56 51.49 51.09 51.06 51.11 51.11 51.21 52.22 52.59 52.74 53.00 53.16 52.85 52.94 52.95 53.04 53.14 52.81 52.89 52.97 52.57 52.54 51.89 47.67 44.67 50.04 51.83 51.23 52.14 56.47 54.83 53.74 55.83 54.72 50.52 49.94 47.73 50.64 49.54 46.61 48.75 49.68 50.46 50.01
51.36 51.30 52.11 51.69 52.10 51.83 51.41 51.42 51.03 50.70 51.58 52.19 52.69 53.12 53.18 53.18 53.04 53.06 52.88 52.80 52.47 52.81 53.02 53.09 52.96 50.83 44.55 51.34 53.03 50.94 52.14 50.89 51.39 56.00 53.79 54.76 55.55 52.50 50.35 50.83 49.16 47.02 47.57 43.65 48.62 49.09 50.18
50.71 50.20 50.67 51.18 51.22 50.93 51.07 50.54 50.57 50.28 51.07 51.33 52.12 52.60 52.71 52.66 52.60 52.48 52.50 52.25 52.26 52.46 53.16 53.22 51.71 49.45 43.45 52.68 49.05 51.70 54.41 49.24 49.35 53.83 54.32 54.55 53.84 51.13 50.65 46.15 44.68 46.30 42.39 44.02 45.55 49.02 49.32
50.14 50.30 50.00 50.14 50.77 49.67 49.13 49.45 49.95 50.30 50.99 50.99 51.37 52.06 52.40 52.41 52.46 51.95 51.81 51.70 51.38 51.99 53.20 53.14 52.20 44.16 47.55 46.02 47.92 52.54 55.00 53.65 48.93 48.26 49.79 51.07 50.59 47.63 47.45 45.17 39.00 42.20 42.77 44.49 44.10 47.35 48.38
50.20 50.43 49.08 49.43 50.36 48.87 48.66 48.83 48.96 49.79 50.25 50.61 50.90 51.12 51.96 52.26 52.18 51.83 50.73 49.90 46.67 45.86 45.77 42.30 45.00 45.49 47.58 50.55 53.13 49.91 53.53 52.28 50.80 46.50 44.75 49.19 45.37 42.41 45.37 46.80 46.30 45.26 44.15 43.64 45.41 46.94 45.08
49.61 49.48 49.73 49.83 49.91 48.79 48.23 48.98 49.33 49.26 49.74 50.01 50.16 50.80 51.46 51.84 51.98 51.47 51.12 45.87 43.04 44.04 37.48 44.79 45.32 45.43 47.55 50.24 44.35 48.69 52.57 47.04 46.69 41.41 45.43 46.51 42.48 46.08 48.18 47.33 45.51 44.34 43.22 43.50 45.53 46.95 46.38
48.80 49.31 49.54 48.85 48.64 48.47 48.18 48.44 48.43 49.05 49.73 49.70 50.02 50.34 50.68 51.19 50.98 50.90 47.94 46.18 50.70 48.12 39.41 41.30 45.21 44.34 45.24 46.72 41.91 43.90 47.43 45.36 43.71 43.27 42.43 43.16 43.78 47.45 46.80 44.69 42.76 43.51 42.64 43.46 43.13 45.32 47.14
48.02 48.40 48.94 48.55 48.75 49.09 47.66 47.60 48.04 48.49 48.94 49.49 50.06 50.46 50.61 50.39 47.76 49.06 46.62 50.08 51.41 49.95 35.14 37.57 40.99 44.33 45.34 45.70 39.97 46.87 49.03 44.91 41.68 41.13 44.35 43.13 45.41 44.49 45.23 43.99 44.42 40.82 45.84 44.73 43.99 42.36 38.87
47.79 47.92 48.45 48.70 48.49 48.79 48.03 47.70 47.90 48.45 48.95 48.97 49.45 50.00 49.97 49.69 46.97 46.02 47.72 51.64 51.06 48.18 24.63 38.94 41.58 50.01 46.23 42.22 42.63 43.37 49.61 45.02 38.38 40.34 44.07 42.01 41.85 41.65 42.28 43.93 46.16 43.03 46.56 45.02 44.70 42.98 41.85
47.46 47.69 47.33 47.30 47.87 48.60 48.33 48.45 47.71 47.64 48.00 48.55 48.97 49.36 49.42 48.13 49.93 49.29 51.39 50.97 48.40 33.63 24.53 36.53 42.64 42.14 40.77 42.05 41.74 45.75 43.26 46.02 45.13 40.38 41.14 42.91 47.42 44.85 44.32 46.21 46.92 46.72 44.43 44.30 44.63 43.10 36.82
46.88 46.80 46.89 47.42 47.88 48.28 48.02 47.73 47.22 47.20 47.63 47.79 48.32 48.50 48.23 49.18 44.25 49.77 50.89 46.70 33.54 26.79 37.94 35.59 37.33 40.83 39.93 38.99 41.01 41.76 38.44 37.50 36.79 33.33 33.92 39.17 42.57 46.29 46.80 43.52 46.49 45.36 42.48 36.77 35.34 35.82 34.61
46.38 46.43 46.75 46.86 47.54 47.48 47.83 47.30 47.20 47.73 47.18 47.32 47.88 47.86 48.19 48.50 51.13 50.44 46.76 37.23 25.56 32.03 33.97 40.43 39.50 40.27 36.37 40.86 40.52 40.69 39.29 35.22 39.96 39.45 36.38 32.65 33.00 43.04 46.33 44.73 42.63 42.76 42.69 38.71 31.44 33.91 37.68
45.95 45.77 45.88 46.11 45.99 46.79 46.94 47.01 47.49 47.05 46.92 47.25 47.25 46.67 46.16 48.04 50.89 49.92 38.63 28.76 29.64 32.93 37.27 36.72 38.69 35.75 36.43 39.42 38.85 39.30 38.63 38.08 39.39 41.17 36.14 35.30 35.45 44.69 45.85 46.72 46.08 42.97 40.48 46.14 39.91 41.02 39.06
45.82 45.46 45.53 46.01 46.02 46.73 46.58 46.30 46.70 46.34 46.36 46.82 44.68 43.88 43.39 49.29 51.23 46.26 34.94 29.12 33.12 37.95 39.39 38.40 32.26 35.99 32.71 35.19 36.26 36.71 36.66 40.43 39.86 42.13 44.27 40.95 35.88 42.90 44.15 46.62 47.67 45.94 47.36 39.35 40.64 33.14 32.22
44.95 45.07 45.04 45.10 45.90 45.54 45.68 46.28 46.32 45.87 45.79 46.15 43.54 38.18 45.87 49.77 49.25 39.37 29.83 31.77 35.39 39.22 39.48 36.09 35.06 34.34 35.10 34.11 35.63 35.83 35.63 38.71 40.90 39.98 43.15 42.80 41.08 40.27 43.61 42.00 42.30 43.15 42.16 43.43 43.80 41.39 35.93
44.10 44.17 44.88 44.87 44.74 45.15 44.88 45.66 45.92 45.57 45.86 44.24 40.84 31.38 47.34 49.79 34.61 36.53 30.83 34.41 37.58 37.51 40.08 38.20 38.43 37.32 36.19 36.29 34.53 35.18 34.08 36.29 40.84 41.74 39.37 42.92 41.39 37.66 39.96 45.12 46.89 46.09 43.93 43.83 38.63 37.55 40.46
44.05 44.05 44.32 44.45 44.23 44.53 44.91 45.11 45.46 45.89 45.55 43.87 35.16 36.44 46.72 46.36 30.55 31.36 34.07 35.10 36.72 36.13 37.05 37.11 36.16 38.17 38.95 35.81 32.40 35.65 35.37 40.16 40.90 39.26 39.73 44.04 39.31 34.42 36.07 41.35 44.23 42.88 44.20 44.20 43.90 43.15 38.97
43.24 42.84 44.35 44.05 44.10 44.10 44.54 45.09 45.37 45.82 45.63 43.83 37.22 30.79 37.18 40.19 38.85 34.34 32.40 32.51 33.00 38.47 37.55 38.76 37.21 38.44 37.20 35.38 37.45 34.53 35.36 37.03 39.66 41.10 42.96 44.91 41.56 37.40 33.36 36.58 40.96 39.51 41.91 43.90 42.77 38.16 38.74
43.12 43.31 43.58 43.65 43.48 44.08 44.46 45.09 45.26 45.79 45.61 43.62 36.51 32.49 36.81 30.79 32.29 33.98 33.97 33.64 31.97 32.49 37.53 38.60 35.78 35.60 34.74 31.85 33.86 33.67 36.78 37.40 38.75 41.14 40.67 42.17 36.79 39.70 40.63 40.96 41.20 40.53 40.55 42.23 40.94 42.00 39.00
43.69 43.11 43.26 43.44 43.71 43.74 44.39 44.63 44.90 45.46 45.57 39.45 33.28 33.55 37.18 35.16 35.49 33.02 31.36 31.43 31.30 34.74 35.30 34.32 34.06 35.79 36.88 33.56 35.12 32.65 35.43 36.43 34.72 38.75 38.24 40.90 35.74 37.67 35.88 39.89 40.60 39.14 41.90 42.46 43.06 43.18 42.51
43.09 43.38 43.59 43.43 43.22 43.64 44.08 44.42 44.66 45.10 45.21 39.69 39.41 39.95 36.98 34.02 33.60 32.22 32.49 33.47 33.28 35.95 37.61 38.70 37.28 35.15 34.85 36.94 39.12 40.42 40.72 40.16 39.53 36.81 35.53 35.96 35.12 34.92 31.38 37.76 36.91 34.46 40.32 41.46 42.14 43.85 43.71
43.40 43.57 43.89 44.00 43.78 43.73 44.52 44.64 44.76 44.99 45.13 43.06 40.55 40.34 32.68 28.23 32.13 32.23 33.77 33.18 34.00 35.36 35.49 37.97 38.41 35.95 39.06 43.36 42.95 42.06 40.98 40.02 40.13 39.51 39.76 35.24 36.92 35.95 32.81 34.53 25.16 39.82 44.72 44.27 43.15 43.96 44.96
44.54 44.41 44.35 44.68 45.09 45.06 44.85 44.61 44.66 44.95 45.63 44.72 44.37 39.15 35.63 30.33 33.14 33.05 33.88 34.71 36.22 37.58 36.99 36.60 38.25 39.92 41.92 39.43 35.41 32.99 34.16 33.75 36.15 38.72 38.89 39.85 36.96 35.36 30.37 30.73 36.13 38.85 41.95 41.84 40.96 41.06 44.84
45.13 45.08 44.61 45.42 45.79 45.63 45.58 45.13 44.80 44.99 45.61 44.68 41.51 43.10 38.22 33.87 32.46 36.36 34.65 35.83 33.30 35.07 35.25 36.38 40.61 42.63 40.70 36.90 33.63 27.75 27.73 30.67 30.89 34.68 39.89 39.02 39.34 36.28 33.75 28.53 26.16 38.01 43.80 46.55 46.07 36.94 44.65
45.32 45.30 45.21 45.25 45.80 45.57 45.31 45.89 45.06 45.09 45.71 43.40 41.05 43.23 38.93 32.14 37.84 38.88 34.88 35.19 38.78 37.18 34.76 36.61 37.43 37.13 39.29 34.85 31.12 29.72 29.56 34.49 29.83 30.65 31.24 32.00 33.90 31.16 32.37 31.51 35.11 41.99 44.30 46.29 34.52 37.32 45.35
45.11 45.25 45.30 45.06 45.11 45.35 45.37 45.64 45.59 45.00 45.04 43.08 40.67 43.85 39.86 34.81 37.77 40.61 41.61 38.56 39.16 38.54 33.75 37.13 35.95 36.50 36.07 32.07 31.84 32.28 32.07 34.38 32.91 35.56 34.57 32.91 31.76 31.40 32.98 29.89 28.84 44.68 43.78 38.51 43.24 46.34 47.06
45.12 45.59 45.73 45.72 45.63 45.45 45.42 45.33 45.50 45.43 45.41 45.02 39.59 44.13 44.23 38.63 37.90 43.47 44.39 45.70 44.13 43.20 40.24 39.66 36.93 37.45 38.11 35.17 36.31 36.93 33.17 36.64 34.43 30.70 39.12 33.66 38.00 36.60 37.02 36.77 44.79 46.33 44.90 47.24 46.84 45.69 46.79

GFSGBSN_sfc_wetblb_069.txt.gz
Wetbulb
51.76 51.80 51.74 51.79 51.35 51.58 52.08 51.68 51.92 51.92 52.21 52.44 52.94 52.61 52.94 53.00 53.18 53.41 53.93 53.78 53.92 53.72 53.37 53.45 53.35 53.20 52.38 49.69 49.33 53.59 59.13 61.36 61.22 57.50 56.10 53.76 53.16 52.43 48.89 49.63 50.28 49.00 49.86 51.02 51.49 51.02 51.33
52.01 52.17 51.51 50.97 51.23 51.99 51.76 51.57 51.37 51.24 51.82 52.49 53.00 53.07 52.68 52.90 52.95 53.19 53.72 53.43 53.45 53.53 53.61 53.29 53.49 52.34 49.70 44.66 56.38 53.15 52.54 51.36 54.30 57.63 56.17 55.04 53.23 53.95 50.99 50.16 49.69 50.94 50.41 50.44 50.64 50.93 51.22
51.75 51.82 52.28 52.31 51.48 51.71 51.47 51.49 50.99 50.72 50.99 51.71 52.05 53.24 52.91 52.85 52.83 52.75 53.03 53.16 53.04 53.16 53.61 53.23 53.20 52.84 47.58 47.87 56.22 55.71 52.39 51.09 49.70 52.13 54.31 56.28 55.76 52.89 52.94 49.92 52.06 50.89 47.54 49.31 50.20 50.30 49.72
51.62 51.09 51.32 51.14 51.46 51.57 51.11 50.69 50.91 50.20 50.35 51.24 51.43 51.98 53.10 52.95 52.77 53.00 52.96 52.65 52.63 53.04 53.39 53.13 53.57 53.32 45.51 53.99 56.28 54.07 54.17 51.97 52.39 51.33 51.02 55.53 56.92 54.45 52.08 52.36 50.16 47.94 48.03 44.17 49.58 50.40 51.03
51.26 50.77 50.64 50.60 50.65 51.02 50.70 50.27 49.77 50.34 50.07 50.46 51.06 51.70 52.48 52.52 52.51 52.51 52.29 52.20 52.19 52.93 53.13 53.73 53.38 51.28 45.45 54.40 50.42 52.48 53.70 50.19 52.43 52.96 51.24 53.45 53.70 51.37 51.93 47.60 45.69 47.38 43.17 45.09 47.19 51.27 49.81
50.05 50.61 51.28 50.50 49.90 50.21 50.69 49.60 49.76 49.99 49.70 49.64 50.50 51.12 51.77 52.19 52.16 51.60 51.67 51.44 52.54 52.53 53.10 55.26 53.58 47.30 49.95 46.63 51.44 51.77 56.26 54.76 51.92 49.13 48.05 49.98 49.94 47.32 47.62 46.50 39.76 43.07 44.06 46.06 46.06 49.79 49.10
49.55 49.44 49.86 50.13 49.34 49.90 50.34 49.29 49.37 50.44 49.12 49.32 49.72 50.20 50.84 51.60 51.76 51.11 51.06 53.11 49.19 49.07 49.30 44.76 45.86 47.37 48.18 50.88 53.96 51.96 53.62 52.95 51.67 47.75 41.07 46.17 44.04 42.72 45.01 46.49 47.21 46.97 46.27 45.57 48.40 50.39 48.23
49.45 49.11 49.70 50.17 50.04 50.08 49.95 49.26 49.64 49.78 49.05 48.98 49.75 50.12 50.10 51.19 51.40 50.72 51.64 47.63 46.00 47.55 39.77 46.88 46.99 47.06 48.82 49.65 44.43 48.87 54.32 48.96 46.09 41.86 44.29 42.26 41.00 45.37 47.30 47.81 47.02 46.47 44.88 45.27 48.03 49.11 47.41
48.93 49.13 48.90 48.91 49.51 49.42 48.98 49.03 48.82 48.90 49.11 49.48 49.48 49.67 49.70 50.59 50.22 50.08 50.23 48.56 52.85 51.71 41.84 43.92 47.02 46.37 47.42 48.53 44.10 45.09 51.09 49.33 44.16 40.93 42.43 39.28 43.65 46.45 46.13 46.01 45.60 46.14 45.02 45.39 45.22 47.96 48.74
48.89 48.77 48.50 48.37 48.87 49.25 49.44 49.27 48.18 48.49 49.09 49.31 49.35 49.32 50.39 50.04 46.75 50.15 47.63 51.44 53.86 52.73 37.31 41.43 43.73 47.06 48.21 47.35 42.61 48.56 50.68 48.45 42.29 38.91 40.95 43.07 46.24 45.18 44.60 44.41 46.81 43.07 47.67 46.74 45.71 44.72 41.20
48.40 48.29 48.09 48.18 48.49 48.59 48.56 48.85 47.81 47.79 48.33 48.60 49.07 49.00 49.81 48.93 47.43 46.14 49.75 53.27 53.67 48.98 27.75 41.31 44.12 51.77 48.34 44.49 44.73 45.47 50.06 48.28 41.11 38.93 40.13 39.84 43.65 42.62 42.68 44.73 47.46 45.24 48.39 46.81 46.10 44.52 44.20
47.69 47.58 47.58 47.75 47.77 48.36 48.53 48.92 48.92 48.24 47.99 47.75 48.42 48.57 48.81 47.90 48.70 49.09 52.50 53.38 50.14 36.76 27.68 38.53 44.06 43.45 44.18 45.54 44.41 46.48 45.18 47.78 46.39 40.85 41.24 39.76 45.95 45.00 44.45 45.80 47.38 48.64 46.85 46.52 46.10 44.62 38.28
46.76 46.71 46.98 47.16 47.27 48.08 47.59 48.20 48.47 47.87 47.46 47.26 47.85 48.08 47.30 48.30 44.96 52.42 52.48 46.73 35.40 29.29 38.78 36.88 39.45 42.50 42.15 41.59 42.83 42.81 40.05 39.09 37.23 33.16 34.77 38.85 40.23 45.32 46.99 42.50 46.41 45.70 43.53 37.62 36.24 36.60 35.67
46.16 46.23 46.64 46.81 46.77 47.20 47.06 47.79 47.75 47.35 47.66 47.07 47.56 47.58 47.62 48.51 48.79 50.65 48.57 39.77 27.88 34.36 36.21 40.24 40.71 40.93 37.75 40.83 42.96 42.52 40.57 36.12 39.91 37.71 35.06 33.51 31.68 41.90 46.08 44.66 41.99 44.33 43.68 39.16 32.75 34.35 38.82
45.90 45.90 45.93 46.32 46.16 46.30 46.54 46.43 46.82 47.31 47.27 47.11 46.95 46.16 45.75 47.66 50.80 50.45 41.77 31.74 32.13 35.46 38.26 37.38 39.53 35.81 37.13 40.57 40.69 41.95 40.66 38.99 39.54 39.84 32.99 34.52 33.27 43.34 45.25 46.52 45.18 43.10 40.85 46.34 41.12 42.66 40.55
45.25 45.41 45.49 45.96 45.74 45.84 46.15 46.51 46.38 46.33 46.38 46.68 44.17 42.94 43.60 50.27 51.41 46.59 35.72 30.39 36.07 39.42 40.41 39.53 33.60 36.57 34.82 37.97 38.26 39.57 39.06 40.48 38.72 41.97 42.85 38.78 33.73 42.19 43.70 46.45 46.45 44.82 47.74 39.60 41.32 33.34 32.78
44.64 44.75 45.01 45.23 44.97 44.61 45.30 45.67 45.91 46.29 45.76 46.22 42.72 37.43 45.80 50.58 49.69 39.62 30.61 33.16 36.82 40.82 40.76 37.69 36.37 36.33 37.28 37.04 38.18 37.11 37.78 40.33 40.07 39.59 42.30 41.48 38.62 38.89 43.70 41.56 41.03 41.22 41.99 43.71 43.80 42.04 35.84
44.29 44.43 44.48 44.50 44.72 44.90 44.84 44.37 45.45 45.80 46.15 43.80 41.12 33.26 48.00 49.73 35.64 37.23 31.64 36.07 39.40 38.69 41.51 39.09 39.47 38.14 37.52 38.49 36.99 36.52 36.53 37.76 40.25 39.65 37.83 41.90 39.20 35.22 39.95 46.43 46.92 45.21 44.22 44.57 39.50 38.14 41.95
44.30 44.31 44.14 44.27 44.57 44.61 44.59 44.79 45.02 45.31 45.46 43.38 35.60 37.68 47.31 46.65 31.24 33.01 36.00 36.36 38.32 37.18 38.27 38.39 37.43 39.11 40.46 37.46 34.24 38.12 38.82 41.90 40.62 38.26 37.50 39.23 38.01 31.83 34.73 41.84 45.52 42.87 45.03 45.72 45.26 44.05 38.38
43.72 43.74 44.08 44.22 43.71 43.49 44.41 43.35 44.89 45.33 45.36 43.97 37.80 32.16 37.97 41.98 40.34 35.80 34.21 34.39 34.04 39.93 38.38 39.52 38.88 40.15 38.45 36.68 39.81 36.35 37.14 39.22 40.55 38.72 41.81 41.70 39.40 36.23 33.83 37.81 42.37 40.76 43.34 45.21 44.21 39.77 39.99
43.27 43.43 43.58 43.68 44.04 44.12 44.39 44.24 44.71 45.14 45.32 43.58 36.91 34.01 37.34 31.48 34.36 35.74 36.43 35.61 33.50 34.12 39.03 39.68 37.27 37.90 36.30 32.86 35.07 35.40 38.30 39.72 41.02 40.17 39.70 40.53 35.77 39.32 40.46 42.00 42.85 42.05 42.05 43.33 42.34 43.05 39.58
43.21 43.34 43.34 43.09 43.51 43.87 44.15 44.27 45.24 44.83 44.84 42.01 33.57 33.92 38.18 35.96 37.60 35.11 34.84 33.78 33.42 35.70 36.77 35.62 35.77 37.43 38.11 35.19 36.16 34.54 37.45 38.14 36.81 39.54 37.33 39.07 34.74 37.06 37.50 41.43 41.54 40.19 42.18 42.16 42.81 43.39 43.43
43.31 43.95 43.93 43.43 43.34 43.63 43.97 43.73 44.70 44.73 44.34 39.47 40.72 41.62 38.41 34.23 35.20 33.50 33.64 34.64 34.27 36.87 38.01 39.41 38.64 37.73 36.65 38.17 41.30 42.75 43.03 42.32 40.83 38.61 36.25 35.42 34.67 33.96 33.29 37.72 38.07 34.41 40.43 41.77 42.55 44.60 44.80
43.44 43.71 43.92 43.93 43.85 43.83 43.88 44.36 44.68 44.91 44.42 42.91 42.17 40.69 33.95 29.60 32.51 33.96 34.70 35.72 35.24 36.32 35.49 37.95 40.95 38.21 40.64 44.86 44.67 43.59 42.35 41.29 40.91 40.12 40.90 35.86 34.88 35.28 31.73 35.22 26.46 40.33 46.32 45.35 43.56 44.28 46.15
44.40 44.02 44.78 45.21 44.94 44.94 44.65 44.53 44.72 45.03 45.11 43.90 43.39 40.53 36.57 30.14 34.35 34.04 35.17 35.43 37.16 38.36 37.17 38.73 40.79 42.44 44.82 41.09 35.87 33.47 34.50 34.84 37.36 39.68 39.66 40.09 36.75 33.56 29.11 30.45 34.50 38.76 42.28 42.84 42.15 41.26 46.09
44.89 44.68 45.44 45.49 44.72 45.62 45.08 45.03 44.89 44.89 45.28 44.67 44.18 45.22 39.31 34.36 33.12 37.17 34.64 36.52 33.93 34.73 36.42 38.50 42.58 43.93 40.44 37.48 35.43 29.49 28.29 32.72 32.21 35.44 40.93 39.92 39.27 35.62 33.86 28.10 25.94 37.20 44.65 46.92 45.99 36.38 45.71
45.12 45.53 45.44 45.62 45.30 45.30 45.44 45.37 45.34 45.11 45.18 44.87 42.36 46.13 39.89 33.80 37.21 38.59 35.18 35.78 38.90 37.72 35.39 39.07 38.69 38.22 39.71 35.08 32.23 31.01 31.04 36.34 31.03 31.34 32.42 34.27 34.90 31.49 32.28 31.58 35.48 43.57 45.58 47.17 34.86 36.19 46.75
45.28 45.37 45.42 45.37 45.49 45.49 45.72 45.75 45.91 45.56 45.15 45.02 43.09 46.36 40.32 34.86 37.50 40.43 41.31 38.25 39.35 38.50 35.26 38.95 36.49 36.78 34.99 33.41 33.10 33.47 33.06 35.33 34.44 37.36 35.07 33.59 32.37 31.78 33.40 30.83 28.71 46.27 44.62 39.58 44.08 47.60 47.87
45.16 45.33 45.44 45.47 45.42 45.34 45.46 45.72 46.00 45.61 45.21 45.20 41.08 46.13 45.57 38.03 37.76 44.91 44.21 45.62 45.15 42.48 39.85 39.30 37.35 37.31 38.79 35.91 37.43 37.88 34.77 37.48 35.68 31.35 41.17 34.06 37.91 36.29 36.86 36.60 45.66 47.84 46.25 47.60 48.47 46.89 46.27